[[{"header":{"parameterUnit":"m.s-1","parameterCategory":1,"la1":30.6,"la2":28.766,"lo1":-90.7593,"lo2":-88.6598,"dy":0.0162,"dx":0.0183,"nx":116,"ny":114,"refTime":"2023-10-22T12:00:00:Z","depth":0,"parameterNumber":2,"parameterNumberName":"U-component_of_WINDS"},"data":[0.0,0.0,0.0,0.0,0.0,0.0,0.0,0.0,0.0,0.0,0.0,0.0,0.0,0.0,0.0,0.0,0.0,0.0,0.0,0.0,0.0,0.0,0.0,0.0,0.0,0.0,0.0,0.0,0.0,0.0,0.0,0.0,0.0,0.0,0.0,0.0,0.0,0.0,0.0,0.0,0.0,0.0,0.0,0.0,0.0,0.0,0.0,0.0,0.0,0.0,0.0,0.0,0.0,0.0,0.0,0.0,0.0,0.0,0.0,0.0,0.0,0.0,0.0,0.0,0.0,0.0,0.0,0.0,0.0,0.0,0.0,0.0,0.0,0.0,0.0,0.0,0.0,0.0,0.0,0.0,0.0,0.0,0.0,0.0,0.0,0.0,0.0,0.0,0.0,0.0,0.0,0.0,0.0,0.0,0.0,0.0,0.0,0.0,0.0,0.0,0.0,0.0,0.0,0.0,0.0,0.0,0.0,0.0,0.0,0.0,0.0,0.0,0.0,0.0,0.0,0.0,0.0,0.0,0.0,0.0,0.0,0.0,0.0,0.0,0.0,0.0,0.0,0.0,0.0,0.0,0.0,0.0,0.0,0.0,0.0,0.0,0.0,0.0,0.0,0.0,0.0,0.0,0.0,0.0,0.0,0.0,0.0,0.0,0.0,0.0,0.0,0.0,0.0,0.0,0.0,0.0,0.0,0.0,0.0,0.0,0.0,0.0,0.0,0.0,0.0,0.0,0.0,0.0,0.0,0.0,0.0,0.0,0.0,0.0,0.0,0.0,0.0,0.0,0.0,0.0,0.0,0.0,0.0,0.0,0.0,0.0,0.0,0.0,0.0,0.0,0.0,0.0,0.0,0.0,0.0,0.0,0.0,0.0,0.0,0.0,0.0,0.0,0.0,0.0,0.0,0.0,0.0,0.0,0.0,0.0,0.0,0.0,0.0,0.0,0.0,0.0,0.0,0.0,0.0,0.0,0.0,0.0,0.0,0.0,0.0,0.0,0.0,0.0,0.0,0.0,0.0,0.0,0.0,0.0,0.0,0.0,0.0,0.0,0.0,0.0,0.0,0.0,0.0,0.0,0.0,0.0,0.0,0.0,0.0,0.0,0.0,0.0,0.0,0.0,0.0,0.0,0.0,0.0,0.0,0.0,0.0,0.0,0.0,0.0,0.0,0.0,0.0,0.0,0.0,0.0,0.0,0.0,0.0,0.0,0.0,0.0,0.0,0.0,0.0,0.0,0.0,0.0,0.0,0.0,0.0,0.0,0.0,0.0,0.0,0.0,0.0,0.0,0.0,0.0,0.0,0.0,0.0,0.0,0.0,0.0,0.0,0.0,0.0,0.0,0.0,0.0,0.0,0.0,0.0,0.0,0.0,0.0,0.0,0.0,0.0,0.0,0.0,0.0,0.0,0.0,0.0,0.0,0.0,0.0,0.0,0.0,0.0,0.0,0.0,0.0,0.0,0.0,0.0,0.0,0.0,0.0,0.0,0.0,0.0,0.0,0.0,0.0,0.0,0.0,0.0,0.0,0.0,0.0,0.0,0.0,0.0,0.0,0.0,0.0,0.0,0.0,0.0,0.0,0.0,0.0,0.0,0.0,0.0,0.0,0.0,0.0,0.0,0.0,0.0,0.0,0.0,0.0,0.0,0.0,0.0,0.0,0.0,0.0,0.0,0.0,0.0,0.0,0.0,0.0,0.0,0.0,0.0,0.0,0.0,0.0,0.0,0.0,0.0,0.0,0.0,0.0,0.0,0.0,0.0,0.0,0.0,0.0,0.0,0.0,0.0,0.0,0.0,0.0,0.0,0.0,0.0,0.0,0.0,0.0,0.0,0.0,0.0,0.0,0.0,0.0,0.0,0.0,0.0,0.0,0.0,0.0,0.0,0.0,0.0,0.0,0.0,0.0,0.0,0.0,0.0,0.0,0.0,0.0,0.0,0.0,0.0,0.0,0.0,0.0,0.0,0.0,0.0,0.0,0.0,0.0,0.0,0.0,0.0,0.0,0.0,0.0,0.0,0.0,0.0,0.0,0.0,0.0,0.0,0.0,0.0,0.0,0.0,0.0,0.0,0.0,0.0,0.0,0.0,0.0,0.0,0.0,0.0,0.0,0.0,0.0,0.0,0.0,0.0,0.0,0.0,0.0,0.0,0.0,0.0,0.0,0.0,0.0,0.0,0.0,0.0,0.0,0.0,0.0,0.0,0.0,0.0,0.0,0.0,0.0,0.0,0.0,0.0,0.0,0.0,0.0,0.0,0.0,0.0,0.0,0.0,0.0,0.0,0.0,0.0,0.0,0.0,0.0,0.0,0.0,0.0,0.0,0.0,0.0,0.0,0.0,0.0,0.0,0.0,0.0,0.0,0.0,0.0,0.0,0.0,0.0,0.0,0.0,0.0,0.0,0.0,0.0,0.0,0.0,0.0,0.0,0.0,0.0,0.0,0.0,0.0,0.0,0.0,0.0,0.0,0.0,0.0,0.0,0.0,0.0,0.0,0.0,0.0,0.0,0.0,0.0,0.0,0.0,0.0,0.0,0.0,0.0,0.0,0.0,0.0,0.0,0.0,0.0,0.0,0.0,0.0,0.0,0.0,0.0,0.0,0.0,0.0,0.0,0.0,0.0,0.0,0.0,0.0,0.0,0.0,0.0,0.0,0.0,0.0,0.0,0.0,0.0,0.0,0.0,0.0,0.0,0.0,0.0,0.0,0.0,0.0,0.0,0.0,0.0,0.0,0.0,0.0,0.0,0.0,0.0,0.0,0.0,0.0,0.0,0.0,0.0,0.0,0.0,0.0,0.0,0.0,0.0,0.0,0.0,0.0,0.0,0.0,0.0,0.0,0.0,0.0,0.0,0.0,0.0,0.0,0.0,0.0,0.0,0.0,0.0,0.0,0.0,0.0,0.0,0.0,0.0,0.0,0.0,0.0,0.0,0.0,0.0,0.0,0.0,0.0,0.0,0.0,0.0,0.0,0.0,0.0,0.0,0.0,0.0,0.0,0.0,0.0,0.0,0.0,0.0,0.0,0.0,0.0,0.0,0.0,0.0,0.0,0.0,0.0,0.0,0.0,0.0,0.0,0.0,0.0,0.0,0.0,0.0,0.0,0.0,0.0,0.0,0.0,0.0,0.0,0.0,0.0,0.0,0.0,0.0,0.0,0.0,0.0,0.0,0.0,0.0,0.0,0.0,0.0,0.0,0.0,0.0,0.0,0.0,0.0,0.0,0.0,0.0,0.0,0.0,0.0,0.0,0.0,0.0,0.0,0.0,0.0,0.0,0.0,0.0,0.0,0.0,0.0,0.0,0.0,0.0,0.0,0.0,0.0,0.0,0.0,0.0,0.0,0.0,0.0,0.0,0.0,0.0,0.0,0.0,0.0,0.0,0.0,0.0,0.0,0.0,0.0,0.0,0.0,0.0,0.0,0.0,0.0,0.0,0.0,0.0,0.0,0.0,0.0,0.0,0.0,0.0,0.0,0.0,0.0,0.0,0.0,0.0,0.0,0.0,0.0,0.0,0.0,0.0,0.0,0.0,0.0,0.0,0.0,0.0,0.0,0.0,0.0,0.0,0.0,0.0,0.0,0.0,0.0,0.0,0.0,0.0,0.0,0.0,0.0,0.0,0.0,0.0,0.0,0.0,0.0,0.0,0.0,0.0,0.0,0.0,0.0,0.0,0.0,0.0,0.0,0.0,0.0,0.0,0.0,0.0,0.0,0.0,0.0,0.0,0.0,0.0,0.0,0.0,0.0,0.0,0.0,0.0,0.0,0.0,0.0,0.0,0.0,0.0,0.0,0.0,0.0,0.0,0.0,0.0,0.0,0.0,0.0,0.0,0.0,0.0,0.0,0.0,0.0,0.0,0.0,0.0,0.0,0.0,0.0,0.0,0.0,0.0,0.0,0.0,0.0,0.0,0.0,0.0,0.0,0.0,0.0,0.0,0.0,0.0,0.0,0.0,0.0,0.0,0.0,0.0,0.0,0.0,0.0,0.0,0.0,0.0,0.0,0.0,0.0,0.0,0.0,0.0,0.0,0.0,0.0,0.0,0.0,0.0,0.0,0.0,0.0,0.0,0.0,0.0,0.0,0.0,0.0,0.0,0.0,0.0,0.0,0.0,0.0,0.0,0.0,0.0,0.0,0.0,0.0,0.0,0.0,0.0,0.0,0.0,0.0,0.0,0.0,0.0,0.0,0.0,0.0,0.0,0.0,0.0,0.0,0.0,0.0,0.0,0.0,0.0,0.0,0.0,0.0,0.0,0.0,0.0,0.0,0.0,0.0,0.0,0.0,0.0,0.0,0.0,0.0,0.0,0.0,0.0,0.0,0.0,0.0,0.0,0.0,0.0,0.0,0.0,0.0,0.0,0.0,0.0,0.0,0.0,0.0,0.0,0.0,0.0,0.0,0.0,0.0,0.0,0.0,0.0,0.0,0.0,0.0,0.0,0.0,0.0,0.0,0.0,0.0,0.0,0.0,0.0,0.0,0.0,0.0,0.0,0.0,0.0,0.0,0.0,0.0,0.0,0.0,0.0,0.0,0.0,0.0,0.0,0.0,0.0,0.0,0.0,0.0,0.0,0.0,0.0,0.0,0.0,0.0,0.0,0.0,0.0,0.0,0.0,0.0,0.0,0.0,0.0,0.0,0.0,0.0,0.0,0.0,0.0,0.0,0.0,0.0,0.0,0.0,0.0,0.0,0.0,0.0,0.0,0.0,0.0,0.0,0.0,0.0,0.0,0.0,0.0,0.0,0.0,0.0,0.0,0.0,0.0,0.0,0.0,0.0,0.0,0.0,0.0,0.0,0.0,0.0,0.0,0.0,0.0,0.0,0.0,0.0,0.0,0.0,0.0,0.0,0.0,0.0,0.0,0.0,0.0,0.0,0.0,0.0,0.0,0.0,0.0,0.0,0.0,0.0,0.0,0.0,0.0,0.0,0.0,0.0,0.0,0.0,0.0,0.0,0.0,0.0,0.0,0.0,0.0,0.0,0.0,0.0,0.0,0.0,0.0,0.0,0.0,0.0,0.0,0.0,0.0,0.0,0.0,0.0,0.0,0.0,0.0,0.0,0.0,0.0,0.0,0.0,0.0,0.0,0.0,0.0,0.0,0.0,0.0,0.0,0.0,0.0,0.0,0.0,0.0,0.0,0.0,0.0,0.0,0.0,0.0,0.0,0.0,0.0,0.0,0.0,0.0,0.0,0.0,0.0,0.0,0.0,0.0,0.0,0.0,0.0,0.0,0.0,0.0,0.0,0.0,0.0,0.0,0.0,0.0,0.0,0.0,0.0,0.0,0.0,0.0,0.0,0.0,0.0,0.0,0.0,0.0,0.0,0.0,0.0,0.0,0.0,0.0,0.0,0.0,0.0,0.0,0.0,0.0,0.0,0.0,0.0,0.0,0.0,0.0,0.0,0.0,0.0,0.0,0.0,0.0,0.0,0.0,0.0,0.0,0.0,0.0,0.0,0.0,0.0,0.0,0.0,0.0,0.0,0.0,0.0,0.0,0.0,0.0,0.0,0.0,0.0,0.0,0.0,0.0,0.0,0.0,0.0,0.0,0.0,0.0,0.0,0.0,0.0,0.0,0.0,0.0,0.0,0.0,0.0,0.0,0.0,0.0,0.0,0.0,0.0,0.0,0.0,0.0,0.0,0.0,0.0,0.0,0.0,0.0,0.0,0.0,0.0,0.0,0.0,0.0,0.0,0.0,0.0,0.0,0.0,0.0,0.0,0.0,0.0,0.0,0.0,0.0,0.0,0.0,0.0,0.0,0.0,0.0,0.0,0.0,0.0,0.0,0.0,0.0,0.0,0.0,0.0,0.0,0.0,0.0,0.0,0.0,0.0,0.0,0.0,0.0,0.0,0.0,0.0,0.0,0.0,0.0,0.0,0.0,0.0,0.0,0.0,0.0,0.0,0.0,0.0,0.0,0.0,0.0,0.0,0.0,0.0,0.0,0.0,0.0,0.0,0.0,0.0,0.0,0.0,0.0,0.0,0.0,0.0,0.0,0.0,0.0,0.0,0.0,0.0,0.0,0.0,0.0,0.0,0.0,0.0,0.0,0.0,0.0,0.0,0.0,0.0,0.0,0.0,0.0,-1.6999,-1.6707,0.0,0.0,0.0,0.0,0.0,0.0,0.0,0.0,0.0,0.0,0.0,0.0,0.0,0.0,0.0,0.0,0.0,0.0,0.0,0.0,0.0,0.0,0.0,0.0,0.0,0.0,0.0,0.0,0.0,0.0,0.0,0.0,0.0,0.0,0.0,0.0,0.0,-2.1894,-2.1894,-2.1894,-2.1875,-2.1466,-2.1016,-2.0605,0.0,0.0,0.0,0.0,0.0,0.0,0.0,0.0,0.0,0.0,0.0,0.0,0.0,0.0,0.0,0.0,0.0,0.0,0.0,0.0,0.0,0.0,0.0,0.0,0.0,0.0,0.0,0.0,0.0,0.0,0.0,0.0,0.0,0.0,0.0,0.0,0.0,0.0,0.0,0.0,0.0,0.0,0.0,0.0,0.0,0.0,0.0,0.0,0.0,0.0,0.0,0.0,0.0,0.0,0.0,0.0,0.0,0.0,0.0,0.0,0.0,0.0,0.0,0.0,0.0,0.0,0.0,0.0,0.0,0.0,-1.7506,-1.7311,0.0,0.0,0.0,0.0,0.0,0.0,0.0,0.0,0.0,0.0,0.0,0.0,0.0,0.0,0.0,0.0,0.0,0.0,0.0,0.0,0.0,0.0,0.0,-2.2109,-2.2109,-2.2109,-2.2109,-2.2109,0.0,0.0,0.0,0.0,0.0,0.0,-2.2109,-2.2109,-2.2109,-2.2109,-2.2109,-2.207,-2.1992,-2.1992,-2.1562,-2.084,-2.0762,0.0,0.0,0.0,0.0,0.0,0.0,0.0,0.0,0.0,0.0,0.0,0.0,0.0,0.0,0.0,0.0,0.0,0.0,0.0,0.0,0.0,0.0,0.0,0.0,0.0,0.0,0.0,0.0,0.0,0.0,0.0,0.0,0.0,0.0,0.0,0.0,0.0,0.0,0.0,0.0,0.0,0.0,0.0,0.0,0.0,0.0,0.0,0.0,0.0,0.0,0.0,0.0,0.0,0.0,0.0,0.0,0.0,0.0,0.0,0.0,0.0,0.0,0.0,-1.8008,-1.8008,-1.8008,-1.8008,-1.8008,-1.8008,-1.8008,-1.8008,-1.8008,-1.8008,0.0,0.0,0.0,0.0,0.0,0.0,0.0,0.0,0.0,0.0,0.0,0.0,0.0,0.0,0.0,0.0,0.0,0.0,0.0,-2.2925,-2.2925,-2.2925,-2.2925,-2.2925,-2.2925,-2.2925,-2.2925,0.0,0.0,0.0,0.0,0.0,-2.2925,-2.2925,-2.2925,-2.2925,-2.2925,-2.275,-2.2422,-2.2422,-2.2168,-2.1699,-2.1309,-2.1112,-2.1093,0.0,0.0,0.0,0.0,0.0,0.0,0.0,0.0,0.0,0.0,0.0,0.0,0.0,0.0,0.0,0.0,0.0,0.0,0.0,0.0,0.0,0.0,0.0,0.0,0.0,0.0,0.0,0.0,0.0,0.0,0.0,0.0,0.0,0.0,0.0,0.0,0.0,0.0,0.0,0.0,0.0,-1.7852,-1.7852,0.0,0.0,0.0,0.0,0.0,0.0,0.0,0.0,0.0,0.0,0.0,0.0,0.0,-1.8008,-1.8008,-1.8008,-1.8008,-1.8008,-1.8008,-1.8008,-1.8008,-1.8008,-1.8008,-1.8008,-1.8008,0.0,-1.8008,-1.8008,0.0,0.0,0.0,0.0,0.0,0.0,0.0,0.0,0.0,0.0,0.0,0.0,0.0,0.0,0.0,0.0,0.0,0.0,0.0,0.0,0.0,-2.3101,-2.3101,-2.3101,-2.3101,-2.3101,-2.3101,-2.3101,0.0,0.0,-2.3101,-2.3101,-2.3101,-2.3101,-2.3101,-2.3101,-2.3101,-2.3003,-2.2828,-2.2828,-2.273,-2.2578,-2.2107,-2.1816,-2.1562,-2.1133,0.0,0.0,0.0,0.0,0.0,0.0,0.0,0.0,0.0,0.0,0.0,0.0,0.0,0.0,0.0,0.0,0.0,0.0,0.0,0.0,0.0,0.0,0.0,0.0,0.0,0.0,0.0,0.0,0.0,0.0,0.0,0.0,0.0,0.0,0.0,0.0,0.0,0.0,0.0,-1.8008,-1.8008,-1.8008,-1.8327,-1.8563,0.0,0.0,0.0,0.0,0.0,0.0,0.0,0.0,0.0,-1.8008,-1.8008,-1.8125,-1.8325,-1.8325,-1.8496,-1.873,-1.873,-1.873,-1.873,-1.873,-1.8594,-1.8325,-1.8325,-1.8223,-1.8008,-1.8008,-1.8008,-1.8008,0.0,0.0,0.0,0.0,-1.8008,-1.8008,0.0,0.0,0.0,0.0,0.0,0.0,0.0,0.0,0.0,0.0,0.0,0.0,-2.3101,-2.3101,-2.3101,-2.3101,-2.3101,-2.3101,-2.3101,-2.3101,-2.3101,-2.3101,-2.3101,-2.3101,-2.3101,-2.3101,-2.3101,-2.3101,-2.3101,-2.3101,-2.3101,-2.3101,-2.3101,-2.3081,-2.2769,-2.2441,-2.2012,-2.1582,-2.1366,-2.1327,0.0,0.0,0.0,0.0,0.0,0.0,0.0,0.0,0.0,0.0,0.0,0.0,0.0,0.0,0.0,0.0,0.0,0.0,0.0,0.0,0.0,0.0,0.0,0.0,0.0,0.0,0.0,0.0,0.0,0.0,0.0,0.0,0.0,0.0,0.0,0.0,0.0,-1.8008,-1.8008,-1.8008,-1.8008,-1.8008,0.0,0.0,0.0,0.0,0.0,0.0,-1.834,-1.834,-1.834,-1.834,-1.834,-1.8496,-1.8773,-1.8773,-1.8965,-1.9297,-1.9297,-1.9297,-1.9297,-1.9297,-1.9102,-1.8773,-1.8773,-1.8633,-1.832,-1.8105,-1.8008,-1.8008,-1.8008,-1.8008,-1.8008,-1.8008,-1.8008,-1.8008,0.0,0.0,0.0,0.0,0.0,0.0,0.0,0.0,0.0,0.0,0.0,-2.3101,-2.3101,-2.3101,-2.3101,-2.3101,-2.3101,-2.3101,-2.3101,-2.3101,-2.3101,-2.3101,-2.3101,-2.3101,-2.3101,-2.3101,-2.3101,-2.3101,-2.3101,-2.3101,-2.3101,-2.3101,-2.3101,-2.3101,-2.3081,-2.2828,-2.2461,-2.2031,-2.1855,-2.1855,-2.1836,0.0,0.0,0.0,0.0,0.0,0.0,0.0,0.0,0.0,0.0,0.0,0.0,0.0,0.0,0.0,0.0,0.0,0.0,0.0,0.0,0.0,0.0,0.0,0.0,0.0,0.0,0.0,0.0,0.0,0.0,0.0,0.0,0.0,0.0,0.0,0.0,0.0,0.0,-1.8008,-1.8008,0.0,0.0,0.0,0.0,-1.8539,-1.8559,-1.8754,-1.9199,-1.9219,-1.9219,-1.9219,-1.9219,-1.9238,-1.9258,-1.9258,-1.9258,-1.9297,-1.9297,-1.9297,-1.9297,-1.9297,-1.9277,-1.9258,-1.9258,-1.9238,-1.916,-1.834,-1.8008,-1.8008,-1.8008,-1.8008,-1.8008,-1.8008,-1.8008,-1.8008,0.0,0.0,0.0,0.0,0.0,0.0,0.0,0.0,-2.3101,-2.3101,-2.3101,-2.3101,-2.3101,-2.3101,-2.3101,-2.3101,-2.3101,-2.3101,-2.3101,-2.3101,-2.3101,-2.3101,-2.3101,-2.3101,-2.3101,-2.3101,-2.3101,-2.3101,-2.3101,-2.3101,-2.3101,-2.3101,-2.3101,-2.3101,-2.3101,-2.3003,-2.2847,-2.2461,-2.2285,-2.2266,-2.1992,-2.1797,0.0,0.0,0.0,0.0,0.0,0.0,0.0,0.0,0.0,0.0,0.0,0.0,0.0,0.0,0.0,0.0,0.0,0.0,0.0,0.0,0.0,0.0,0.0,0.0,0.0,0.0,0.0,0.0,0.0,0.0,0.0,0.0,0.0,0.0,0.0,0.0,0.0,-1.8008,-1.8208,0.0,-1.8383,-1.8672,-1.8887,-1.9043,-1.9062,-1.9121,-1.9277,-1.9551,-1.9687,-1.9687,-1.9961,-2.0254,-2.0527,-2.0508,-2.0684,-2.0957,-2.0957,-2.0957,-2.0957,-2.0957,-2.0801,-2.0527,-2.0234,-1.9961,-1.9648,-1.9062,-1.8828,-1.8828,-1.8828,-1.8652,-1.8383,-1.8383,-1.8208,-1.8008,0.0,0.0,0.0,0.0,0.0,0.0,0.0,-2.3101,-2.3101,-2.3101,-2.3101,-2.3101,-2.3101,-2.3101,-2.3101,-2.3101,-2.3101,-2.3101,-2.3101,-2.3101,-2.3101,-2.3101,-2.3101,-2.3101,-2.3101,-2.3101,-2.3101,-2.3101,-2.3101,-2.3101,-2.3101,-2.3101,-2.3101,-2.3101,-2.3101,-2.3101,-2.3081,-2.2808,-2.2672,-2.2695,-2.2422,-2.2227,-2.209,0.0,0.0,0.0,0.0,0.0,0.0,0.0,0.0,0.0,0.0,0.0,0.0,0.0,0.0,0.0,0.0,0.0,0.0,0.0,0.0,0.0,0.0,0.0,0.0,0.0,0.0,0.0,0.0,0.0,0.0,0.0,0.0,0.0,0.0,-1.8188,-1.8281,-1.8418,-1.8691,-1.887,-1.9026,-1.9336,-1.9629,-1.9922,-1.9941,-2.0019,-2.0156,-2.043,-2.0586,-2.0586,-2.0859,-2.1152,-2.1405,-2.1465,-2.1602,-2.1894,-2.1894,-2.1894,-2.1894,-2.1894,-2.1719,-2.1445,-2.1133,-2.084,-2.0566,-2.0273,-2.0156,-2.0117,-1.9512,-1.9102,-1.8848,-1.8848,-1.8672,-1.8437,0.0,0.0,0.0,0.0,0.0,0.0,-2.3101,-2.3101,-2.3101,-2.3101,-2.3101,-2.3101,-2.3101,-2.3101,-2.3101,-2.3101,-2.3101,-2.3101,-2.3101,-2.3101,-2.3101,-2.3101,-2.3101,-2.3101,-2.3101,-2.3101,-2.312,-2.312,-2.312,-2.314,-2.314,-2.314,-2.314,-2.314,-2.314,-2.312,-2.312,-2.312,-2.3101,-2.3101,-2.3101,-2.2847,-2.2539,0.0,0.0,0.0,0.0,0.0,0.0,0.0,0.0,0.0,0.0,0.0,0.0,0.0,0.0,0.0,0.0,0.0,0.0,0.0,0.0,0.0,0.0,0.0,0.0,0.0,0.0,0.0,0.0,0.0,0.0,0.0,0.0,0.0,-1.8676,-1.8617,-1.8792,-1.9258,-1.9316,-1.9492,-1.9922,-1.9961,-2.0294,-2.1151,-2.121,-2.1405,-2.1855,-2.1894,-2.1894,-2.1894,-2.1914,-2.1934,-2.1934,-2.1934,-2.1934,-2.1934,-2.1934,-2.1934,-2.1934,-2.1934,-2.1934,-2.1934,-2.1914,-2.1894,-2.1894,-2.1894,-2.1894,-2.1719,-2.0019,-1.9355,-1.9336,-1.9336,-1.9316,-1.9297,0.0,0.0,0.0,0.0,0.0,0.0,-2.3101,-2.3101,-2.3101,-2.3101,-2.3101,-2.3101,-2.3101,-2.3101,-2.3101,-2.3101,-2.3101,-2.3101,-2.3101,-2.3101,-2.3101,-2.3101,-2.3101,-2.3101,-2.3101,-2.3437,-2.3613,-2.3613,-2.3906,-2.4017,-2.4017,-2.4017,-2.4017,-2.4017,-2.4017,-2.3906,-2.3613,-2.3613,-2.3437,-2.3101,-2.3101,-2.3023,-2.2925,0.0,0.0,0.0,0.0,0.0,0.0,0.0,0.0,0.0,0.0,0.0,0.0,0.0,0.0,0.0,0.0,0.0,0.0,0.0,0.0,0.0,0.0,0.0,0.0,0.0,0.0,0.0,0.0,0.0,0.0,0.0,-1.9297,-1.9238,-1.9121,-1.9102,-1.9258,-1.9687,-2.0019,-2.0391,-2.0781,-2.1152,-2.1445,-2.1699,-2.1699,-2.1758,-2.1875,-2.2168,-2.2344,-2.2344,-2.2637,-2.275,-2.275,-2.275,-2.275,-2.275,-2.275,-2.275,-2.275,-2.275,-2.275,-2.273,-2.248,-2.2344,-2.2324,-2.2012,-2.1894,-2.1836,-2.1367,-2.082,-2.0253,-2.0253,-1.9862,-1.9297,0.0,0.0,0.0,0.0,0.0,0.0,-2.3101,-2.3101,-2.3101,-2.3101,-2.3101,-2.3101,-2.3101,-2.3101,-2.3101,-2.3101,-2.3101,-2.3179,-2.3398,-2.3418,-2.332,-2.3101,-2.3276,-2.3418,-2.3418,-2.3828,-2.4043,-2.4043,-2.4297,-2.4414,-2.4414,-2.4414,-2.4414,-2.4414,-2.4414,-2.4277,-2.4043,-2.3867,-2.3633,-2.3398,-2.3159,-2.2818,-2.2403,-2.2906,-2.2621,-2.1913,-2.1178,-2.0855,-2.0571,-1.9609,0.0,0.0,0.0,0.0,0.0,0.0,0.0,0.0,0.0,0.0,0.0,0.0,0.0,0.0,0.0,0.0,0.0,0.0,0.0,0.0,0.0,0.0,0.0,0.0,-2.0098,-2.0156,-2.0352,-2.0059,-2.0059,-2.0664,-2.0957,-2.1289,-2.1738,-2.1992,-2.2305,-2.2656,-2.2676,-2.2754,-2.293,-2.3184,-2.3301,-2.3301,-2.351,-2.3627,-2.3627,-2.3627,-2.3627,-2.3627,-2.3627,-2.3627,-2.3627,-2.3627,-2.3627,-2.3608,-2.3223,-2.3047,-2.3008,-2.2598,-2.2402,-2.2383,0.0,0.0,0.0,0.0,-2.0801,-2.0371,0.0,0.0,0.0,0.0,0.0,0.0,-2.3101,-2.3101,-2.3101,-2.3101,-2.3101,-2.3101,-2.3101,-2.3101,-2.3101,-2.3101,-2.314,-2.3379,-2.3769,-2.3789,-2.3613,-2.3179,-2.3633,-2.3867,-2.3867,-2.4277,-2.4492,-2.4492,-2.4531,-2.457,-2.457,-2.457,-2.457,-2.457,-2.457,-2.4531,-2.4473,-2.4102,-2.3887,-2.375,-2.3379,-2.2485,-2.1614,-2.2536,-2.2315,-2.1436,-2.1016,-2.0224,-1.9417,-1.9991,0.0,0.0,0.0,0.0,0.0,0.0,0.0,0.0,0.0,0.0,0.0,0.0,0.0,0.0,0.0,0.0,0.0,0.0,0.0,0.0,0.0,0.0,0.0,0.0,-2.1229,-2.1465,-2.1894,-2.1368,-2.1173,-2.1875,-2.1992,-2.2187,-2.2617,-2.2695,-2.3047,-2.3809,-2.3867,-2.4023,-2.4394,-2.4414,0.0,0.0,0.0,-2.4414,-2.4414,-2.4414,-2.4414,-2.4414,-2.4414,-2.4414,-2.4414,-2.4414,-2.4414,-2.4394,-2.4023,-2.3867,-2.3828,-2.3393,-2.3237,-2.314,-2.2305,-2.1953,-2.1953,-2.1894,-2.1894,-2.1894,0.0,0.0,0.0,0.0,0.0,0.0,-2.3101,-2.3101,-2.3101,-2.3101,-2.3101,-2.3101,-2.3101,-2.3101,-2.3101,-2.3101,-2.3457,-2.3691,-2.3789,-2.3789,-2.375,-2.3672,-2.4062,-2.4297,-2.4297,-2.4727,-2.4941,-2.4941,-2.5312,-2.544,-2.544,-2.544,-2.544,-2.544,-2.544,-2.5273,-2.4941,-2.4863,-2.4414,-2.3789,-2.3691,-2.3304,-2.2668,-2.1943,-2.212,-2.2359,-1.9451,-1.9447,-2.0462,-1.7703,-1.7066,-1.746,-1.7683,-1.8021,0.0,0.0,0.0,0.0,0.0,0.0,0.0,0.0,0.0,0.0,0.0,0.0,0.0,0.0,0.0,0.0,0.0,0.0,0.0,-2.1171,-2.1523,-2.1914,-2.2324,-2.2539,-2.264,-2.2402,-2.2695,-2.3129,-2.3496,-2.3848,-2.4121,-2.4277,-2.4297,-2.4336,-2.4414,-2.4414,-2.4414,-2.4414,-2.4414,-2.4414,-2.4414,-2.4414,-2.4414,-2.4414,-2.4414,0.0,-2.4414,-2.4414,-2.4414,-2.4414,-2.4336,-2.4297,-2.4297,-2.4199,-2.416,-2.4043,-2.2852,-2.2383,-2.2344,-2.2012,-2.1894,-2.1894,0.0,0.0,0.0,0.0,0.0,0.0,-2.3101,-2.3101,-2.3101,-2.3101,-2.3101,-2.3101,-2.3101,-2.3101,-2.3179,-2.3437,-2.4062,-2.4336,-2.4121,-2.4316,-2.4336,-2.4121,-2.4512,-2.4746,-2.4746,-2.5176,-2.541,-2.541,-2.5577,-2.5693,-2.5693,-2.5693,-2.5693,-2.5693,-2.5693,-2.5557,-2.5391,-2.5204,-2.4687,-2.4082,-2.3867,-2.3535,-2.295,-2.1747,-2.1302,-2.1033,-1.9222,-1.936,-2.0116,-1.8257,-1.7965,-1.8267,-1.7644,-1.7597,-1.7676,0.0,0.0,0.0,0.0,0.0,0.0,0.0,0.0,0.0,0.0,0.0,0.0,0.0,0.0,-2.0898,-2.0898,0.0,-2.1621,-2.1836,-2.2051,-2.2422,-2.3066,-2.334,-2.3398,-2.3184,-2.3535,-2.3867,-2.4082,-2.4297,-2.4512,-2.4727,-2.4746,-2.4844,-2.5011,-2.5031,-2.5031,-2.5031,-2.5031,-2.5031,-2.5031,-2.5031,-2.5031,-2.5031,-2.5031,-2.5031,-2.5031,-2.5031,-2.5031,-2.5011,-2.4844,-2.4746,-2.4727,-2.4512,-2.4414,-2.4355,-2.3711,-2.334,-2.3105,-2.2676,-2.2519,-2.2519,0.0,0.0,0.0,0.0,0.0,0.0,0.0,-2.3101,-2.3101,-2.3101,-2.3101,-2.312,-2.3218,-2.3218,-2.3477,-2.3984,-2.459,-2.4824,-2.4551,-2.4863,-2.4902,-2.4551,-2.4961,-2.5195,-2.5195,-2.5547,-2.5693,-2.5693,-2.5693,-2.5693,-2.5693,-2.5693,-2.5693,-2.5693,-2.5693,-2.5693,-2.5654,-2.5015,-2.4617,-2.4329,-2.3719,-2.3293,-2.295,-2.148,-2.0477,-1.977,-1.9039,-1.8948,-1.9131,-1.9131,-1.8993,-1.8718,-1.818,-1.772,-1.7129,-1.6118,-1.5677,0.0,0.0,0.0,0.0,0.0,0.0,0.0,0.0,-1.7598,-1.8479,-1.9385,-2.0493,-2.1327,-2.1327,-2.1719,-2.2109,-2.2461,-2.2656,-2.3008,-2.3691,-2.3945,-2.4043,-2.4043,-2.4336,-2.4551,-2.4551,-2.4629,-2.4824,-2.5176,-2.5195,-2.5352,-2.5674,-2.5693,-2.5693,-2.5693,-2.5693,-2.5693,-2.5693,-2.5693,-2.5693,-2.5693,-2.5693,-2.5693,-2.5693,-2.5693,-2.5693,-2.5674,-2.5352,-2.5195,-2.5176,-2.4824,-2.4621,-2.4668,-2.457,-2.4336,-2.3984,-2.3555,-2.3335,-2.3335,0.0,0.0,0.0,0.0,0.0,0.0,0.0,0.0,-2.3101,-2.3101,-2.3101,-2.3237,-2.3672,-2.3711,-2.4043,-2.4891,-2.4668,-2.4629,-2.5028,-2.5086,-2.5086,-2.5047,-2.543,-2.5615,-2.5615,-2.5654,-2.5693,-2.5693,-2.5693,-2.5693,-2.5693,-2.5693,-2.5693,-2.5693,-2.5693,-2.5693,-2.5606,-2.413,-2.3843,-2.4283,-2.2787,-2.2558,-2.2862,-2.0584,-2.0251,-2.0657,-1.7375,-1.6936,-1.7917,-1.7917,-1.7124,-1.656,-1.8626,-1.8518,-1.7624,-1.75,-1.7424,-1.7162,-1.6195,-1.6649,-1.732,-1.7055,-1.7685,-1.8611,0.0,-1.9745,-2.0099,-2.1307,-2.1695,-2.1816,-2.1816,-2.2168,-2.2461,-2.25,-2.3144,-2.3672,-2.3769,-2.4453,-2.4969,-2.4969,-2.4961,-2.5047,-2.5047,-2.5352,-2.5557,-2.5615,-2.5615,-2.5635,-2.5693,-2.5693,-2.5693,-2.5693,-2.5693,-2.5693,-2.5693,-2.5693,-2.5693,-2.5693,-2.5693,-2.5693,-2.5693,-2.5693,-2.5693,-2.5693,-2.5635,-2.5615,-2.5615,-2.5557,-2.5538,-2.5499,-2.5156,-2.4961,-2.491,-2.4434,-2.4277,-2.4277,0.0,0.0,0.0,0.0,0.0,0.0,0.0,0.0,-2.3101,-2.3101,-2.3359,-2.3594,-2.3769,-2.4238,-2.4668,-2.5086,-2.5137,-2.5254,-2.5449,-2.5449,-2.5449,-2.5449,-2.5596,-2.5693,-2.5693,-2.5693,-2.5693,-2.5693,-2.5693,-2.5693,-2.5693,-2.5693,-2.5693,-2.5693,-2.5693,-2.5284,-2.4541,-2.4635,-2.3814,-2.2416,-2.2373,-2.1885,-2.1035,-1.9166,-1.878,-1.8993,-1.7451,-1.7264,0.0,-1.7684,-1.7358,-1.6951,-1.725,-1.6983,-1.6574,-1.6574,-1.6574,-1.648,-1.5927,-1.6716,-1.7468,-1.6625,-1.7276,-1.8371,-1.9198,-1.9938,-2.0674,-2.1665,-2.209,-2.2246,-2.2246,-2.2598,-2.2969,-2.3223,-2.3555,-2.3965,-2.4519,-2.4891,-2.5204,-2.543,-2.5449,-2.5449,-2.5449,-2.5577,-2.5693,-2.5693,-2.5693,-2.5693,-2.5693,-2.5693,-2.5693,-2.5693,-2.5693,-2.5693,-2.5693,-2.5693,-2.5693,-2.5693,-2.5693,-2.5693,-2.5693,-2.5693,-2.5693,-2.5693,-2.5693,-2.5693,-2.5693,-2.5693,-2.5693,-2.5674,-2.5527,-2.5449,-2.5371,-2.4668,-2.4414,-2.4414,0.0,0.0,0.0,0.0,0.0,0.0,0.0,0.0,0.0,0.0,-2.3516,-2.3887,-2.4121,-2.4805,-2.5254,-2.5254,-2.5547,-2.5693,-2.5693,-2.5693,-2.5693,-2.5693,-2.5693,-2.5693,-2.5693,-2.5693,-2.5693,-2.5693,-2.5693,-2.5693,-2.5693,-2.5693,-2.5693,-2.5693,-2.5693,-2.5167,-2.4245,-2.438,-2.3309,-2.1573,-2.149,-2.083,-1.9758,-1.8317,-1.7759,-1.7638,-1.7311,-1.7185,-1.7232,-1.7591,-1.7451,-1.7091,-1.648,-1.6055,-1.5784,-1.5784,-1.5784,-1.5784,-1.5784,-1.6716,-1.7498,-1.6574,-1.7044,-1.8026,-1.9195,-1.9945,-2.0709,-2.199,-2.248,-2.2676,-2.2676,-2.2886,-2.3237,-2.3711,-2.3887,-2.4219,-2.5008,-2.5223,-2.5371,-2.5654,-2.5693,-2.5693,-2.5693,-2.5693,-2.5693,-2.5693,-2.5693,-2.5693,-2.5693,-2.5693,-2.5693,-2.5693,-2.5693,-2.5693,-2.5693,-2.5693,-2.5693,-2.5693,-2.5693,-2.5693,-2.5693,-2.5693,-2.5693,-2.5693,-2.5693,-2.5693,-2.5693,-2.5693,-2.5693,-2.5693,-2.5693,-2.5693,-2.5615,-2.4972,-2.4785,-2.4785,0.0,0.0,0.0,0.0,0.0,0.0,0.0,0.0,0.0,0.0,0.0,-2.4102,-2.4988,-2.5449,-2.5674,-2.5674,-2.5674,-2.5693,-2.5693,-2.5693,-2.5693,-2.5693,-2.5693,-2.5693,-2.5693,-2.5693,-2.5693,-2.5693,-2.5693,-2.5693,-2.5693,-2.5693,-2.5693,-2.5693,-2.5693,-2.5693,-2.546,-2.2565,-2.195,-2.2713,-1.9809,-1.9124,-1.979,-1.8529,-1.7921,-1.7544,-1.6292,-1.5879,-1.6069,-1.7279,-1.6904,-1.6069,-1.7264,-1.681,-1.5784,-1.5784,-1.5784,-1.5784,-1.5784,-1.6716,-1.7684,-1.7638,-1.7684,-1.8319,-2.0702,-2.0324,-2.0206,-2.2561,-2.3062,-2.3081,-2.3081,-2.3081,-2.3237,-2.3711,-2.4141,-2.4551,-2.5047,-2.5449,-2.5674,-2.5693,-2.5693,-2.5693,-2.5693,-2.5693,-2.5693,-2.5693,-2.5693,-2.5693,-2.5693,-2.5693,-2.5693,-2.5693,-2.5693,-2.5693,-2.5693,-2.5693,-2.5693,-2.5693,-2.5693,-2.5693,-2.5693,-2.5693,-2.5693,-2.5693,-2.5693,-2.5693,-2.5693,-2.5693,-2.5693,-2.5693,-2.5693,-2.5693,-2.5693,-2.5654,-2.5654,-2.5654,0.0,0.0,0.0,0.0,0.0,0.0,0.0,0.0,0.0,0.0,0.0,0.0,0.0,0.0,0.0,0.0,-2.5693,-2.5693,-2.5693,-2.5693,-2.5693,-2.5693,-2.5693,-2.5693,-2.5693,-2.5693,-2.5693,-2.5693,-2.5693,-2.5693,-2.5693,-2.5693,-2.5693,-2.5693,-2.5693,-2.5216,-2.4295,-2.3291,-2.2029,-2.0639,-1.9456,-1.8611,-1.8046,-1.7414,-1.7127,-1.6995,0.0,-1.6166,-1.5879,-1.6292,-1.615,-1.5879,-1.6292,-1.615,-1.5784,-1.5784,-1.5784,-1.5784,-1.5784,-1.6103,-1.6433,-1.6433,-1.7077,-1.8149,-1.9724,-2.0387,-2.1168,-2.2775,-2.3101,-2.3101,-2.3101,-2.3101,-2.3335,-2.4082,-2.4316,-2.4668,-2.541,-2.5596,-2.5693,-2.5693,-2.5693,-2.5693,-2.5693,-2.5693,-2.5693,-2.5693,-2.5693,-2.5693,-2.5693,-2.5693,-2.5693,-2.5693,-2.5693,-2.5693,-2.5693,-2.5693,-2.5693,-2.5693,-2.5693,-2.5693,-2.5693,-2.5693,-2.5693,-2.5693,-2.5693,-2.5693,-2.5693,-2.5693,-2.5693,-2.5693,-2.5693,-2.5693,-2.5693,-2.5693,-2.5693,-2.5693,0.0,0.0,0.0,0.0,0.0,0.0,0.0,0.0,0.0,0.0,0.0,0.0,0.0,0.0,0.0,0.0,0.0,-2.5693,-2.5693,-2.5693,-2.5693,-2.5693,-2.5693,-2.5693,-2.5693,-2.5693,-2.5693,-2.5693,-2.5693,-2.5693,-2.5693,-2.5693,-2.5693,-2.5693,-2.5186,-2.451,-2.3633,-2.2667,-2.1202,-1.9561,-1.8891,-1.8044,-1.7179,-1.6941,-1.6794,0.0,-1.67,-1.646,-1.6126,-1.6019,-1.5912,-1.5784,-1.5784,-1.5784,-1.5784,-1.5784,-1.5784,-1.5784,-1.5784,-1.5784,-1.5784,-1.5784,-1.6763,-1.801,-1.9222,-2.0432,-2.1658,-2.2862,-2.3101,-2.3101,-2.3101,-2.3101,-2.3374,-2.4277,-2.4414,-2.468,-2.5557,-2.5693,-2.5693,-2.5693,-2.5693,-2.5693,-2.5693,-2.5693,-2.5693,-2.5693,-2.5693,-2.5693,-2.5693,-2.5693,-2.5693,-2.5693,-2.5693,-2.5693,-2.5693,-2.5693,-2.5693,-2.5693,-2.5693,-2.5693,-2.5693,-2.5693,-2.5693,-2.5693,-2.5693,-2.5693,-2.5693,-2.5693,-2.5693,-2.5693,-2.5693,-2.5693,-2.5693,-2.5693,-2.5693,-2.5693,0.0,0.0,0.0,0.0,0.0,0.0,0.0,0.0,0.0,0.0,0.0,0.0,0.0,0.0,0.0,0.0,0.0,0.0,-2.5577,-2.5596,-2.5577,-2.5479,-2.5577,-2.5596,-2.5596,-2.5596,-2.5596,-2.5596,-2.5528,-2.5479,-2.5479,-2.5479,-2.5479,-2.543,-2.4146,-2.3583,-2.3434,-2.0743,-1.9576,-1.9472,-1.8146,-1.7474,-1.7219,-1.7219,-1.6994,-1.6754,-1.6754,-1.674,-1.6687,-1.638,-1.6072,-1.5784,-1.5784,-1.5784,-1.5784,-1.5784,-1.5784,-1.5784,-1.5784,-1.5784,-1.5784,-1.5784,-1.6763,-1.801,-1.9222,-2.0387,-2.1569,-2.2775,-2.295,-2.2906,-2.3013,-2.2994,-2.331,-2.4192,-2.4414,-2.4707,-2.5538,-2.5674,-2.5693,-2.5693,-2.5693,-2.5693,-2.5693,-2.5693,-2.5693,-2.5693,-2.5693,-2.5693,-2.5693,-2.5693,-2.5693,-2.5693,-2.5693,-2.5693,-2.5693,-2.5693,-2.5693,-2.5693,-2.5693,-2.5693,-2.5693,-2.5693,-2.5693,-2.5693,-2.5693,-2.5693,-2.5693,-2.5693,-2.5693,-2.5693,-2.5693,-2.5693,-2.5693,-2.5693,-2.5693,-2.5693,0.0,0.0,0.0,0.0,0.0,0.0,0.0,0.0,0.0,0.0,0.0,0.0,0.0,0.0,0.0,0.0,0.0,0.0,-2.4295,-2.4196,-2.3732,-2.2767,-2.3683,-2.4196,-2.4196,-2.4196,-2.4196,-2.4196,-2.3235,-2.2717,-2.2717,-2.2717,-2.2717,-2.2717,-2.2366,-2.2215,-2.2114,-2.0333,-1.9576,-1.9472,-1.8146,-1.7542,-1.7527,-1.7527,-1.7422,-1.7355,-1.7355,-1.7221,-1.7005,-1.6496,-1.6072,-1.5784,-1.5784,-1.5784,-1.5784,-1.5784,-1.5784,-1.5784,-1.5784,-1.5784,-1.5784,-1.5784,-1.6763,-1.801,-1.9222,-1.9724,-2.0296,-2.1525,-2.1033,-2.0674,-2.1569,-2.1747,-2.2244,-2.3712,-2.4219,-2.4609,-2.5156,-2.5527,-2.5693,-2.5693,-2.5693,-2.5693,-2.5693,-2.5693,-2.5693,-2.5693,-2.5693,-2.5693,-2.5693,-2.5693,-2.5693,-2.5693,-2.5693,-2.5693,-2.5693,-2.5693,-2.5693,-2.5693,-2.5693,-2.5693,-2.5693,-2.5693,-2.5693,-2.5693,-2.5693,-2.5693,-2.5693,-2.5693,-2.5693,-2.5693,-2.5693,-2.5693,-2.5693,-2.5693,-2.5693,-2.5693,0.0,0.0,0.0,0.0,0.0,0.0,0.0,0.0,0.0,0.0,0.0,0.0,0.0,0.0,0.0,0.0,0.0,0.0,0.0,-2.4048,-2.3384,-2.2617,-2.2717,-2.2818,-2.2818,-2.2818,-2.2818,-2.2818,-2.2047,-2.1693,-2.1693,-2.1693,-2.1693,-2.1643,-2.1049,-2.0794,-2.0692,-1.9317,-1.8708,0.0,0.0,-1.7582,-1.7582,-1.7582,-1.7582,-1.7582,-1.7582,-1.7315,-1.6901,-1.658,-1.6179,-1.5784,-1.5784,-1.5784,-1.5784,-1.5784,-1.5784,-1.5784,-1.5784,-1.5784,-1.5784,-1.5784,-1.6763,-1.787,-1.8549,-1.9131,-1.9679,-2.0387,-2.0387,-2.0477,-2.115,-2.1702,-2.2492,-2.3621,-2.4141,-2.457,-2.5,-2.5449,-2.5693,-2.5693,-2.5693,-2.5693,-2.5693,-2.5693,-2.5693,-2.5693,-2.5693,-2.5693,-2.5693,-2.5693,-2.5693,-2.5693,-2.5693,-2.5693,-2.5693,-2.5693,-2.5693,-2.5693,-2.5693,-2.5382,-2.4824,-2.543,-2.5382,-2.4873,-2.543,-2.5693,-2.5693,-2.5693,-2.5693,-2.5693,-2.5693,-2.5693,-2.5693,-2.5693,-2.5693,-2.5693,0.0,0.0,0.0,0.0,0.0,0.0,0.0,0.0,0.0,0.0,0.0,0.0,0.0,0.0,0.0,0.0,0.0,0.0,0.0,0.0,-2.3534,-2.3185,-2.2215,-2.1592,-2.144,-2.144,-2.144,-2.144,-2.1237,-2.1135,-2.1135,-2.1135,-2.1135,-2.1084,-1.9886,-1.9317,-1.9265,-1.8094,-1.7582,-1.7582,-1.7582,-1.7582,-1.7582,0.0,-1.7582,-1.7582,-1.7582,-1.7235,-1.6754,-1.6714,-1.6313,-1.5784,-1.5784,-1.5784,-1.5784,-1.5784,-1.5784,-1.5784,-1.5784,-1.5784,-1.5784,-1.5784,-1.6763,-1.7684,-1.7684,-1.8503,-1.9268,-1.9268,-1.9935,-2.0612,-2.0792,-2.1676,-2.2625,-2.3364,-2.3815,-2.4287,-2.4922,-2.5371,-2.5615,-2.5674,-2.5693,-2.5693,-2.5693,-2.5693,-2.5693,-2.5693,-2.5693,-2.5693,-2.5693,-2.5693,-2.5693,-2.5693,-2.5693,-2.5693,-2.5693,-2.5528,-2.543,-2.543,-2.5265,-2.4559,-2.3484,-2.4658,-2.4609,-2.3732,-2.4922,-2.5528,-2.5693,-2.5693,-2.5596,-2.543,-2.543,-2.5333,-2.5167,-2.5167,-2.5167,-2.5167,0.0,0.0,0.0,0.0,0.0,0.0,0.0,0.0,0.0,0.0,-2.3059,-2.3633,0.0,0.0,0.0,0.0,0.0,0.0,0.0,0.0,0.0,-2.0385,-2.1202,-2.1151,-1.9973,-1.9989,-1.9989,-1.9989,-1.8864,-1.829,-1.829,-1.829,-1.829,-1.8304,-1.8042,-1.7937,-1.7937,-1.7687,-1.7582,-1.7582,-1.7582,-1.7582,-1.7582,-1.7582,0.0,0.0,-1.7582,-1.7407,-1.7085,-1.678,-1.6313,-1.5784,-1.5784,-1.5784,-1.5784,-1.5784,-1.5784,-1.5784,-1.5784,-1.5784,-1.5784,-1.5784,-1.6763,-1.7684,-1.7684,-1.787,-1.801,-1.801,-1.7343,-1.7063,-1.8133,-1.8503,-1.9347,-2.1392,-2.2135,-2.2926,-2.4334,-2.4902,-2.5312,-2.5635,-2.5693,-2.5693,-2.5693,-2.5693,-2.5693,-2.5693,-2.5693,-2.5693,-2.5693,-2.5693,-2.5693,-2.5693,-2.5693,-2.5693,-2.5693,-2.4609,-2.4048,-2.4048,-2.2918,-2.2265,-2.2047,-2.2316,-2.2868,-2.3683,-2.3949,-2.4658,-2.5693,-2.5693,-2.5069,-2.4048,-2.4048,-2.3384,-2.2416,-2.2416,-2.2416,-2.2567,0.0,0.0,0.0,0.0,0.0,0.0,0.0,-2.1464,-2.1726,-2.1961,-2.1632,-2.1878,-2.3206,-2.2769,-2.2194,0.0,0.0,0.0,0.0,0.0,0.0,-1.9679,-1.9576,-1.9265,-1.8551,-1.8551,-1.8551,-1.8551,0.0,-1.7582,-1.7582,-1.7582,-1.7582,-1.7582,-1.7582,-1.7582,-1.7582,-1.7582,-1.7582,-1.7582,-1.7582,-1.7582,-1.7582,-1.7582,0.0,0.0,-1.7582,-1.7447,-1.7152,-1.6807,-1.642,-1.6032,-1.5872,-1.5784,-1.5784,-1.5784,-1.5784,-1.5784,-1.5784,-1.5784,-1.5784,-1.5784,-1.6244,-1.6716,-1.6716,-1.6716,-1.6716,-1.6716,-1.6763,-1.6998,-1.7591,-1.8226,-1.8993,-2.0161,-2.1281,-2.2354,-2.3317,-2.3777,-2.4189,-2.462,-2.4048,-2.3633,-2.3633,-2.3633,-2.3633,-2.3633,-2.3633,-2.4245,-2.5645,-2.5693,-2.5382,-2.4658,-2.4658,-2.4295,-2.3633,-2.2968,-2.2667,-2.2667,-2.1996,-2.1338,-2.0641,-2.1338,-2.1643,-2.1608,-2.2366,-2.3018,-2.3633,-2.3633,-2.3235,-2.2667,-2.2667,-2.2265,-2.1693,-2.1693,-2.1693,-2.1794,0.0,0.0,0.0,0.0,0.0,0.0,0.0,-2.0522,-2.0644,-2.102,-2.0112,-2.0063,-2.1786,-2.1194,-2.0653,0.0,0.0,0.0,0.0,0.0,0.0,0.0,0.0,0.0,-1.7635,0.0,0.0,-1.7582,-1.7582,0.0,0.0,0.0,0.0,0.0,-1.7582,-1.7582,-1.7582,-1.7582,-1.7582,0.0,0.0,-1.7582,-1.7582,0.0,0.0,0.0,0.0,-1.7435,-1.7246,-1.682,-1.6553,-1.6299,-1.5939,-1.5784,-1.5784,-1.5784,-1.5784,-1.5784,-1.5784,-1.5784,-1.5784,-1.5784,-1.5784,-1.5784,-1.5784,-1.5784,-1.5784,-1.5784,-1.6622,-1.7264,-1.7264,-1.8087,-1.881,-1.9085,-2.0205,-2.1415,-2.2438,-2.2524,-2.2801,-2.3579,-2.2517,-2.1693,-2.1693,-2.1693,-2.1693,-2.1693,-2.1693,-2.2617,-2.4707,-2.4824,-2.4344,-2.3285,-2.3285,-2.2767,-2.1693,-2.1471,-2.1366,-2.1366,-2.1139,-2.0462,-1.938,-2.0498,-2.055,-1.9837,-2.0964,-2.1634,-2.189,-2.189,-2.1669,-2.1428,-2.1428,-2.1226,-2.0905,-2.0905,-2.0858,-2.0829,0.0,0.0,0.0,0.0,0.0,0.0,0.0,-1.8056,-1.8056,-1.8102,-1.7962,-1.8052,-1.851,-1.8765,-1.8454,0.0,0.0,0.0,0.0,0.0,0.0,0.0,0.0,0.0,0.0,0.0,0.0,-1.7582,-1.7582,0.0,0.0,0.0,0.0,0.0,0.0,-1.7582,-1.7582,-1.7582,0.0,0.0,0.0,0.0,0.0,0.0,0.0,0.0,0.0,-1.7569,-1.7462,-1.6901,-1.6687,-1.6567,-1.5957,-1.5784,-1.5784,-1.5784,-1.5784,-1.5784,-1.5784,-1.5784,-1.5784,-1.5784,-1.5784,-1.5784,-1.5784,-1.5784,-1.5784,-1.5784,-1.5879,-1.5974,-1.5974,-1.6055,-1.6527,-1.7684,-1.7994,-1.9159,-2.2167,-2.1562,-2.1565,-2.3444,-2.2517,-2.1693,-2.1693,-2.1693,-2.1693,-2.1693,-2.1693,-2.1794,-2.2047,-2.2047,-2.1996,-2.1912,-2.1895,-2.1794,-2.1693,-2.0747,-2.0234,-2.0234,-1.9285,-1.8727,-1.8631,-1.8727,-1.9412,-2.0416,-2.0563,-2.1317,-2.2437,-2.2437,-2.1692,-2.0617,-2.0617,-1.9661,-1.8319,-1.8319,-1.8182,-1.8146,0.0,0.0,0.0,0.0,0.0,0.0,-1.7684,-1.7684,-1.7684,-1.7684,-1.7684,-1.7744,-1.7864,-1.7332,-1.6884,-1.6723,0.0,0.0,0.0,0.0,0.0,0.0,0.0,0.0,0.0,0.0,-1.7582,-1.7582,-1.7582,0.0,0.0,0.0,0.0,0.0,0.0,-1.7582,-1.7582,-1.7582,0.0,0.0,0.0,0.0,0.0,0.0,0.0,0.0,0.0,0.0,-1.7515,-1.7166,-1.686,-1.6633,-1.6233,-1.5979,-1.5784,-1.5784,-1.5784,-1.5784,-1.5784,-1.5784,-1.5784,-1.5784,-1.5784,-1.5784,-1.5784,-1.5784,-1.5784,-1.5784,-1.5784,-1.5784,-1.5784,-1.5784,-1.5974,-1.648,-1.7171,-1.8255,-1.9811,-1.9621,-1.9742,-2.088,-1.9954,-1.9213,-1.9213,-1.9213,-1.9213,-1.9213,-1.9213,-1.9301,-1.9453,-2.0905,-2.1401,-2.0747,-2.0747,-2.0437,-1.976,-1.9365,-1.9164,-1.911,-1.8699,-1.849,-1.849,-1.849,-1.8809,-1.9291,-1.9291,-1.9607,-2.0085,-2.0085,-1.9771,-1.9291,-1.9291,-1.8892,-1.8317,-1.8317,-1.813,-1.7916,0.0,0.0,0.0,0.0,0.0,-1.7138,-1.7138,-1.7211,-1.7269,-1.7269,-1.7355,-1.7413,-1.7413,-1.6601,-1.6259,-1.6673,-1.662,0.0,0.0,0.0,0.0,0.0,0.0,0.0,0.0,0.0,-1.7582,-1.7582,-1.7582,-1.7582,0.0,0.0,-1.7582,-1.7582,0.0,0.0,0.0,0.0,0.0,0.0,0.0,0.0,0.0,0.0,0.0,0.0,0.0,0.0,0.0,0.0,0.0,-1.666,-1.6366,-1.6072,-1.5784,-1.5784,-1.5784,-1.5784,-1.5784,-1.5784,-1.5784,-1.5784,-1.5784,-1.5784,-1.5784,-1.5784,-1.5784,-1.5784,-1.5784,-1.5784,-1.5784,-1.5784,-1.5784,-1.5784,-1.6574,-1.7428,-1.8165,-1.8106,-1.828,-1.9104,-1.8264,-1.7582,-1.7582,-1.7582,-1.7582,-1.7582,-1.7662,-1.7809,-1.7982,-1.9737,-2.04,-1.9642,-1.9642,-1.9285,-1.849,-1.8584,-1.8624,-1.8624,-1.8704,-1.8744,-1.8744,-1.8744,-1.8744,-1.8744,-1.8744,-1.8744,-1.8744,-1.8744,-1.8744,-1.8744,-1.8744,-1.8691,-1.8624,-1.8624,-1.8437,-1.8183,0.0,0.0,0.0,0.0,0.0,0.0,-1.5832,-1.6086,-1.6321,-1.6321,-1.6563,-1.67,-1.67,-1.67,-1.67,-1.67,-1.6446,0.0,0.0,0.0,0.0,0.0,0.0,0.0,0.0,0.0,-1.7582,-1.7582,-1.7582,-1.7582,-1.7582,-1.7582,-1.7582,-1.7582,0.0,0.0,0.0,0.0,0.0,0.0,0.0,0.0,-1.7582,0.0,0.0,0.0,0.0,0.0,0.0,0.0,0.0,0.0,0.0,-1.6072,-1.5784,-1.5784,-1.5784,-1.5784,-1.5784,-1.5784,-1.5784,-1.5784,-1.5784,-1.5784,-1.5784,-1.5784,-1.5784,-1.5784,-1.5784,-1.5784,-1.5784,-1.5784,-1.5784,-1.5784,-1.5832,-1.6402,-1.807,-1.7387,-1.736,-1.9004,-1.8264,-1.7582,-1.7582,-1.7582,-1.7582,-1.7582,-1.7862,-1.7995,-1.7995,-1.8317,-1.8532,-1.8546,-1.8546,-1.849,-1.849,-1.8771,-1.8918,-1.8918,-1.9212,-1.9417,-1.9417,-1.9417,-1.9417,-1.9417,-1.9417,-1.9417,-1.9417,-1.9417,-1.9417,-1.9417,-1.9417,-1.9185,-1.8918,-1.8918,-1.8731,-1.849,0.0,0.0,0.0,0.0,0.0,0.0,0.0,-1.6513,-1.6567,-1.6567,-1.6647,-1.67,-1.67,-1.67,-1.67,-1.67,-1.662,0.0,0.0,0.0,0.0,0.0,0.0,0.0,0.0,-1.7582,-1.7582,-1.7582,-1.7582,-1.7582,-1.7582,-1.7582,-1.7582,-1.7582,-1.7582,-1.7582,0.0,0.0,0.0,0.0,0.0,-1.7582,-1.7582,0.0,0.0,0.0,0.0,0.0,0.0,0.0,0.0,0.0,0.0,0.0,0.0,-1.5784,-1.5784,-1.5784,-1.5784,-1.5784,-1.5784,-1.5784,-1.5784,-1.5784,-1.5784,-1.5784,-1.5784,-1.5784,-1.5784,-1.5784,-1.5784,-1.5784,-1.5784,-1.5784,-1.5784,-1.6068,-1.6849,-1.681,-1.6958,-1.7766,-1.7707,-1.7582,-1.7582,-1.7582,-1.7582,-1.7582,-1.7876,-1.8075,-1.8343,-1.8624,-1.8784,-1.8784,-1.8784,-1.8878,-1.9092,-1.9185,-1.9225,-1.9225,-1.9319,-1.943,-1.943,-1.943,-1.943,-1.943,-1.943,-1.943,-1.943,-1.943,-1.943,-1.943,-1.943,-1.9363,-1.9225,-1.9225,-1.9038,-1.8784,0.0,0.0,0.0,0.0,0.0,0.0,0.0,-1.6807,-1.6874,-1.6874,-1.6967,-1.7034,-1.7034,-1.7034,-1.7034,-1.7034,-1.7034,0.0,0.0,0.0,0.0,0.0,0.0,0.0,-1.7582,-1.7582,-1.7582,-1.7582,-1.7582,-1.7582,-1.7582,-1.7582,-1.7582,-1.7582,-1.7582,-1.7582,0.0,0.0,0.0,0.0,-1.7514,-1.7488,-1.7582,0.0,0.0,0.0,0.0,0.0,0.0,0.0,0.0,0.0,0.0,0.0,0.0,0.0,-1.5784,-1.5784,-1.5784,-1.5784,-1.5784,-1.5784,-1.5784,-1.5784,-1.5784,-1.5784,-1.5784,-1.5784,-1.5784,-1.5784,-1.5784,-1.5784,-1.5784,-1.5784,-1.5784,-1.5939,-1.6233,-1.6526,-1.686,-1.7313,-1.7475,-1.7582,-1.7582,-1.7582,-1.7582,-1.7582,-1.7969,-1.829,-1.8477,-1.8878,-1.9092,-1.9092,-1.9092,-1.9185,-1.943,-1.943,-1.943,-1.943,-1.943,-1.943,-1.943,-1.943,-1.943,-1.943,-1.943,-1.943,0.0,-1.943,-1.943,-1.943,-1.943,-1.943,-1.943,-1.943,-1.9252,-1.9092,0.0,0.0,0.0,0.0,0.0,0.0,0.0,-1.7058,-1.7233,-1.7233,-1.7474,-1.7582,-1.7582,-1.7582,-1.7582,-1.7582,0.0,0.0,0.0,0.0,0.0,0.0,0.0,0.0,-1.7582,-1.7582,-1.7582,-1.7582,-1.7582,-1.7582,-1.7582,-1.7582,-1.7582,-1.7582,-1.7582,-1.7582,-1.7569,0.0,0.0,0.0,-1.734,-1.7393,0.0,0.0,0.0,0.0,0.0,0.0,0.0,0.0,0.0,0.0,0.0,0.0,0.0,0.0,0.0,0.0,0.0,-1.5784,-1.5784,-1.5784,-1.5784,-1.5784,-1.5784,-1.5784,0.0,-1.5784,-1.5784,-1.5784,-1.5784,-1.5784,-1.5784,-1.5784,-1.5784,-1.5939,-1.6259,-1.6567,-1.6967,-1.7515,-1.7582,-1.7582,-1.7582,-1.7582,-1.7582,-1.7582,-1.8143,-1.849,-1.849,-1.9052,-1.943,-1.943,-1.943,-1.943,-1.943,-1.943,-1.943,-1.943,-1.943,-1.943,-1.943,-1.943,-1.943,-1.943,-1.943,-1.943,-1.943,-1.943,-1.943,-1.943,-1.943,-1.943,-1.943,-1.943,-1.943,-1.943,0.0,0.0,0.0,0.0,0.0,0.0,0.0,0.0,0.0,0.0,-1.7542,-1.7582,-1.7582,-1.7582,-1.7582,0.0,0.0,0.0,0.0,0.0,0.0,0.0,0.0,0.0,-1.7582,-1.7582,-1.7582,-1.7582,-1.7582,-1.7582,-1.7582,-1.7582,-1.7582,-1.7582,-1.7582,-1.7582,-1.7582,-1.7515,0.0,0.0,-1.7502,-1.7515,0.0,0.0,0.0,0.0,-1.634,-1.5689,0.0,0.0,0.0,0.0,0.0,0.0,0.0,0.0,-1.5327,-1.6112,-1.5885,0.0,-1.5784,-1.5784,-1.5784,-1.5784,0.0,-1.5784,-1.5784,-1.5784,-1.5784,-1.5784,-1.5784,-1.5784,-1.5784,-1.5784,-1.5784,-1.6005,-1.6526,-1.7048,-1.7435,-1.7569,-1.7582,-1.7582,-1.7582,-1.7582,-1.7582,-1.7582,-1.8143,-1.849,-1.849,-1.9052,-1.943,-1.943,-1.943,-1.943,-1.943,-1.943,-1.943,-1.943,-1.943,-1.943,-1.943,-1.943,-1.943,-1.943,-1.943,-1.943,-1.943,-1.943,-1.943,-1.943,-1.943,-1.943,-1.943,-1.943,-1.943,-1.943,0.0,0.0,0.0,0.0,0.0,0.0,0.0,0.0,0.0,0.0,0.0,0.0,0.0,0.0,0.0,0.0,0.0,0.0,0.0,0.0,0.0,0.0,0.0,-1.7582,-1.7582,-1.7582,-1.7582,-1.7582,-1.7582,-1.7582,-1.7582,-1.7582,-1.7582,-1.7582,-1.7582,-1.7582,-1.7569,-1.7487,-1.7514,-1.7569,-1.7487,0.0,0.0,0.0,0.0,0.0,-1.5902,-1.4984,0.0,-1.3534,-1.2754,-1.2112,0.0,0.0,0.0,0.0,-1.4398,-1.4773,-1.5918,-1.6032,-1.5784,-1.5784,-1.5784,-1.5784,-1.5784,-1.5784,-1.5784,-1.5784,-1.5784,-1.5784,-1.5784,-1.5784,-1.5784,-1.5784,-1.5939,-1.6233,-1.682,-1.7301,-1.7582,-1.7582,-1.7582,-1.7582,-1.7582,-1.7582,-1.7582,-1.7582,-1.8143,-1.849,-1.849,-1.9052,-1.943,-1.943,-1.943,-1.943,-1.943,-1.943,-1.943,-1.943,-1.943,-1.943,-1.943,-1.943,-1.943,-1.943,-1.943,-1.943,-1.943,-1.943,-1.943,-1.943,-1.943,-1.943,-1.943,-1.943,-1.943,-1.943,0.0,0.0,0.0,0.0,0.0,0.0,0.0,0.0,0.0,0.0,0.0,0.0,0.0,0.0,0.0,0.0,0.0,0.0,0.0,0.0,0.0,0.0,-1.7582,-1.7582,-1.7582,-1.7582,-1.7582,-1.7582,-1.7582,-1.7582,-1.7582,-1.7582,-1.7582,-1.7582,-1.7582,-1.7582,-1.7569,-1.7367,-1.7251,-1.7239,-1.699,0.0,0.0,0.0,0.0,0.0,0.0,0.0,0.0,-1.2724,-1.181,-1.0912,-1.188,0.0,0.0,0.0,0.0,0.0,-1.538,-1.5688,-1.5329,-1.5569,-1.5617,-1.5617,-1.5617,-1.5761,-1.5917,-1.5917,-1.5917,-1.5917,-1.5917,-1.5917,-1.5904,-1.5899,-1.6152,-1.6576,-1.7125,-1.7447,-1.7582,-1.7582,-1.7582,-1.7582,-1.7582,-1.7582,-1.7582,-1.7582,-1.8143,-1.849,-1.849,-1.9052,-1.943,-1.943,-1.943,-1.943,-1.943,-1.943,-1.943,-1.943,-1.943,-1.943,-1.943,-1.943,-1.943,-1.943,-1.943,-1.943,-1.943,-1.943,-1.943,-1.943,-1.943,-1.943,-1.943,-1.943,-1.943,-1.943,0.0,0.0,0.0,0.0,0.0,0.0,0.0,0.0,0.0,0.0,0.0,0.0,0.0,0.0,0.0,0.0,0.0,0.0,0.0,0.0,0.0,-1.7582,-1.7582,-1.7582,-1.7582,-1.7582,-1.7582,-1.7582,-1.7582,-1.7582,-1.7582,-1.7582,-1.7582,-1.7582,-1.7582,-1.7582,-1.7582,-1.7542,-1.6831,-1.5743,-1.5695,0.0,0.0,0.0,0.0,0.0,0.0,0.0,0.0,-0.9966,-0.943,-0.9258,-0.9449,0.0,0.0,0.0,0.0,0.0,-1.3018,-1.3016,-1.3217,-1.448,-1.4743,-1.4681,-1.4681,-1.5657,-1.6567,-1.6567,-1.6567,-1.6567,-1.6567,-1.6567,-1.6486,-1.6246,-1.6446,-1.6754,-1.7152,-1.7447,-1.7582,-1.7582,-1.7582,-1.7582,-1.7582,-1.7582,-1.7582,-1.7582,-1.8143,-1.849,-1.849,-1.9052,-1.943,-1.943,-1.943,-1.943,-1.943,-1.943,-1.943,-1.943,-1.943,-1.943,-1.943,-1.943,-1.943,-1.943,-1.943,-1.943,-1.943,-1.943,-1.943,-1.943,-1.943,-1.943,-1.943,-1.943,-1.943,-1.943,0.0,0.0,0.0,0.0,0.0,0.0,0.0,0.0,0.0,0.0,0.0,0.0,0.0,0.0,0.0,0.0,0.0,0.0,0.0,0.0,-1.7582,-1.7582,-1.7582,-1.7582,-1.7582,-1.7582,-1.7582,-1.7582,-1.7582,-1.7582,-1.7582,-1.7582,-1.7147,-1.6393,-1.6393,-1.6009,-1.5263,-1.5263,-1.4888,-1.4288,0.0,0.0,0.0,0.0,0.0,0.0,0.0,0.0,0.0,0.0,-0.8885,-0.8885,-0.8885,0.0,0.0,0.0,0.0,0.0,-1.2515,-1.17,-1.0856,-1.2327,-1.3039,-1.358,-1.4343,-1.5014,-1.5733,-1.655,-1.67,-1.67,-1.67,-1.67,-1.6714,-1.679,-1.6911,-1.7048,-1.7393,-1.7502,-1.7582,-1.7582,-1.7582,-1.7582,-1.7582,-1.7582,-1.7582,-1.7582,-1.8143,-1.849,-1.849,-1.9052,-1.943,-1.943,-1.943,-1.943,-1.943,-1.943,-1.943,-1.943,-1.943,-1.943,-1.943,-1.943,-1.943,-1.943,-1.943,-1.943,-1.943,-1.943,-1.943,-1.943,-1.943,-1.943,-1.943,-1.943,-1.943,-1.943,0.0,0.0,0.0,0.0,0.0,0.0,0.0,0.0,0.0,0.0,0.0,0.0,0.0,0.0,0.0,0.0,0.0,0.0,0.0,-1.7582,-1.7477,-1.7094,-1.7094,-1.7252,-1.7582,-1.7582,-1.7424,-1.7094,-1.7094,-1.6935,-1.6605,-1.6605,-1.6009,-1.4931,-1.4931,-1.4288,-1.3318,-1.3318,-1.3102,-1.2778,0.0,0.0,0.0,0.0,0.0,0.0,0.0,0.0,0.0,0.0,0.0,0.0,0.0,0.0,0.0,-1.0241,-0.9809,-0.9375,-1.1647,-1.0617,-0.9154,-1.0296,-1.1371,-1.2395,-1.3485,-1.3949,-1.4516,-1.5667,-1.5922,-1.6024,-1.6342,-1.6645,-1.6901,-1.7259,-1.7246,-1.73,-1.7542,-1.7582,-1.7582,-1.7582,-1.7582,-1.7582,-1.7582,-1.7582,-1.7582,-1.7582,-1.8076,-1.8424,-1.849,-1.8985,-1.9292,-1.9417,-1.943,-1.943,-1.943,-1.943,-1.943,-1.943,-1.943,-1.943,-1.943,-1.943,-1.943,-1.943,-1.943,-1.943,-1.943,-1.943,-1.943,-1.943,-1.943,-1.943,-1.943,-1.943,-1.943,-1.943,0.0,0.0,0.0,0.0,0.0,0.0,0.0,0.0,0.0,0.0,0.0,0.0,0.0,0.0,0.0,0.0,0.0,0.0,0.0,-1.7582,-1.6988,-1.5636,-1.5583,-1.6221,-1.7582,-1.7582,-1.6935,-1.5583,-1.5583,-1.4877,-1.3588,-1.3588,-1.3534,-1.3426,-1.3426,-1.3372,-1.3318,-1.3318,-1.2516,-1.1273,-1.1273,0.0,0.0,0.0,0.0,0.0,0.0,0.0,0.0,0.0,0.0,0.0,0.0,0.0,-0.894,-0.9051,-0.8995,-0.894,-0.9154,-0.9044,-0.894,-0.9044,-1.0116,-1.123,-1.1339,-1.2415,-1.3439,-1.3536,-1.3536,-1.3912,-1.5258,-1.6392,-1.7259,-1.7554,-1.738,-1.73,-1.7542,-1.7582,-1.7582,-1.7582,-1.7582,-1.7582,-1.7582,-1.7582,-1.7582,-1.7582,-1.7889,-1.8142,-1.8477,-1.8784,-1.9078,-1.9417,-1.943,-1.943,-1.943,-1.943,-1.943,-1.943,-1.943,-1.943,-1.943,-1.943,-1.943,-1.943,-1.943,-1.943,-1.943,-1.943,-1.943,-1.943,-1.943,-1.943,-1.943,-1.943,-1.943,-1.943,0.0,0.0,0.0,0.0,0.0,0.0,0.0,0.0,0.0,0.0,0.0,0.0,0.0,0.0,0.0,0.0,0.0,0.0,0.0,-1.5423,-1.4663,-1.4126,-1.4073,-1.4341,-1.4931,-1.4942,-1.4663,-1.4073,-1.4073,-1.3804,-1.3318,-1.3318,-1.2832,-1.1919,-1.1919,-1.1428,-1.0562,-1.0562,-1.0241,-0.9754,-0.9754,-0.9375,0.0,0.0,0.0,0.0,0.0,0.0,0.0,0.0,-0.8885,-0.8885,-0.8885,-0.8885,-0.8885,-0.8885,-0.8885,-0.8885,-0.8885,-0.8885,-0.8885,-0.8885,-0.932,-0.9974,-1.0891,-1.1538,-1.2191,-1.3102,-1.3318,-1.375,-1.5144,-1.6516,-1.7462,-1.7569,-1.7488,-1.7462,-1.7569,-1.7582,-1.7582,-1.7582,-1.7582,-1.7582,-1.7582,-1.7582,-1.7582,-1.7582,-1.7876,-1.8183,-1.8477,-1.8771,-1.9065,-1.9417,-1.943,-1.943,-1.943,-1.943,-1.943,-1.943,-1.943,-1.943,-1.943,-1.943,-1.943,-1.943,-1.943,-1.943,-1.943,-1.943,-1.943,-1.943,-1.943,-1.943,-1.943,-1.943,-1.943,-1.943,0.0,0.0,0.0,0.0,0.0,0.0,0.0,0.0,0.0,0.0,0.0,0.0,0.0,0.0,0.0,0.0,0.0,0.0,-1.4716,-1.3857,-1.3102,-1.2615,-1.2615,-1.2408,-1.1919,-1.1919,-1.2136,-1.2615,-1.2136,-1.1919,-1.1919,-1.1919,-1.1374,-1.0406,-1.0406,-0.9864,-0.8885,-0.8885,-0.8885,-0.8885,-0.8885,-0.8885,0.0,0.0,0.0,0.0,0.0,0.0,0.0,0.0,-0.8885,-0.8885,-0.8885,-0.8885,-0.8885,-0.8885,-0.8885,-0.8885,-0.8885,-0.8885,-0.8885,-0.8885,-0.8885,-0.9154,-1.0186,-1.0406,-1.0672,-1.1701,-1.2299,-1.3048,-1.4449,-1.5583,-1.6552,-1.7477,-1.7199,-1.7094,-1.7529,-1.7582,-1.7582,-1.7582,-1.7582,-1.7582,-1.7582,-1.7582,-1.7582,-1.7582,-1.7782,-1.8036,-1.833,-1.8624,-1.8918,-1.9225,-1.9319,-1.943,-1.943,-1.943,-1.943,-1.943,-1.943,-1.943,-1.943,-1.943,-1.943,-1.943,-1.943,-1.943,-1.943,-1.943,-1.943,-1.943,-1.943,-1.943,-1.943,-1.943,-1.943,-1.943,0.0,0.0,0.0,0.0,0.0,0.0,0.0,0.0,0.0,0.0,0.0,0.0,0.0,0.0,0.0,0.0,0.0,0.0,-1.3264,-1.3264,-1.2615,-1.1164,-1.1055,-1.0406,-0.894,-0.8885,-0.9588,-1.1055,-0.9588,-0.8885,-0.8885,-0.8885,-0.8885,-0.8885,-0.8885,-0.8885,-0.8885,-0.8885,-0.8885,-0.8885,-0.8885,-0.8885,-0.8885,0.0,0.0,0.0,0.0,0.0,0.0,0.0,-0.8885,-0.8885,-0.8885,-0.8885,-0.8885,-0.8885,-0.8885,-0.8885,-0.8885,-0.8885,-0.8885,-0.8885,-0.8885,-0.8885,-0.8885,-0.8885,-0.8885,-0.8885,-1.0076,-1.1538,-1.2994,-1.3264,-1.4234,-1.7094,-1.634,-1.5902,-1.7358,-1.7582,-1.7582,-1.7582,-1.7582,-1.7582,-1.7582,-1.7582,-1.7582,-1.7582,-1.7582,-1.7662,-1.7969,-1.8275,-1.8624,-1.8918,-1.9212,-1.9417,-1.943,-1.943,-1.9372,-1.9372,-1.9372,-1.9372,-1.9372,-1.9372,-1.9372,-1.9359,-1.9359,-1.9359,-1.9359,-1.9359,-1.9359,-1.9359,-1.9359,-1.9359,-1.9372,-1.9372,-1.9372,-1.9372,0.0,0.0,0.0,0.0,0.0,0.0,0.0,0.0,0.0,0.0,0.0,0.0,0.0,0.0,0.0,0.0,0.0,0.0,-1.1755,-1.0781,-1.0021,-0.9588,-0.9533,-0.9375,-0.8885,-0.8885,-0.9099,-0.9533,-0.9099,-0.8885,-0.8885,-0.8885,-0.8885,-0.8885,-0.8885,-0.8885,-0.8885,-0.8885,-0.8885,-0.8885,-0.8885,-0.8885,-0.8885,0.0,0.0,0.0,0.0,0.0,0.0,0.0,0.0,0.0,-0.8885,-0.8885,-0.8885,-0.8885,-0.8885,-0.8885,-0.8885,-0.8885,-0.8885,-0.8885,-0.8885,-0.8885,-0.8885,-0.8885,-0.8885,-0.8885,-1.0076,-1.121,-1.1647,-1.2615,-1.3588,-1.4449,-1.4234,-1.4395,-1.5849,-1.6062,-1.6446,-1.7477,-1.6658,-1.6062,-1.6062,-1.5156,-1.4556,-1.4556,-1.4556,-1.5152,-1.6466,-1.6606,-1.7376,-1.8848,-1.9011,-1.9158,-1.9417,-1.943,-1.8823,-1.7689,-1.7689,-1.7689,-1.7689,-1.7689,-1.7091,-1.6031,-1.6031,-1.6031,-1.6031,-1.6031,-1.6031,-1.6031,-1.6031,-1.6031,-1.6149,-1.7267,-1.6973,-1.6208,0.0,0.0,0.0,0.0,0.0,0.0,0.0,0.0,0.0,0.0,-1.4556,-1.4019,0.0,0.0,0.0,0.0,0.0,0.0,0.0,-0.9375,-0.8885,-0.8885,-0.8885,-0.8885,-0.8885,-0.8885,-0.8885,-0.8885,-0.8885,-0.8885,-0.8885,-0.8885,-0.8885,-0.8885,-0.8885,-0.8885,-0.8885,-0.8885,-0.8885,-0.8885,-0.8885,-0.8885,-0.8885,0.0,0.0,0.0,0.0,0.0,0.0,0.0,0.0,0.0,-0.8885,-0.8885,-0.8885,-0.8885,-0.8885,-0.8885,-0.8885,-0.8885,-0.8885,-0.8885,-0.8885,-0.8885,-0.8885,-0.8885,-0.8885,-0.8885,-0.9588,-1.0406,-1.1,-1.1374,-1.1919,-1.3102,-1.2832,-1.294,-1.4341,-1.4556,-1.4877,-1.5796,-1.5091,-1.4556,-1.4556,-1.3804,-1.3318,-1.3318,-1.3318,-1.3759,-1.4821,-1.4976,-1.5565,-1.6786,-1.7004,-1.7186,-1.7414,-1.7465,-1.7032,-1.602,-1.602,-1.5725,-1.5123,-1.5784,-1.5548,-1.4599,-1.4599,-1.4599,-1.4599,-1.4599,-1.4599,-1.4599,-1.4599,-1.4599,-1.4718,-1.5666,-1.5429,-1.4718,0.0,0.0,0.0,0.0,0.0,0.0,0.0,0.0,0.0,0.0,-1.3102,-1.2561,0.0,0.0,0.0,0.0,0.0,0.0,0.0,-0.8885,-0.8885,-0.8885,-0.8885,-0.8885,-0.8885,-0.8885,-0.8885,-0.8885,-0.8885,-0.8885,-0.8885,-0.8885,-0.8885,-0.8885,-0.8885,-0.8885,-0.8885,-0.8885,-0.8885,-0.8885,-0.8885,-0.8885,-0.8885,-0.8885,0.0,0.0,0.0,0.0,0.0,0.0,0.0,0.0,-0.8885,-0.8885,-0.8885,-0.8885,-0.8885,-0.8885,-0.8885,-0.8885,-0.8885,-0.8885,-0.8885,-0.8885,-0.8885,-0.8885,-0.8885,-0.8885,-0.8885,-0.932,-1.0672,-0.9809,-0.9754,-1.2453,-1.1755,-1.1428,-1.2886,-1.3102,-1.3156,-1.3264,-1.3156,-1.3102,-1.3102,-1.2994,-1.2886,-1.2886,-1.2886,-1.294,-1.3102,-1.3347,-1.3513,-1.3699,-1.4106,-1.4341,-1.4381,-1.4526,-1.4519,-1.4361,-1.4361,-1.3526,-1.2037,-1.3646,-1.4302,-1.4183,-1.4183,-1.4183,-1.4183,-1.4183,-1.4183,-1.4183,-1.4183,-1.4183,-1.4183,-1.4302,-1.4302,-1.4183,0.0,0.0,0.0,0.0,0.0,0.0,0.0,0.0,0.0,0.0,0.0,0.0,0.0,0.0,0.0,0.0,0.0,0.0,0.0,-0.8885,-0.8885,-0.8885,-0.8885,-0.8885,-0.8885,-0.8885,-0.8885,-0.8885,-0.8885,-0.8885,-0.8885,-0.8885,-0.8885,-0.8885,-0.8885,-0.8885,-0.8885,-0.8885,-0.8885,-0.8885,-0.8885,-0.8885,-0.8885,-0.8885,0.0,0.0,0.0,0.0,0.0,0.0,0.0,0.0,-0.8885,-0.8885,-0.8885,-0.8885,-0.8885,-0.8885,-0.8885,-0.8885,-0.8885,-0.8885,-0.8885,-0.8885,-0.8885,-0.8885,-0.8885,-0.8885,-0.8885,-0.8989,-0.932,-0.9099,-0.9099,-0.9754,-0.9588,-0.9864,-1.1374,-1.1592,-1.2028,-1.3156,-1.2299,-1.1592,-1.1592,-1.0515,-0.9864,-0.9864,-0.9864,-1.0351,-1.1483,-1.1636,-1.2266,-1.3643,-1.38,-1.4025,-1.4381,-1.4432,-1.3839,-1.2689,-1.2689,-1.1856,-1.0361,-1.1976,-1.2037,-1.0838,-1.0838,-1.0838,-1.0838,-1.0838,-1.0838,-1.0838,-1.0838,-1.0838,-1.102,-1.2277,-1.1916,-1.102,0.0,0.0,0.0,0.0,0.0,0.0,0.0,0.0,0.0,0.0,0.0,0.0,0.0,0.0,0.0,0.0,0.0,0.0,0.0,0.0,-0.8885,-0.8885,-0.8885,-0.8885,-0.8885,-0.8885,-0.8885,-0.8885,-0.8885,-0.8885,-0.8885,-0.8885,-0.8885,-0.8885,-0.8885,-0.8885,-0.8885,-0.8885,-0.8885,-0.8885,-0.8885,-0.8885,-0.8885,-0.8885,-0.8885,-0.8885,-0.8885,0.0,0.0,0.0,0.0,0.0,0.0,0.0,-0.8885,-0.8885,-0.8885,-0.8885,-0.8885,-0.8885,-0.8885,-0.8885,-0.8885,-0.8885,-0.8885,-0.8885,-0.8885,-0.8885,-0.8885,-0.8885,-0.8885,-0.8885,-0.8885,-0.8885,-0.8885,-0.9154,-0.9919,-1.0021,-1.0351,-1.1109,-1.0507,-1.0021,-1.0021,-0.9375,-0.8885,-0.8885,-0.8885,-0.921,-1.0021,-1.0021,-1.0445,-1.1355,-1.1496,-1.1685,-1.1977,-1.2071,-1.1743,-1.108,-1.108,-1.0604,-0.9822,-1.0657,-1.0596,-0.9822,-0.9822,-0.9822,-0.9822,-0.9822,-0.9822,-0.9822,-0.9822,-0.9822,-0.9883,-1.0717,-1.0543,-0.9943,0.0,0.0,0.0,0.0,0.0,0.0,0.0,0.0,0.0,0.0,0.0,0.0,0.0,0.0,0.0,0.0,0.0,0.0,0.0,0.0,0.0,-0.8885,-0.8885,-0.8885,-0.8885,-0.8885,-0.8885,-0.8885,-0.8885,-0.8885,-0.8885,-0.8885,-0.8885,-0.8885,-0.8885,-0.8885,-0.8885,-0.8885,-0.8885,-0.8885,-0.8885,-0.8885,-0.8885,-0.8885,-0.8885,-0.8885,-0.8885,-0.8885,-0.8885,-0.8885,0.0,0.0,0.0,0.0,-0.8885,-0.8885,-0.8885,-0.8885,-0.8885,-0.8885,-0.8885,-0.8885,-0.8885,-0.8885,-0.8885,-0.8885,-0.8885,-0.8885,-0.8885,-0.8885,-0.8885,-0.8885,-0.8885,-0.8885,-0.8885,-0.8885,-0.8885,-0.8885,-0.8885,-0.8885,-0.8885,-0.8885,-0.8885,-0.8885,-0.8885,-0.8885,-0.8885,-0.8885,-0.8885,-0.8885,-0.8885,-0.8885,-0.9055,-0.9248,-0.934,-0.9496,-0.9646,-0.9781,-0.9808,-0.9822,-0.9822,-0.9822,-0.9822,-0.9822,-0.9822,-0.9822,-0.9822,-0.9822,-0.9822,-0.9822,-0.9822,-0.9822,-0.9822,-0.9822,-0.9836,-0.9863,0.0,0.0,0.0,0.0,0.0,0.0,0.0,0.0,0.0,0.0,-0.8885,-0.8885,0.0,0.0,0.0,0.0,0.0,0.0,0.0,0.0,0.0,-0.8885,-0.8885,-0.8885,-0.8885,-0.8885,-0.8885,-0.8885,-0.8885,-0.8885,-0.8885,-0.8885,-0.8885,-0.8885,-0.8885,-0.8885,-0.8885,-0.8885,-0.8885,-0.8885,-0.8885,-0.8885,-0.8885,-0.8885,-0.8885,-0.8885,-0.8885,-0.8885,-0.8885,-0.8885,-0.8885,0.0,0.0,0.0,-0.8885,-0.8885,-0.8885,-0.8885,-0.8885,-0.8885,-0.8885,-0.8885,-0.8885,-0.8885,-0.8885,-0.8885,-0.8885,-0.8885,-0.8885,-0.8885,-0.8885,-0.8885,-0.8885,-0.8885,-0.8885,-0.8885,-0.8885,-0.8885,-0.8885,-0.8885,-0.8885,-0.8885,-0.8885,-0.8885,-0.8885,-0.8885,-0.8885,-0.8885,-0.8885,-0.8885,-0.8885,-0.8885,-0.8898,-0.9035,-0.9241,-0.9334,-0.949,-0.9639,-0.9761,-0.9822,-0.9822,-0.9822,-0.9822,-0.9822,-0.9822,-0.9822,-0.9822,-0.9822,-0.9822,-0.9822,-0.9822,-0.9822,-0.9822,-0.9822,-0.9842,-0.9957,0.0,0.0,0.0,0.0,0.0,0.0,0.0,0.0,0.0,0.0,0.0,-0.8885,0.0,0.0,0.0,0.0,0.0,0.0,0.0,0.0,0.0,-0.8885,-0.8885,-0.8885,-0.8885,-0.8885,-0.8885,-0.8885,-0.8885,-0.8885,-0.8885,-0.8885,-0.8885,-0.8885,-0.8885,-0.8885,-0.8885,-0.8885,-0.8885,-0.8885,-0.8885,-0.8885,-0.8885,-0.8885,-0.8885,-0.8885,-0.8885,-0.8885,-0.8885,-0.8885,-0.8885,-0.8885,-0.8885,0.0,0.0,0.0,-0.8885,-0.8885,-0.8885,-0.8885,-0.8885,-0.8885,-0.8885,-0.8885,-0.8885,-0.8885,-0.8885,-0.8885,-0.8885,-0.8885,-0.8885,-0.8885,-0.8885,-0.8885,-0.8885,-0.8885,-0.8885,-0.8885,-0.8885,-0.8885,-0.8885,-0.8885,-0.8885,-0.8885,-0.8885,-0.8885,-0.8885,-0.8885,-0.8885,-0.8885,-0.8885,-0.8885,-0.8885,-0.9008,-0.9207,-0.9364,-0.9496,-0.9727,-0.9788,-0.9822,-0.9822,-0.9822,-0.9822,-0.9822,-0.9822,-0.9822,-0.9822,-0.9822,-0.9822,-0.9822,-0.9822,-0.9876,-0.9889,-0.9889,-1.0046,-1.0181,0.0,0.0,0.0,0.0,0.0,0.0,0.0,0.0,0.0,0.0,0.0,0.0,0.0,0.0,0.0,0.0,0.0,0.0,0.0,0.0,0.0,-0.8885,-0.8885,-0.8885,-0.8885,-0.8885,-0.8885,-0.8885,-0.8885,-0.8885,-0.8885,-0.8885,-0.8885,-0.8885,-0.8885,-0.8885,-0.8885,-0.8885,-0.8885,-0.8885,-0.8885,-0.8885,-0.8885,-0.8885,-0.8885,-0.8885,-0.8885,-0.8885,-0.8885,-0.8885,-0.8885,-0.8885,-0.8885,-0.8885,0.0,0.0,0.0,-0.8885,-0.8885,-0.8885,-0.8885,-0.8885,-0.8885,-0.8885,-0.8885,-0.8885,-0.8885,-0.8885,-0.8885,-0.8885,-0.8885,-0.8885,-0.8885,-0.8885,-0.8885,-0.8885,-0.8885,-0.8885,-0.8885,-0.8885,-0.8885,-0.8885,-0.8885,-0.8885,-0.8885,-0.8885,-0.8885,-0.8885,-0.8885,-0.8885,-0.8885,-0.8885,-0.8885,-0.8988,-0.9096,-0.9286,-0.953,-0.9822,-0.9822,-0.9822,-0.9822,-0.9822,-0.9822,-0.9822,-0.9822,-0.9822,-0.9822,-0.9822,-0.9822,-0.9822,-0.9863,-0.9889,-0.999,-1.0031,-1.0202,-1.0331,0.0,0.0,0.0,0.0,0.0,0.0,0.0,0.0,0.0,0.0,0.0,0.0,-0.8885,-0.8885,-0.8885,-0.8885,-0.8885,0.0,0.0,0.0,0.0,-0.8885,-0.8885,0.0,-0.8885,-0.8885,-0.8885,-0.8885,-0.8885,-0.8885,-0.8885,-0.8885,-0.8885,-0.8885,-0.8885,-0.8885,-0.8885,-0.8885,-0.8885,-0.8885,-0.8885,-0.8885,-0.8885,-0.8885,-0.8885,-0.8885,-0.8885,-0.8885,-0.8885,-0.8885,-0.8885,-0.8885,-0.8885,-0.8885,-0.8885,0.0,0.0,0.0,-0.8885,-0.8885,-0.8885,-0.8885,-0.8885,-0.8885,-0.8885,-0.8885,-0.8885,-0.8885,-0.8885,-0.8885,-0.8885,-0.8885,-0.8885,-0.8885,-0.8885,-0.8885,-0.8885,-0.8885,-0.8885,-0.8885,-0.8885,-0.8885,-0.8885,-0.8885,-0.8885,-0.8885,-0.8885,-0.8885,-0.8885,-0.8885,-0.8885,-0.8885,-0.8885,-0.8885,-0.8892,-0.9239,-0.953,-0.9822,-0.9822,-0.9822,-0.9822,-0.9822,-0.9822,-0.9822,-0.9822,-0.9822,-0.9822,-0.9822,-0.9822,-0.9836,-0.9916,-0.9977,-1.0004,-1.0215,-1.0358,-1.048,0.0,0.0,0.0,0.0,0.0,0.0,0.0,0.0,0.0,0.0,0.0,0.0,0.0,-0.8885,-0.8885,-0.8885,-0.8885,0.0,0.0,0.0,0.0,-0.8885,-0.8885,-0.8885,-0.8885,-0.8885,-0.8436,-0.7482,-0.7482,-0.6982,-0.6089,-0.7038,-0.7482,-0.7537,-0.8491,-0.8885,-0.8885,-0.8885,-0.8885,-0.8885,-0.8885,-0.8885,-0.8885,-0.8885,-0.8885,-0.8885,-0.8885,-0.8885,-0.8885,-0.8885,-0.8885,-0.8885,-0.8885,-0.8885,-0.8885,-0.8885,-0.8885,-0.8885,-0.8885,-0.8885,-0.8885,-0.8885,-0.8885,-0.8885,-0.8885,-0.8885,-0.8885,-0.8885,-0.8885,-0.8885,-0.8885,-0.8885,-0.8885,-0.8885,-0.8885,-0.8885,-0.8885,-0.8885,-0.8885,-0.8885,-0.8885,-0.8885,-0.8885,-0.8885,-0.8885,-0.8885,-0.8885,-0.8885,-0.8885,-0.8885,-0.8885,-0.8885,-0.8885,-0.9028,-0.9218,-0.9422,-0.9625,-0.9822,-0.9822,-0.9822,-0.9822,-0.9822,-0.9822,-0.9822,-0.9822,-0.9822,-0.9822,-0.9822,-0.9876,-0.9909,-0.9963,-1.0105,-1.0337,-1.0399,-1.0514,-1.0636,0.0,0.0,0.0,0.0,0.0,0.0,0.0,0.0,0.0,-0.8885,0.0,0.0,0.0,0.0,-0.8885,-0.8885,-0.8885,-0.8885,-0.8885,-0.8885,-0.8885,-0.8885,-0.8885,-0.8885,-0.8885,-0.8885,-0.8152,-0.67,-0.67,-0.5922,-0.4526,-0.5528,-0.62,-0.67,-0.7204,-0.7986,-0.8885,-0.8885,-0.8602,-0.8152,-0.8152,-0.8152,-0.8152,-0.8152,-0.8491,-0.883,-0.8325,-0.8152,-0.8097,-0.7593,-0.7765,-0.8152,-0.8152,-0.8491,-0.8885,-0.8885,-0.8885,-0.8885,-0.8885,-0.8885,-0.8885,-0.8885,-0.8885,-0.8885,-0.8885,-0.8885,-0.8885,-0.8885,-0.8885,-0.8885,-0.8885,-0.8885,-0.8885,-0.8885,-0.8885,-0.8885,-0.8885,-0.8885,-0.8885,-0.8885,-0.8885,-0.8885,-0.8885,-0.8885,-0.8885,-0.8885,-0.8885,-0.8885,-0.8885,-0.8885,-0.8885,-0.8885,-0.8988,-0.913,-0.9381,-0.953,-0.968,-0.9822,-0.9822,-0.9822,-0.9822,-0.9822,-0.9822,-0.9822,-0.9822,-0.9822,-0.9822,-0.9876,-0.9896,-0.9997,-1.0098,-1.0317,-1.05,-1.0548,-1.0629,-1.0717,0.0,0.0,0.0,0.0,0.0,0.0,0.0,0.0,-0.8892,-0.8898,0.0,0.0,0.0,0.0,0.0,-0.8898,-0.8898,-0.8898,-0.8898,-0.8898,-0.8892,-0.8892,0.0,0.0,-0.8885,-0.8885,-0.8152,-0.67,-0.67,-0.5922,-0.4414,-0.447,-0.525,-0.6533,-0.5139,-0.6144,-0.883,-0.883,-0.8042,-0.6755,-0.6755,-0.6755,-0.67,-0.67,-0.7537,-0.8602,-0.7149,-0.6644,-0.6422,-0.4972,-0.5472,-0.67,-0.6755,-0.7765,-0.8885,-0.8885,-0.8885,-0.8885,0.0,0.0,0.0,-0.8885,-0.8885,-0.8885,-0.8885,-0.8885,-0.8885,-0.8885,-0.8885,-0.8885,-0.8885,-0.8885,-0.8885,-0.8885,-0.8885,-0.8885,-0.8885,-0.8885,-0.8885,-0.8885,-0.8885,-0.8885,-0.8885,-0.8885,-0.8885,-0.8885,-0.8885,-0.8885,-0.8885,-0.8885,-0.8885,-0.8885,-0.9083,-0.9289,-0.9381,-0.9537,-0.9686,-0.9822,-0.9822,-0.9822,-0.9822,-0.9822,-0.9822,-0.9822,-0.9822,-0.9822,-0.9836,-0.9923,-0.999,-1.0031,-1.0378,-1.0493,-1.0514,-1.0663,-1.0717,-1.0717,0.0,0.0,0.0,0.0,0.0,-0.8974,-0.9076,-0.9096,-0.913,0.0,0.0,0.0,-0.9259,-0.9259,-0.9259,-0.9259,-0.9259,-0.9259,-0.9259,-0.9259,-0.9211,-0.9096,-0.9096,-0.9049,-0.8885,-0.8885,-0.8152,-0.67,-0.67,-0.5361,-0.285,-0.3968,-0.4136,-0.3519,-0.5306,-0.6533,-0.7315,-0.7315,-0.7709,-0.8269,-0.8269,-0.7648,-0.67,-0.67,-0.6311,-0.5639,-0.525,-0.5083,-0.5027,-0.4637,-0.5472,-0.6866,-0.7931,-0.8546,-0.8885,-0.8885,-0.8885,-0.8885,-0.8885,0.0,0.0,0.0,0.0,0.0,-0.8885,-0.8885,-0.8885,-0.8885,-0.8885,-0.8885,-0.8885,-0.8885,-0.8885,-0.8885,-0.8885,-0.8885,-0.8885,-0.8885,-0.8885,-0.8885,-0.8885,-0.8885,-0.8885,-0.8885,-0.8885,-0.8885,-0.8885,-0.8885,-0.8885,-0.8885,-0.8885,-0.8885,-0.9184,-0.934,-0.9381,-0.9632,-0.9781,-0.9822,-0.9822,-0.9822,-0.9822,-0.9822,-0.9822,-0.9822,-0.9822,-0.9883,-0.993,-0.997,-1.0112,-1.0378,-1.046,-1.0561,-1.0663,-1.0704,-1.0717,-1.0717,0.0,0.0,0.0,-0.9123,-0.9123,-0.915,-0.9289,-0.9303,-0.9337,0.0,0.0,0.0,-0.9381,-0.9381,-0.9381,-0.9381,-0.9381,-0.9381,-0.9381,-0.9381,-0.934,-0.9309,-0.9303,-0.9211,-0.9123,-0.9123,-0.8382,-0.6894,-0.6894,-0.5338,-0.2372,-0.3895,-0.4049,-0.324,-0.4972,-0.6144,-0.6644,-0.6033,-0.6255,-0.7038,-0.7038,-0.6139,-0.4801,-0.4801,-0.4693,-0.4414,-0.3742,-0.3519,-0.3463,-0.2852,-0.4024,-0.6033,-0.7537,-0.838,-0.8885,-0.8885,-0.8885,-0.8885,-0.8885,-0.8885,-0.8885,-0.8885,0.0,0.0,-0.8885,-0.8885,-0.8885,-0.8885,-0.8885,-0.8885,-0.8885,-0.8885,-0.8885,-0.8885,-0.8885,-0.8885,-0.8885,-0.8885,-0.8885,-0.8885,-0.8885,-0.8885,-0.8885,-0.8885,-0.8885,-0.8885,-0.8885,-0.8885,-0.8885,-0.8885,-0.8967,-0.9028,-0.9259,-0.9408,-0.9476,-0.9707,-0.9822,-0.9822,-0.9822,-0.9822,-0.9822,-0.9822,-0.9822,-0.9822,-0.989,-1.0005,-1.0148,-1.0209,-1.0337,-1.05,-1.0561,-1.0643,-1.0717,-1.0717,-1.0717,-1.0717,0.0,0.0,-0.9381,-0.9381,-0.9381,-0.9388,-0.9401,-0.9408,-0.9415,0.0,-0.9429,-0.9429,-0.9429,-0.9429,-0.9429,-0.9429,-0.9429,-0.9429,-0.9429,-0.9429,-0.9422,-0.9408,-0.9408,-0.9401,-0.9381,-0.9381,-0.8736,-0.738,-0.738,-0.5876,-0.3045,-0.436,-0.4726,-0.427,-0.4438,-0.5162,-0.6102,-0.4987,-0.4421,-0.4247,-0.4414,-0.3575,-0.218,-0.218,-0.2961,-0.3801,-0.2459,-0.1956,-0.179,-0.0616,-0.2014,-0.4526,-0.5977,-0.7482,-0.8657,-0.8657,-0.8768,-0.8885,-0.8885,-0.8885,-0.8885,-0.8885,-0.8885,0.0,-0.8885,-0.8885,-0.8885,-0.8885,-0.8885,-0.8885,-0.8885,-0.8885,-0.8885,-0.8885,-0.8885,-0.8885,-0.8885,-0.8885,-0.8885,-0.8885,-0.8885,-0.8885,-0.8885,-0.8885,-0.8885,-0.8885,-0.8885,-0.8885,-0.8885,-0.8885,-0.9008,-0.9207,-0.93,-0.9456,-0.9605,-0.9747,-0.9822,-0.9822,-0.9822,-0.9822,-0.9822,-0.9822,-0.9829,-0.9856,-0.993,-1.0148,-1.0317,-1.0439,-1.05,-1.0527,-1.067,-1.0717,-1.0717,-1.0717,-1.0717,-1.0717,0.0,-0.9381,-0.9381,-0.9381,-0.9381,-0.9422,-0.9544,-0.9564,-0.9605,-0.972,-0.9734,-0.9734,-0.9734,-0.9734,-0.9734,-0.9734,-0.9734,-0.9734,-0.9734,-0.9734,-0.9686,-0.9571,-0.9564,-0.951,-0.9388,-0.9381,-0.9265,-0.8968,-0.8968,-0.8014,-0.6183,-0.6473,-0.53,-0.2967,-0.4125,-0.4095,-0.3134,-0.4101,-0.3788,-0.2738,-0.4024,-0.3575,-0.218,-0.218,-0.1622,-0.084,-0.056,-0.0448,-0.056,-0.1454,-0.218,-0.2905,-0.447,-0.5922,-0.7149,-0.7149,-0.7986,-0.8885,-0.8885,-0.8885,-0.8885,-0.8885,-0.8885,0.0,-0.8885,-0.8885,-0.8885,-0.8885,-0.8885,-0.8885,-0.8885,-0.8885,-0.8885,-0.8885,-0.8885,-0.8885,-0.8885,-0.8885,-0.8885,-0.8885,-0.8885,-0.8885,-0.8885,-0.8885,-0.8885,-0.8885,-0.8885,-0.8885,-0.8885,-0.8885,-0.9008,-0.9207,-0.93,-0.9456,-0.9605,-0.9747,-0.9822,-0.9822,-0.9822,-0.9822,-0.9822,-0.9822,-0.989,-0.9943,-0.9977,-1.0202,-1.0453,-1.048,-1.0561,-1.0677,-1.0711,-1.0717,-1.0717,-1.0717,-1.0717,-1.0717,-0.9598,-0.9598,-0.9598,-0.9598,-0.9598,-0.9625,-0.97,-0.9713,-0.9741,-0.9815,-0.9822,-0.9822,-0.9822,-0.9822,-0.9822,-0.9822,-0.9822,-0.9822,-0.9822,-0.9822,-0.9788,-0.972,-0.8919,-0.8462,-0.8396,-0.7557,-0.714,-0.714,-0.714,-0.6336,-0.4805,-0.5574,-0.4608,-0.2407,-0.3928,-0.3677,-0.2263,-0.3014,-0.2482,-0.1261,-0.2757,-0.2459,-0.112,-0.112,-0.0616,0.0,0.0,0.0,-0.0112,-0.084,-0.1566,-0.2459,-0.4024,-0.5528,-0.6871,-0.7593,-0.8325,-0.8885,-0.8885,-0.8885,-0.8885,-0.8885,-0.8885,0.0,0.0,-0.8885,-0.8885,-0.8885,-0.8885,-0.8885,-0.8885,-0.8885,-0.8885,-0.8885,-0.8885,-0.8885,-0.8885,-0.8885,-0.8885,-0.8885,-0.8885,-0.8885,-0.8885,-0.8885,-0.8885,-0.8885,-0.8885,-0.8885,-0.8885,-0.9008,-0.911,-0.9316,-0.9415,-0.9564,-0.9713,-0.9788,-0.9822,-0.9822,-0.9822,-0.9822,-0.9822,-0.9835,-0.9916,-0.9997,-1.0202,-1.0351,-1.05,-1.0575,-1.0649,-1.0717,-1.0717,-1.0717,-1.0717,-1.0717,-1.0717,-1.0717,-0.9822,-0.9822,-0.9822,-0.9822,-0.9822,-0.9822,-0.9822,-0.9822,-0.9822,-0.9822,-0.9822,-0.9822,-0.9822,-0.9822,-0.9822,-0.9822,-0.9822,-0.9822,-0.9822,-0.9822,-0.9822,-0.9822,-0.8282,-0.7423,-0.7423,-0.5774,-0.4916,-0.4916,-0.4916,-0.4215,-0.2959,-0.4162,-0.3837,-0.2311,-0.3551,-0.3251,-0.177,-0.177,-0.1061,-0.0118,-0.1314,-0.1073,0.0,0.0,0.0,0.0,0.0,0.0,0.0,0.0,-0.0792,-0.1976,-0.326,-0.4826,-0.6502,-0.7715,-0.8436,-0.8885,-0.8885,-0.8885,-0.8885,-0.8885,-0.8885,-0.8885,0.0,0.0,0.0,-0.8885,-0.8885,-0.8885,-0.8885,-0.8885,-0.8885,-0.8885,-0.8885,-0.8885,-0.8885,-0.8885,-0.8885,-0.8885,-0.8885,-0.8885,-0.8885,-0.8885,-0.8885,-0.8885,-0.8885,-0.8885,-0.8885,-0.9076,-0.9282,-0.9374,-0.953,-0.968,-0.9822,-0.9822,-0.9822,-0.9822,-0.9822,-0.9836,-0.9869,-0.993,-1.0017,-1.0085,-1.0385,-1.0507,-1.0548,-1.067,-1.0717,-1.0717,-1.0717,-1.0717,-1.0717,-1.0717,-1.0717,-1.0717,-0.9822,-0.9822,-0.9822,-0.9822,-0.9822,-0.9822,-0.9822,-0.9822,-0.9822,-0.9822,-0.9822,-0.9822,-0.9822,-0.9822,-0.9822,-0.9822,-0.9822,-0.9822,-0.9822,-0.9822,-0.9822,-0.9822,-0.8282,-0.7423,-0.7423,-0.5774,-0.4916,-0.4916,-0.4916,-0.479,-0.4658,-0.478,-0.4043,-0.245,-0.2634,-0.1824,-0.024,-0.024,-0.0179,0.0,-0.0176,-0.0176,0.0,0.0,0.0,0.0,0.0,0.0,0.0,0.0,-0.0117,-0.0292,-0.0461,-0.2456,-0.4779,-0.4938,-0.6871,-0.8885,-0.8885,-0.8885,-0.8885,-0.8885,-0.8885,-0.8885,-0.8885,0.0,-0.8885,-0.8885,0.0,-0.8885,-0.8885,0.0,0.0,-0.8885,-0.8885,-0.8885,-0.8885,-0.8885,-0.8885,-0.8885,-0.8885,-0.8885,-0.8885,-0.8885,-0.8885,-0.8885,-0.8885,-0.8885,-0.8885,-0.9076,-0.9282,-0.9374,-0.953,-0.968,-0.9822,-0.9822,-0.9822,-0.9822,-0.9822,-0.989,-0.9963,-0.9977,-1.0132,-1.0446,-1.048,-1.0568,-1.0697,-1.0711,-1.0717,-1.0717,-1.0717,-1.0717,-1.0717,-1.0717,-1.0717,-1.0717,-0.9822,-0.9822,-0.9822,-0.9822,-0.9822,-0.9822,-0.9822,-0.9822,-0.9822,-0.9822,-0.9822,-0.9822,-0.9822,-0.9822,-0.9822,-0.9822,-0.9822,-0.9822,-0.9822,-0.9822,-0.9822,-0.9822,-0.8282,-0.693,-0.5957,-0.4364,-0.3016,-0.2033,-0.2033,-0.2033,-0.2033,-0.2033,-0.2216,-0.2524,-0.2524,-0.2087,-0.1465,-0.1465,-0.0913,-0.0061,-0.1088,-0.145,-0.1327,-0.0356,0.0,0.0,0.0,0.0,0.0,0.0,0.0,-0.0294,-0.2156,-0.2905,-0.3711,-0.6503,-0.7521,-0.7926,-0.8907,-0.9198,-0.9198,-0.9198,-0.913,-0.9062,-0.9062,-0.9001,-0.8885,-0.8885,0.0,0.0,0.0,0.0,0.0,0.0,-0.8885,-0.8885,-0.8885,-0.8885,-0.8885,-0.8885,-0.8885,-0.8885,-0.8885,-0.8885,-0.8885,-0.8885,-0.8885,-0.8974,-0.9055,-0.9205,-0.9354,-0.951,-0.9652,-0.9761,-0.9822,-0.9822,-0.9822,-0.9822,-0.9822,-0.9842,-0.999,-1.0141,-1.0297,-1.0493,-1.0582,-1.0663,-1.0717,-1.0717,-1.0717,-1.0717,-1.0717,-1.0717,-1.0717,-1.0717,-1.0717,-1.0717,-0.9944,-0.9876,-0.9822,-0.9822,-0.9822,-0.9836,-0.9876,-0.9917,-0.9944,-0.9944,-0.9944,-0.9944,-0.9944,-0.9944,-0.9944,-0.9944,-0.9944,-0.993,-0.9883,-0.9924,-0.991,-0.9822,-0.8317,-0.6657,-0.4916,-0.3323,-0.1663,0.0,0.0,0.0,0.0,-0.0494,-0.1356,-0.2524,-0.2954,-0.3139,-0.3139,-0.3139,-0.2462,-0.1479,-0.2647,-0.3139,-0.3007,-0.1802,-0.137,-0.137,-0.137,-0.137,-0.137,-0.137,-0.137,-0.1726,-0.4021,-0.4192,-0.4245,-0.7746,-0.8206,-0.7852,-0.9084,-0.9381,-0.9381,-0.9381,-0.9357,-0.9275,-0.9275,-0.9137,-0.9062,-0.9062,-0.9062,0.0,0.0,0.0,-0.8994,-0.8994,0.0,-0.8885,-0.8885,-0.8885,-0.8885,-0.8885,-0.8885,-0.8885,-0.8885,-0.8885,-0.8885,-0.8885,-0.8885,-0.9001,-0.92,-0.93,-0.9449,-0.9605,-0.9747,-0.9822,-0.9822,-0.9822,-0.9822,-0.9822,-0.9863,-0.9964,-1.012,-1.027,-1.0419,-1.0561,-1.067,-1.0717,-1.0651,-1.018,-0.9975,-0.9915,-0.9443,-0.9244,-0.9377,-1.0319,-1.0386,-0.9975,-1.0263,-1.0025,-0.9822,-0.9822,-0.9822,-0.9869,-0.9957,-1.0168,-1.0263,-1.0263,-1.0263,-1.0263,-1.0263,-1.0263,-1.0263,-1.0263,-1.0263,-1.0202,-0.999,-1.0181,-1.0134,-0.9836,-0.8403,-0.6731,-0.492,-0.3323,-0.1663,0.0,0.0,0.0,-0.0062,-0.1663,-0.2462,-0.2585,-0.4119,-0.4794,-0.4794,-0.4794,-0.4794,-0.4732,-0.4794,-0.4794,-0.4794,-0.479,-0.4726,-0.4726,-0.4726,-0.4726,-0.4726,-0.4726,-0.4726,-0.4774,-0.4884,-0.5817,-0.6995,-0.712,-0.8206,-0.9323,-0.9381,-0.9381,-0.9381,-0.9381,-0.9374,-0.9374,-0.9374,-0.9367,-0.9367,-0.9367,-0.9367,-0.9367,-0.9367,0.0,0.0,0.0,0.0,0.0,0.0,-0.8885,-0.8885,-0.8885,-0.8885,-0.8885,-0.8885,-0.8885,-0.8885,-0.8885,-0.8885,-0.9001,-0.92,-0.93,-0.9449,-0.9605,-0.9747,-0.9822,-0.9822,-0.9822,-0.9822,-0.9822,-0.9909,-1.012,-1.0276,-1.0419,-1.0568,-1.0711,-1.0717,-1.0717,-1.0585,-0.8834,-0.8097,-0.7897,-0.6231,-0.5563,-0.5964,-0.9443,-0.9576,-0.8097,-1.0283,-1.0195,-1.0127,-1.0127,-1.0127,-1.0141,-1.0195,-1.0249,-1.0283,-1.0283,-1.0283,-1.0283,-1.0283,-1.0283,-1.0283,-1.0283,-1.0283,-1.0256,-1.0209,-1.0249,-1.0236,-1.0127,-0.9664,-0.858,-0.6832,-0.6265,-0.5189,-0.3546,-0.3546,-0.3529,-0.3369,-0.393,-0.4775,-0.577,-0.632,-0.6564,-0.6564,-0.6564,-0.5896,-0.4916,-0.4916,-0.6202,-0.7917,-0.5712,-0.4916,-0.4916,-0.4916,-0.4916,-0.4916,-0.4916,-0.4916,-0.5096,-0.6224,-0.6155,-0.609,-0.8233,-0.8516,-0.8336,-0.9367,-0.8881,-0.8096,-0.8096,-0.7974,-0.7858,-0.7858,-0.7791,-0.8084,-0.9149,-0.8497,-0.8084,-0.9207,0.0,0.0,0.0,0.0,0.0,0.0,-0.6853,-0.7883,-0.8963,-0.8994,-0.8885,-0.8885,-0.8885,-0.8885,-0.8885,-0.9028,-0.9144,-0.935,-0.9449,-0.9598,-0.9747,-0.9795,-0.9822,-0.9822,-0.9822,-0.9869,-0.9909,-0.9963,-1.0181,-1.0419,-1.0473,-0.9907,-0.89,-0.89,-0.8235,-0.7169,-0.6564,-0.6297,-0.6231,-0.5629,-0.5429,-0.5563,-0.6765,-0.6831,-0.6305,-1.0439,-1.0439,-1.0405,-1.0297,-1.0324,-1.0358,-1.0358,-1.0399,-1.0439,-1.0439,-1.0439,-1.0439,-1.0439,-1.0439,-1.0439,-1.0439,-1.0439,-1.0412,-1.0358,-1.0405,-1.0392,-1.0283,-1.0331,-0.9557,-0.7832,-0.7832,-0.6997,-0.5394,-0.5394,-0.5305,-0.5189,-0.582,-0.6607,-0.7542,-0.8166,-0.8043,-0.748,-0.7501,-0.6496,-0.4888,-0.4926,-0.6141,-0.7856,-0.5712,-0.5284,-0.5712,-0.51,-0.4916,-0.4977,-0.559,-0.5774,-0.608,-0.7728,-0.7484,-0.7057,-0.9207,-0.9079,-0.8343,-0.8836,-0.8221,-0.724,-0.6686,-0.6397,-0.6292,-0.6292,-0.6244,-0.6496,-0.7568,-0.6911,-0.6496,-0.7627,-0.7772,0.0,0.0,0.0,0.0,0.0,-0.5342,-0.6341,-0.7383,-0.832,-0.8905,-0.9008,-0.9015,-0.9035,-0.9089,-0.9184,-0.9357,-0.9456,-0.9557,-0.9673,-0.9815,-0.9822,-0.9822,-0.9822,-0.9822,-0.9835,-0.9984,-1.0044,-1.0256,-1.0493,-1.0548,-0.9623,-0.803,-0.803,-0.7031,-0.5362,-0.4693,-0.4426,-0.4359,-0.3756,-0.3488,-0.3622,-0.4894,-0.4977,-0.4333,-1.0717,-1.0717,-1.0629,-1.0351,-1.0412,-1.05,-1.05,-1.0629,-1.0717,-1.0717,-1.0717,-1.0717,-1.0717,-1.0717,-1.0717,-1.0717,-1.0717,-1.0656,-1.0514,-1.0636,-1.0595,-1.0317,-1.0432,-0.9722,-0.798,-0.7911,-0.7203,-0.5661,-0.5661,-0.5661,-0.5657,-0.7198,-0.7901,-0.8023,-0.957,-0.9309,-0.763,-0.7587,-0.6531,-0.4896,-0.483,-0.4803,-0.4865,-0.4742,-0.5724,-0.6945,-0.5468,-0.4916,-0.5161,-0.6747,-0.7296,-0.7545,-0.9079,-0.9572,-0.9572,-0.9572,-0.9572,-0.9207,-0.7667,-0.7235,-0.6747,-0.5161,-0.4794,-0.4794,-0.4794,-0.4794,-0.4794,-0.4855,-0.4855,-0.4794,-0.4855,-0.4798,0.0,0.0,0.0,0.0,-0.4405,-0.4402,-0.4402,-0.4519,-0.7074,-0.8847,-0.8981,-0.9051,-0.9168,-0.9252,-0.9272,-0.9397,-0.9605,-0.9552,-0.956,-0.9815,-0.9822,-0.9761,-0.97,-0.9707,-0.9726,-0.9748,-0.9962,-1.0108,-1.0247,-1.0386,-0.9443,-0.7764,-0.7764,-0.6765,-0.5028,-0.3289,-0.2551,-0.2417,-0.0673,0.0,-0.0404,-0.3895,-0.4067,-0.2341,-1.0717,-1.0717,-1.0697,-1.0622,-1.0636,-1.0663,-1.0663,-1.0697,-1.0717,-1.0717,-1.0717,-1.0717,-1.0717,-1.0717,-1.0717,-1.0717,-1.0717,-1.0704,-1.0663,-1.0697,-1.0683,-1.0609,-1.0643,-1.0445,-0.9939,-0.9939,-0.9742,-0.9342,-0.9342,-0.9294,-0.9192,-0.9586,-0.9729,-0.9697,-1.0086,-0.9309,-0.7571,-0.7605,-0.6569,-0.4785,-0.3626,-0.3812,-0.4636,-0.2165,-0.2291,-0.3862,-0.4645,-0.4916,-0.4977,-0.5406,-0.5529,-0.559,-0.6018,-0.6141,-0.6141,-0.6141,-0.6141,-0.608,-0.5651,-0.4671,-0.3628,-0.32,-0.3139,-0.3139,-0.3139,-0.3139,-0.3446,-0.4671,-0.3935,-0.3507,-0.4671,-0.4902,-0.4462,0.0,0.0,0.0,-0.2859,-0.2889,-0.3224,-0.4475,-0.6268,-0.6955,-0.5818,-0.6812,-0.7522,-0.7555,-0.7643,-0.8248,-0.9545,-0.8552,-0.8557,-0.9761,-0.9822,-0.9207,-0.8033,-0.8004,-0.7478,-0.6383,-0.6412,-0.6505,-0.673,-0.6756,-0.5763,-0.4091,-0.4091,-0.3019,-0.1344,-0.0874,-0.0672,-0.0673,-0.0204,0.0,-0.0139,-0.1028,-0.1109,-0.0637,-1.0717,-1.0717,-1.0717,-1.0717,-1.0717,-1.0717,-1.0717,-1.0717,-1.0717,-1.0717,-1.0717,-1.0717,-1.0717,-1.0717,-1.0717,-1.0717,-1.0717,-1.0717,-1.0717,-1.0717,-1.0717,-1.0717,-1.0717,-1.0319,-0.951,-0.951,-0.951,-0.951,-0.951,-0.9871,-1.0595,-1.0595,-1.0548,-1.0473,-1.0473,-0.9488,-0.7647,-0.6106,-0.4394,-0.2701,-0.1802,-0.1931,0.0,-0.071,-0.0581,-0.1542,-0.2464,-0.2762,-0.2888,-0.3575,-0.3823,-0.3943,-0.4664,-0.4899,-0.4895,-0.4926,-0.4916,-0.4732,-0.4057,-0.32,-0.2339,-0.1602,-0.1418,-0.1418,-0.1418,-0.1418,-0.1663,-0.2585,-0.2033,-0.1663,-0.2585,-0.277,-0.2462,-0.154,-0.0617,-0.0308,-0.1295,-0.1285,-0.1581,-0.2551,-0.3372,-0.3535,-0.2637,-0.5886,-0.7482,-0.6098,-0.7415,-0.8365,-0.8606,-0.849,-0.8836,-0.9761,-0.9822,-0.905,-0.7434,-0.7371,-0.6598,-0.512,-0.5099,-0.5225,-0.5429,-0.5429,-0.4426,-0.2685,-0.2685,-0.168,0.0,0.0,0.0,0.0,0.0,0.0,0.0,0.0,0.0,0.0,-1.0717,-1.0717,-1.0717,-1.0717,-1.0717,-1.0717,-1.0717,-1.0717,-1.0717,-1.0717,-1.0717,-1.0717,-1.0717,-1.0717,-1.0717,-1.0717,-1.0717,-1.0717,-1.0717,-1.0717,-1.0717,-1.0717,-1.0717,-0.9981,-0.8368,-0.8097,-0.8097,-0.8363,-0.8097,-0.89,-1.0717,-1.0717,-1.0585,-1.0319,-1.0319,-0.9238,-0.7089,-0.3772,-0.1442,0.0,0.0,0.0,0.0,0.0,0.0,0.0,0.0,0.0,-0.0194,-0.1674,-0.2187,-0.2438,-0.3796,-0.4284,-0.4273,-0.4283,-0.4268,-0.3959,-0.2539,-0.2168,-0.1798,-0.0372,0.0,0.0,0.0,0.0,0.0,0.0,0.0,0.0,0.0,0.0,0.0,0.0,0.0,0.0,0.0,0.0,0.0,0.0,-0.0185,0.0,0.0,-0.5282,-0.7506,-0.479,-0.724,-0.8404,-0.7423,-0.8526,-0.9329,-0.9761,-0.9592,-0.8731,-0.7089,-0.6867,-0.5946,-0.4461,-0.4407,-0.4504,-0.4693,-0.4693,-0.3823,-0.235,-0.235,-0.1478,0.0,0.0,0.0,0.0,0.0,0.0,0.0,0.0,0.0,0.0,-1.0717,-1.0717,-1.0717,-1.0717,-1.0717,-1.0717,-1.0717,-1.0717,-1.0717,-1.0717,-1.0717,-1.0717,-1.0717,-1.0717,-1.0717,-1.0717,-1.0717,-1.0717,-1.0717,-1.0717,-1.0717,-1.0717,-1.0717,-1.0518,-1.0246,-0.8767,-0.8701,-1.0246,-0.8701,-0.89,-1.0717,-1.0717,-0.9915,-0.8501,-0.8501,-0.6694,-0.3488,-0.134,-0.0268,0.0,0.0,0.0,0.0,0.0,0.0,0.0,0.0,0.0,-0.0065,-0.0323,-0.0452,-0.0516,-0.0772,-0.0835,-0.0835,-0.0833,-0.0832,-0.0768,-0.0512,-0.0448,-0.0384,-0.0064,0.0,0.0,0.0,0.0,0.0,0.0,0.0,0.0,0.0,0.0,0.0,0.0,0.0,0.0,0.0,0.0,0.0,0.0,-0.1233,-0.154,-0.0123,-0.2273,-0.3495,-0.2954,-0.3444,-0.4851,-0.7296,-0.6385,-0.7001,-0.97,-0.8509,-0.7007,-0.5335,-0.3989,-0.255,-0.0922,-0.0866,-0.0939,-0.0941,-0.0941,-0.074,-0.0471,-0.0471,-0.0269,0.0,0.0,0.0,0.0,0.0,0.0,0.0,0.0,0.0,0.0,-1.0717,-1.0717,-1.0717,-1.0717,-1.0717,-1.0744,-1.0759,-1.0772,-1.0812,-1.0731,-1.0717,-1.0717,-1.0717,-1.0792,-1.0806,-1.0724,-1.0792,-1.0739,-1.0724,-1.0717,-1.0717,-1.0717,-1.0717,-0.9848,-0.7969,-0.7964,-0.7498,-0.6564,-0.6631,-0.7098,-0.7969,-0.7969,-0.7503,-0.6631,-0.6631,-0.5158,-0.2618,-0.1747,-0.0874,0.0,0.0,0.0,0.0,0.0,0.0,0.0,0.0,0.0,0.0,0.0,0.0,0.0,0.0,0.0,0.0,0.0,0.0,0.0,0.0,0.0,0.0,0.0,0.0,0.0,0.0,0.0,0.0,0.0,0.0,0.0,0.0,0.0,0.0,0.0,0.0,0.0,0.0,0.0,0.0,0.0,-0.074,-0.0863,-0.0062,-0.074,-0.154,-0.2462,-0.3262,-0.479,-0.7296,-0.5835,-0.6039,-0.8503,-0.694,-0.5311,-0.3663,-0.2869,-0.165,0.0,0.0,0.0,0.0,0.0,0.0,0.0,0.0,0.0,0.0,0.0,0.0,0.0,0.0,0.0,0.0,0.0,0.0,0.0,-1.0717,-1.0744,-1.0772,-1.0772,-1.0792,-1.0853,-1.0975,-1.0927,-1.0948,-1.0833,-1.0812,-1.0812,-1.0812,-1.0921,-1.0948,-1.0826,-1.0928,-1.0941,-1.0826,-1.0812,-1.0812,-1.0812,-1.0785,-0.9419,-0.6665,-0.7507,-0.6627,-0.3823,-0.4894,-0.5422,-0.5405,-0.5422,-0.5162,-0.4827,-0.4426,-0.3488,-0.2148,-0.2148,-0.1277,0.0,0.0,0.0,0.0,0.0,0.0,0.0,0.0,0.0,0.0,0.0,0.0,0.0,0.0,0.0,0.0,0.0,0.0,0.0,0.0,0.0,0.0,0.0,0.0,0.0,0.0,0.0,0.0,0.0,0.0,0.0,0.0,0.0,0.0,0.0,0.0,0.0,0.0,0.0,0.0,0.0,0.0,0.0,0.0,0.0,-0.0679,-0.2401,-0.3323,-0.4616,-0.6289,-0.5125,-0.516,-0.6804,-0.5252,-0.3783,-0.2496,-0.2175,-0.1329,0.0,0.0,0.0,0.0,0.0,0.0,0.0,0.0,0.0,0.0,0.0,0.0,0.0,0.0,0.0,0.0,0.0,0.0,0.0,-1.0717,-1.0833,-1.086,-1.086,-1.1036,-1.1193,-1.1138,-1.1145,-1.1138,-1.1124,-1.1124,-1.1124,-1.1124,-1.1131,-1.1138,-1.1124,-1.1131,-1.1138,-1.1124,-1.1124,-1.1124,-1.1124,-1.0995,-1.0725,-1.038,-0.8828,-0.7831,-0.7498,-0.6097,-0.5394,-0.5395,-0.5398,-0.4492,-0.2887,-0.121,-0.0404,-0.0269,-0.0269,-0.0135,0.0,0.0,0.0,0.0,0.0,0.0,0.0,0.0,0.0,0.0,0.0,0.0,0.0,0.0,0.0,0.0,0.0,0.0,0.0,0.0,0.0,0.0,0.0,0.0,0.0,0.0,0.0,0.0,0.0,0.0,0.0,0.0,0.0,0.0,0.0,0.0,0.0,0.0,0.0,0.0,0.0,0.0,0.0,0.0,0.0,-0.0679,-0.2401,-0.1233,-0.1179,-0.2888,-0.2827,-0.3476,-0.5057,-0.3572,-0.2621,-0.2496,-0.1,-0.0134,0.0,0.0,0.0,0.0,0.0,0.0,0.0,0.0,0.0,0.0,0.0,0.0,0.0,0.0,0.0,0.0,0.0,0.0,0.0,-1.0989,-1.1036,-1.1077,-1.1077,-1.1124,-1.1261,-1.1287,-1.1301,-1.1362,-1.1538,-1.1328,-1.1234,-1.1234,-1.1246,-1.126,-1.1241,-1.1246,-1.126,-1.1234,-1.1234,-1.1234,-1.1234,-1.1104,-1.059,-0.9486,-0.9775,-0.8848,-0.6659,-0.5906,-0.4934,-0.3888,-0.2678,-0.1791,-0.1034,-0.0345,0.0,0.0,0.0,0.0,0.0,0.0,0.0,0.0,0.0,0.0,0.0,0.0,0.0,0.0,0.0,0.0,0.0,0.0,0.0,0.0,0.0,0.0,0.0,0.0,0.0,0.0,0.0,0.0,0.0,0.0,0.0,0.0,0.0,0.0,0.0,0.0,0.0,0.0,0.0,0.0,0.0,0.0,0.0,0.0,0.0,0.0,0.0,0.0,0.0,-0.0254,-0.095,-0.0377,-0.1127,-0.3768,-0.2096,-0.1736,-0.3384,-0.1836,-0.0991,-0.1,-0.0335,0.0,0.0,0.0,0.0,0.0,0.0,0.0,0.0,0.0,0.0,0.0,0.0,0.0,0.0,0.0,0.0,0.0,0.0,0.0,0.0,-1.1234,-1.1199,-1.1246,-1.1287,-1.1335,-1.1409,-1.1565,-1.1586,-1.166,-1.187,-1.1626,-1.143,-1.143,-1.1525,-1.1545,-1.1436,-1.1484,-1.1477,-1.1369,-1.1321,-1.1294,-1.1294,-1.1253,-1.067,-0.9405,-1.0556,-0.9694,-0.6627,-0.6488,-0.5504,-0.3753,-0.2365,-0.1674,-0.168,-0.168,-0.1401,-0.0841,-0.0841,-0.0491,0.0,0.0,0.0,0.0,0.0,0.0,0.0,0.0,0.0,0.0,0.0,0.0,0.0,0.0,0.0,0.0,0.0,0.0,0.0,0.0,0.0,0.0,0.0,0.0,0.0,0.0,0.0,0.0,0.0,0.0,0.0,0.0,0.0,0.0,0.0,0.0,0.0,0.0,0.0,0.0,0.0,0.0,0.0,0.0,0.0,0.0,0.0,0.0,-0.1022,-0.3311,-0.1289,-0.0523,-0.172,-0.0596,0.0,0.0,0.0,0.0,0.0,0.0,0.0,0.0,0.0,0.0,0.0,0.0,0.0,0.0,0.0,0.0,0.0,0.0,0.0,0.0,0.0,0.0,0.0,-1.1234,-1.1287,-1.1436,-1.1586,-1.1728,-1.1877,-1.2033,-1.2054,-1.2054,-1.2135,-1.2054,-1.2128,-1.2128,-1.2054,-1.2054,-1.2128,-1.1911,-1.1823,-1.1823,-1.1694,-1.1613,-1.1613,-1.147,-1.1389,-1.1389,-1.124,-1.0323,-0.8447,-0.8447,-0.7553,-0.5744,-0.5744,-0.5718,-0.5723,-0.5723,-0.4681,-0.2869,-0.2869,-0.1751,0.0,0.0,0.0,0.0,0.0,0.0,0.0,0.0,0.0,0.0,0.0,0.0,0.0,0.0,0.0,0.0,0.0,0.0,0.0,0.0,0.0,0.0,0.0,0.0,0.0,0.0,0.0,0.0,0.0,0.0,0.0,0.0,0.0,0.0,0.0,0.0,0.0,0.0,0.0,0.0,0.0,0.0,0.0,0.0,0.0,0.0,0.0,0.0,0.0,-0.0066,0.0,0.0,0.0,0.0,0.0,0.0,0.0,0.0,0.0,0.0,0.0,0.0,0.0,0.0,0.0,0.0,0.0,0.0,0.0,0.0,0.0,0.0,0.0,0.0,0.0,0.0,0.0,-1.1775,-1.1816,-1.1864,-1.1911,-1.1959,-1.2006,-1.2054,-1.2135,-1.2101,-1.2203,-1.2216,-1.2257,-1.2352,-1.2182,-1.2135,-1.2135,-1.202,-1.1986,-1.1986,-1.1945,-1.1918,-1.1918,-1.1775,-1.1687,-1.1687,-1.1552,-1.1186,-1.0611,-0.9314,-0.7006,-0.385,-0.5202,-0.4361,-0.187,-0.3232,-0.3445,-0.2801,-0.1511,-0.1295,-0.1869,-0.0504,0.0,0.0,0.0,0.0,0.0,0.0,0.0,0.0,0.0,0.0,0.0,0.0,0.0,0.0,0.0,0.0,0.0,0.0,0.0,0.0,0.0,0.0,0.0,0.0,0.0,0.0,0.0,0.0,0.0,0.0,0.0,0.0,0.0,0.0,0.0,0.0,0.0,0.0,0.0,0.0,0.0,0.0,0.0,0.0,0.0,0.0,0.0,0.0,0.0,0.0,0.0,0.0,0.0,0.0,0.0,0.0,0.0,0.0,0.0,0.0,0.0,0.0,0.0,0.0,0.0,0.0,0.0,0.0,0.0,0.0,0.0,0.0,0.0,0.0,0.0,-1.2135,-1.2135,-1.2155,-1.2135,-1.2149,-1.2169,-1.2216,-1.223,-1.2264,-1.2359,-1.2372,-1.2406,-1.2494,-1.2338,-1.223,-1.223,-1.2176,-1.2149,-1.2149,-1.2094,-1.2135,-1.2135,-1.1972,-1.1918,-1.1918,-1.183,-1.1789,-1.1789,-1.0474,-0.8599,-0.617,-0.7404,-0.6677,-0.4434,-0.5663,-0.5373,-0.3923,-0.2692,-0.2039,-0.1675,-0.051,0.0,0.0,0.0,0.0,0.0,0.0,0.0,0.0,0.0,0.0,0.0,0.0,0.0,0.0,0.0,0.0,0.0,0.0,0.0,0.0,0.0,0.0,0.0,0.0,0.0,0.0,0.0,0.0,0.0,0.0,0.0,0.0,0.0,0.0,0.0,0.0,0.0,0.0,0.0,0.0,0.0,0.0,0.0,0.0,0.0,0.0,0.0,0.0,0.0,0.0,0.0,0.0,0.0,0.0,0.0,0.0,0.0,0.0,0.0,0.0,0.0,0.0,0.0,0.0,0.0,0.0,0.0,0.0,0.0,0.0,0.0,0.0,0.0,0.0,0.0,-1.2169,-1.2169,-1.2135,-1.2277,-1.2305,-1.2352,-1.2481,-1.2501,-1.2501,-1.2501,-1.2501,-1.2501,-1.2501,-1.2501,-1.2501,-1.2501,-1.2379,-1.2305,-1.2305,-1.2169,-1.2169,-1.2169,-1.2081,-1.2081,-1.2081,-1.2067,-1.2135,-1.2135,-1.1918,-1.1703,-1.143,-1.1575,-1.1502,-1.1214,-1.1214,-0.9168,-0.5825,-0.5535,-0.3354,-0.0219,-0.0073,0.0,0.0,0.0,0.0,0.0,0.0,0.0,0.0,0.0,0.0,0.0,0.0,0.0,0.0,0.0,0.0,0.0,0.0,0.0,0.0,0.0,0.0,0.0,0.0,0.0,0.0,0.0,0.0,0.0,0.0,0.0,0.0,0.0,0.0,0.0,0.0,0.0,0.0,0.0,0.0,0.0,0.0,0.0,0.0,0.0,0.0,0.0,0.0,0.0,0.0,0.0,0.0,0.0,0.0,0.0,0.0,0.0,0.0,0.0,0.0,0.0,0.0,0.0,0.0,0.0,0.0,0.0,0.0,0.0,0.0,0.0,0.0,0.0,0.0,0.0,-1.24,-1.24,-1.2406,-1.2447,-1.2454,-1.2461,-1.2494,-1.2501,-1.2501,-1.2501,-1.2501,-1.2501,-1.2501,-1.2501,-1.2501,-1.2501,-1.2474,-1.2454,-1.2454,-1.242,-1.24,-1.24,-1.2291,-1.2237,-1.2237,-1.2121,-1.2135,-1.2135,-1.2026,-1.1237,-0.978,-1.1279,-1.0384,-0.7542,-0.7393,-0.6794,-0.5751,-0.2695,-0.1724,-0.2098,-0.06,0.0,0.0,0.0,0.0,0.0,0.0,0.0,0.0,0.0,0.0,0.0,0.0,0.0,0.0,0.0,0.0,0.0,0.0,0.0,0.0,0.0,0.0,0.0,0.0,0.0,0.0,0.0,0.0,0.0,0.0,0.0,0.0,0.0,0.0,0.0,0.0,0.0,0.0,0.0,0.0,0.0,0.0,0.0,0.0,0.0,0.0,0.0,0.0,0.0,0.0,0.0,0.0,0.0,0.0,0.0,0.0,0.0,0.0,0.0,0.0,0.0,0.0,0.0,0.0,0.0,0.0,0.0,0.0,0.0,0.0,0.0,0.0,0.0,0.0,0.0,-1.2501,-1.2501,-1.2501,-1.2501,-1.2501,-1.2501,-1.2501,-1.2501,-1.2501,-1.2501,-1.1637,-1.1095,-1.1095,-1.023,-0.9687,-0.9687,-1.1405,-1.2501,-1.2501,-1.2501,-1.2501,-1.2501,-1.2427,-1.2386,-1.2386,-1.2305,-1.223,-1.2169,-1.2169,-1.1596,-1.0548,-1.1606,-1.0473,-0.7536,-0.8436,-0.7231,-0.4525,-0.3246,-0.2266,-0.1512,-0.0454,0.0,0.0,0.0,0.0,0.0,0.0,0.0,0.0,0.0,0.0,0.0,0.0,0.0,0.0,0.0,0.0,0.0,0.0,0.0,0.0,0.0,0.0,0.0,0.0,0.0,0.0,0.0,0.0,0.0,0.0,0.0,0.0,0.0,0.0,0.0,0.0,0.0,0.0,0.0,0.0,0.0,0.0,0.0,0.0,0.0,0.0,0.0,0.0,0.0,0.0,0.0,0.0,0.0,0.0,0.0,0.0,0.0,0.0,0.0,0.0,0.0,0.0,0.0,0.0,0.0,0.0,0.0,0.0,0.0,0.0,0.0,0.0,0.0,0.0,0.0,-1.2501,-1.2501,-1.2501,-1.2501,-1.2501,-1.2424,-1.2108,-1.203,-1.1953,-1.1637,-0.9998,-0.8905,-0.8905,-0.7349,-0.6332,-0.6332,-0.9532,-1.156,-1.156,-1.156,-1.156,-1.156,-1.156,-1.156,-1.156,-1.156,-1.1664,-1.1861,-1.1861,-1.1947,-1.2128,-1.1821,-1.0682,-0.9016,-1.0225,-0.7805,-0.3038,-0.4474,-0.3112,0.0,0.0,0.0,0.0,0.0,0.0,0.0,0.0,0.0,0.0,0.0,0.0,0.0,0.0,0.0,0.0,0.0,0.0,0.0,0.0,0.0,0.0,0.0,0.0,0.0,0.0,0.0,0.0,0.0,0.0,0.0,0.0,0.0,0.0,0.0,0.0,0.0,0.0,0.0,0.0,0.0,0.0,0.0,0.0,0.0,0.0,0.0,0.0,0.0,0.0,0.0,0.0,0.0,0.0,0.0,0.0,0.0,0.0,0.0,0.0,0.0,0.0,0.0,0.0,0.0,0.0,0.0,0.0,0.0,0.0,0.0,0.0,0.0,0.0,0.0,0.0,0.0,-1.2501,-1.2501,-1.2501,-1.2501,-1.2501,-1.1876,-1.0153,-0.992,-0.9216,-0.7501,-0.6956,-0.68,-0.68,-0.6488,-0.6332,-0.6332,-0.6878,-0.7271,-0.7271,-0.7271,-0.7271,-0.7271,-0.7271,-0.7271,-0.7271,-0.7271,-0.8119,-0.9816,-0.9816,-1.0738,-1.2433,-1.0643,-0.9634,-0.9166,-0.5907,-0.3966,-0.2957,-0.1559,-0.0546,0.0,0.0,0.0,0.0,0.0,0.0,0.0,0.0,0.0,0.0,0.0,0.0,0.0,0.0,0.0,0.0,0.0,0.0,0.0,0.0,0.0,0.0,0.0,0.0,0.0,0.0,0.0,0.0,0.0,0.0,0.0,0.0,0.0,0.0,0.0,0.0,0.0,0.0,0.0,0.0,0.0,0.0,0.0,0.0,0.0,0.0,0.0,0.0,0.0,0.0,0.0,0.0,0.0,0.0,0.0,0.0,0.0,0.0,0.0,0.0,0.0,0.0,0.0,0.0,0.0,0.0,0.0,0.0,0.0,0.0,0.0,0.0,0.0,0.0,0.0,0.0,0.0,-1.2501,-1.2501,-1.2501,-1.2501,-1.2501,-1.1798,-0.9687,-0.9376,-0.8672,-0.6566,-0.5318,-0.4615,-0.4615,-0.3601,-0.2899,-0.2899,-0.2899,-0.2899,-0.2899,-0.5006,-0.6332,-0.6332,-0.6332,-0.6332,-0.6332,-0.6332,-0.68,-0.7738,-0.7738,-0.8205,-0.9138,-0.8205,-0.7111,-0.5939,-0.5162,-0.3523,-0.1411,-0.1568,-0.102,0.0,0.0,0.0,0.0,0.0,0.0,0.0,0.0,0.0,0.0,0.0,0.0,0.0,0.0,0.0,0.0,0.0,0.0,0.0,0.0,0.0,0.0,0.0,0.0,0.0,0.0,0.0,0.0,0.0,0.0,0.0,0.0,0.0,0.0,0.0,0.0,0.0,0.0,0.0,0.0,0.0,0.0,0.0,0.0,0.0,0.0,0.0,0.0,0.0,0.0,0.0,0.0,0.0,0.0,0.0,0.0,0.0,0.0,0.0,0.0,0.0,0.0,0.0,0.0,0.0,0.0,0.0,0.0,0.0,0.0,0.0,0.0,0.0,0.0,0.0,0.0,0.0,-1.2501,-1.2108,-1.1798,-1.1798,-1.1405,-1.0385,-0.8279,-0.7968,-0.7189,-0.5084,-0.3366,-0.2349,-0.2349,-0.0941,0.0,0.0,0.0,0.0,0.0,-0.3055,-0.4852,-0.4852,-0.4852,-0.4852,-0.4852,-0.4852,-0.5084,-0.5552,-0.5552,-0.5786,-0.6254,-0.5786,-0.4693,-0.313,-0.4303,-0.3055,-0.0079,-0.1725,-0.149,0.0,0.0,0.0,0.0,0.0,0.0,0.0,0.0,0.0,0.0,0.0,0.0,0.0,0.0,0.0,0.0,0.0,0.0,0.0,0.0,0.0,0.0,0.0,0.0,0.0,0.0,0.0,0.0,0.0,0.0,0.0,0.0,0.0,0.0,0.0,0.0,0.0,0.0,0.0,0.0,0.0,0.0,0.0,0.0,0.0,0.0,0.0,0.0,0.0,0.0,0.0,0.0,0.0,0.0,0.0,0.0,0.0,0.0,0.0,0.0,0.0,0.0,0.0,0.0,0.0,0.0,0.0,0.0,0.0,0.0,0.0,0.0,0.0,0.0,0.0,0.0,0.0,-1.2501,-1.0934,-0.9609,-0.9609,-0.805,-0.602,-0.3912,-0.3599,-0.2819,-0.0706,-0.0314,-0.0236,-0.0236,-0.0079,0.0,0.0,0.0,0.0,0.0,-0.0314,-0.0471,-0.0471,-0.0471,-0.0471,-0.0471,-0.0471,-0.1411,-0.3365,-0.3365,-0.4381,-0.6254,-0.4303,-0.3286,-0.3052,-0.1254,-0.0314,0.0,-0.0157,-0.0157,0.0,0.0,0.0,0.0,0.0,0.0,0.0,0.0,0.0,0.0,0.0,0.0,0.0,0.0,0.0,0.0,0.0,0.0,0.0,0.0,0.0,0.0,0.0,0.0,0.0,0.0,0.0,0.0,0.0,0.0,0.0,0.0,0.0,0.0,0.0,0.0,0.0,0.0,0.0,0.0,0.0,0.0,0.0,0.0,0.0,0.0,0.0,0.0,0.0,0.0,0.0,0.0,0.0,0.0,0.0,0.0,0.0,0.0,0.0,0.0,0.0,0.0,0.0,0.0,0.0,0.0,0.0,0.0,0.0,0.0,0.0,0.0,0.0,0.0,0.0,0.0,0.0,-1.0856,-0.992,-0.8983,-0.7734,-0.68,-0.5552,-0.3443,-0.313,-0.2349,-0.0235,0.0,0.0,0.0,0.0,0.0,0.0,0.0,0.0,0.0,0.0,0.0,0.0,0.0,0.0,0.0,0.0,-0.0392,-0.1177,-0.1177,-0.1568,-0.235,-0.1568,-0.1177,-0.1177,-0.0314,0.0,0.0,0.0,0.0,0.0,0.0,0.0,0.0,0.0,0.0,0.0,0.0,0.0,0.0,0.0,0.0,0.0,0.0,0.0,0.0,0.0,0.0,0.0,0.0,0.0,0.0,0.0,0.0,0.0,0.0,0.0,0.0,0.0,0.0,0.0,0.0,0.0,0.0,0.0,0.0,0.0,0.0,0.0,0.0,0.0,0.0,0.0,0.0,0.0,0.0,0.0,0.0,0.0,0.0,0.0,0.0,0.0,0.0,0.0,0.0,0.0,0.0,0.0,0.0,0.0,0.0,0.0,0.0,0.0,0.0,0.0,0.0,0.0,0.0,0.0,0.0,0.0,0.0,0.0,0.0,0.0,-0.9687,-0.8356,-0.6956,-0.5552,-0.4774,-0.3836,-0.235,-0.2115,-0.1646,-0.0157,0.0,0.0,0.0,0.0,0.0,0.0,0.0,0.0,0.0,0.0,0.0,0.0,0.0,0.0,0.0,0.0,0.0,0.0,0.0,0.0,0.0,0.0,0.0,0.0,0.0,0.0,0.0,0.0,0.0,0.0,0.0,0.0,0.0,0.0,0.0,0.0,0.0,0.0,0.0,0.0,0.0,0.0,0.0,0.0,0.0,0.0,0.0,0.0,0.0,0.0,0.0,0.0,0.0,0.0,0.0,0.0,0.0,0.0,0.0,0.0,0.0,0.0,0.0,0.0,0.0,0.0,0.0,0.0,0.0,0.0,0.0,0.0,0.0,0.0,0.0,0.0,0.0,0.0,0.0,0.0,0.0,0.0,0.0,0.0,0.0,0.0,0.0,0.0,0.0,0.0,0.0,0.0,0.0,0.0,0.0,0.0,0.0,0.0,0.0,0.0,0.0,0.0,0.0,0.0,0.0,0.0,-0.9371,-0.5939,-0.313,-0.3052,-0.1333,0.0,0.0,0.0,0.0,0.0,0.0,0.0,0.0,0.0,0.0,0.0,0.0,0.0,0.0,0.0,0.0,0.0,0.0,0.0,0.0,0.0,0.0,0.0,0.0,0.0,0.0,0.0,0.0,0.0,0.0,0.0,0.0,0.0,0.0,0.0,0.0,0.0,0.0,0.0,0.0,0.0,0.0,0.0,0.0,0.0,0.0,0.0,0.0,0.0,0.0,0.0,0.0,0.0,0.0,0.0,0.0,0.0,0.0,0.0,0.0,0.0,0.0,0.0,0.0,0.0,0.0,0.0,0.0,0.0,0.0,0.0,0.0,0.0,0.0,0.0,0.0,0.0,0.0,0.0,0.0,0.0,0.0,0.0,0.0,0.0,0.0,0.0,0.0,0.0,0.0,0.0,0.0,0.0,0.0,0.0,0.0,0.0,0.0,0.0,0.0,0.0,0.0,0.0,0.0,0.0,0.0,0.0,0.0,0.0,0.0,0.0,-0.5549,-0.399,-0.2662,-0.1177,-0.0392,0.0,0.0,0.0,0.0,0.0,0.0,0.0,0.0,0.0,0.0,0.0,0.0,0.0,0.0,0.0,0.0,0.0,0.0,0.0,0.0,0.0,0.0,0.0,0.0,0.0,0.0,0.0,0.0,0.0,0.0,0.0,0.0,0.0,0.0,0.0,0.0,0.0,0.0,0.0,0.0,0.0,0.0,0.0,0.0,0.0,0.0,0.0,0.0,0.0,0.0,0.0,0.0,0.0,0.0,0.0,0.0,0.0,0.0,0.0,0.0,0.0,0.0,0.0,0.0,0.0,0.0,0.0,0.0,0.0,0.0,0.0,0.0,0.0,0.0,0.0,0.0,0.0,0.0,0.0,0.0,0.0,0.0,0.0,0.0,0.0,0.0,0.0,0.0,0.0,0.0,0.0,0.0,0.0,0.0,0.0,0.0,0.0,0.0,0.0,0.0,0.0,0.0,0.0,0.0,0.0,0.0,0.0,0.0,0.0,0.0,0.0,-0.3599,-0.2427,-0.149,-0.0236,0.0,0.0,0.0,0.0,0.0,0.0,0.0,0.0,0.0,0.0,0.0,0.0,0.0,0.0,0.0,0.0,0.0,0.0,0.0,0.0,0.0,0.0,0.0,0.0,0.0,0.0,0.0,0.0,0.0,0.0,0.0,0.0,0.0,0.0,0.0,0.0,0.0,0.0,0.0,0.0,0.0,0.0,0.0,0.0,0.0,0.0,0.0,0.0,0.0,0.0,0.0,0.0,0.0,0.0,0.0,0.0,0.0,0.0,0.0,0.0,0.0,0.0,0.0,0.0,0.0,0.0,0.0,0.0,0.0,0.0,0.0,0.0,0.0,0.0,0.0,0.0,0.0,0.0,0.0,0.0,0.0,0.0,0.0,0.0,0.0,0.0,0.0,0.0,0.0,0.0,0.0,0.0,0.0,0.0,0.0,0.0,0.0,0.0,0.0,0.0,0.0,0.0,0.0,0.0,0.0,0.0,0.0,0.0,0.0,0.0,0.0,0.0,-0.2895,-0.1333,0.0,0.0,0.0,0.0,0.0,0.0,0.0,0.0,0.0,0.0,0.0,0.0,0.0,0.0,0.0,0.0,0.0,0.0,0.0,0.0,0.0,0.0,0.0,0.0,0.0,0.0,0.0,0.0,0.0,0.0,0.0,0.0,0.0,0.0,0.0,0.0,0.0,0.0,0.0,0.0,0.0,0.0,0.0,0.0,0.0,0.0,0.0,0.0,0.0,0.0,0.0,0.0,0.0,0.0,0.0,0.0,0.0,0.0,0.0,0.0,0.0,0.0,0.0,0.0,0.0,0.0,0.0,0.0,0.0,0.0,0.0,0.0,0.0,0.0,0.0,0.0,0.0,0.0,0.0,0.0,0.0,0.0,0.0,0.0,0.0,0.0,0.0,0.0,0.0,0.0,0.0,0.0,0.0,0.0,0.0,0.0,0.0,0.0,0.0,0.0,0.0,0.0,0.0,0.0,0.0,0.0,0.0,0.0,0.0,0.0,0.0,0.0,0.0,0.0,-0.102,-0.0314,0.0,0.0,0.0,0.0,0.0,0.0,0.0,0.0,0.0,0.0,0.0,0.0,0.0,0.0,0.0,0.0,0.0,0.0,0.0,0.0,0.0,0.0,0.0,0.0,0.0,0.0,0.0,0.0,0.0,0.0,0.0,0.0,0.0,0.0,0.0,0.0,0.0,0.0,0.0,0.0,0.0,0.0,0.0,0.0,0.0,0.0,0.0,0.0,0.0,0.0,0.0,0.0,0.0,0.0,0.0,0.0,0.0,0.0,0.0,0.0,0.0,0.0,0.0,0.0,0.0,0.0,0.0,0.0,0.0,0.0,0.0,0.0,0.0,0.0,0.0,0.0,0.0,0.0,0.0,0.0,0.0,0.0,0.0,0.0,0.0,0.0,0.0,0.0,0.0,0.0,0.0,0.0,0.0,0.0,0.0,0.0,0.0,0.0,0.0,0.0,0.0,0.0,0.0,0.0,0.0,0.0,0.0,0.0,0.0,0.0,0.0,0.0,0.0,0.0,-0.024,0.0,0.0,0.0,0.0,0.0,0.0,0.0,0.0,0.0,0.0,0.0,0.0,0.0,0.0,0.0,0.0,0.0,0.0,0.0,0.0,0.0,0.0,0.0,0.0,0.0,0.0,0.0,0.0,0.0,0.0,0.0,0.0,0.0,0.0,0.0,0.0,0.0,0.0,0.0,0.0,0.0,0.0,0.0,0.0,0.0,0.0,0.0,0.0,0.0,0.0,0.0,0.0,0.0,0.0,0.0,0.0,0.0,0.0,0.0,0.0,0.0,0.0,0.0,0.0,0.0,0.0,0.0,0.0,0.0,0.0,0.0,0.0,0.0,0.0,0.0,0.0,0.0,0.0,0.0,0.0,0.0,0.0,0.0,0.0,0.0,0.0,0.0,0.0,0.0,0.0,0.0,0.0,0.0,0.0,0.0,0.0,0.0,0.0,0.0,0.0,0.0,0.0,0.0,0.0,0.0,0.0,0.0,0.0,0.0,0.0,0.0,0.0,0.0,0.0,0.0,0.0,0.0,0.0,0.0,0.0,0.0,0.0,0.0,0.0,0.0,0.0,0.0,0.0,0.0,0.0,0.0,0.0,0.0,0.0,0.0,0.0,0.0,0.0,0.0,0.0,0.0,0.0,0.0,0.0,0.0,0.0,0.0,0.0,0.0,0.0,0.0,0.0,0.0,0.0,0.0,0.0,0.0,0.0,0.0,0.0,0.0,0.0,0.0,0.0,0.0,0.0,0.0,0.0,0.0,0.0,0.0,0.0,0.0,0.0,0.0,0.0,0.0,0.0,0.0,0.0,0.0,0.0,0.0,0.0,0.0,0.0,0.0,0.0,0.0,0.0,0.0,0.0,0.0,0.0,0.0,0.0,0.0,0.0,0.0,0.0,0.0,0.0,0.0,0.0,0.0,0.0,0.0,0.0,0.0,0.0,0.0,0.0,0.0,0.0,0.0,0.0,0.0,0.0,0.0,0.0,0.0,0.0,0.0,0.0,0.0,0.0,0.0,0.0,0.0,0.0,0.0,0.0,0.0,0.0,0.0,0.0,0.0,0.0,0.0,0.0,0.0,0.0,0.0,0.0,0.0,0.0,0.0,0.0,0.0,0.0,0.0,0.0,0.0,0.0,0.0,0.0,0.0,0.0,0.0,0.0,0.0,0.0,0.0,0.0,0.0,0.0,0.0,0.0,0.0,0.0,0.0,0.0,0.0,0.0,0.0,0.0,0.0,0.0,0.0,0.0,0.0,0.0,0.0,0.0,0.0,0.0,0.0,0.0,0.0,0.0,0.0,0.0,0.0,0.0,0.0,0.0,0.0,0.0,0.0,0.0,0.0,0.0,0.0,0.0,0.0,0.0,0.0,0.0,0.0,0.0,0.0,0.0,0.0,0.0,0.0,0.0,0.0,0.0,0.0,0.0,0.0,0.0,0.0,0.0,0.0,0.0,0.0,0.0,0.0,0.0,0.0,0.0,0.0,0.0,0.0,0.0,0.0,0.0,0.0,0.0,0.0,0.0,0.0,0.0,0.0,0.0,0.0,0.0,0.0,0.0,0.0,0.0,0.0,0.0,0.0,0.0,0.0,0.0,0.0,0.0,0.0,0.0,0.0,0.0,0.0,0.0,0.0,0.0,0.0,0.0,0.0,0.0,0.0,0.0,0.0,0.0,0.0,0.0,0.0,0.0,0.0,0.0,0.0,0.0,0.0,0.0,0.0,0.0,0.0,0.0,0.0,0.0,0.0,0.0,0.0,0.0,0.0,0.0,0.0,0.0,0.0,0.0,0.0,0.0,0.0,0.0,0.0,0.0,0.0,0.0,0.0,0.0,0.0,0.0,0.0,0.0,0.0,0.0,0.0,0.0,0.0,0.0,0.0,0.0,0.0,0.0,0.0,0.0,0.0,0.0,0.0,0.0,0.0,0.0,0.0,0.0,0.0,0.0,0.0,0.0,0.0,0.0,0.0,0.0,0.0,0.0,0.0,0.0,0.0,0.0,0.0,0.0,0.0,0.0,0.0,0.0,0.0,0.0,0.0,0.0,0.0,0.0,0.0]},{"header":{"parameterUnit":"m.s-1","parameterCategory":1,"la1":30.6,"la2":28.766,"lo1":-90.7593,"lo2":-88.6598,"dy":0.0162,"dx":0.0183,"nx":116,"ny":114,"refTime":"2023-10-22T12:00:00:Z","depth":0,"parameterNumber":3,"parameterNumberName":"V-component_of_WINDS"},"data":[0.0,0.0,0.0,0.0,0.0,0.0,0.0,0.0,0.0,0.0,0.0,0.0,0.0,0.0,0.0,0.0,0.0,0.0,0.0,0.0,0.0,0.0,0.0,0.0,0.0,0.0,0.0,0.0,0.0,0.0,0.0,0.0,0.0,0.0,0.0,0.0,0.0,0.0,0.0,0.0,0.0,0.0,0.0,0.0,0.0,0.0,0.0,0.0,0.0,0.0,0.0,0.0,0.0,0.0,0.0,0.0,0.0,0.0,0.0,0.0,0.0,0.0,0.0,0.0,0.0,0.0,0.0,0.0,0.0,0.0,0.0,0.0,0.0,0.0,0.0,0.0,0.0,0.0,0.0,0.0,0.0,0.0,0.0,0.0,0.0,0.0,0.0,0.0,0.0,0.0,0.0,0.0,0.0,0.0,0.0,0.0,0.0,0.0,0.0,0.0,0.0,0.0,0.0,0.0,0.0,0.0,0.0,0.0,0.0,0.0,0.0,0.0,0.0,0.0,0.0,0.0,0.0,0.0,0.0,0.0,0.0,0.0,0.0,0.0,0.0,0.0,0.0,0.0,0.0,0.0,0.0,0.0,0.0,0.0,0.0,0.0,0.0,0.0,0.0,0.0,0.0,0.0,0.0,0.0,0.0,0.0,0.0,0.0,0.0,0.0,0.0,0.0,0.0,0.0,0.0,0.0,0.0,0.0,0.0,0.0,0.0,0.0,0.0,0.0,0.0,0.0,0.0,0.0,0.0,0.0,0.0,0.0,0.0,0.0,0.0,0.0,0.0,0.0,0.0,0.0,0.0,0.0,0.0,0.0,0.0,0.0,0.0,0.0,0.0,0.0,0.0,0.0,0.0,0.0,0.0,0.0,0.0,0.0,0.0,0.0,0.0,0.0,0.0,0.0,0.0,0.0,0.0,0.0,0.0,0.0,0.0,0.0,0.0,0.0,0.0,0.0,0.0,0.0,0.0,0.0,0.0,0.0,0.0,0.0,0.0,0.0,0.0,0.0,0.0,0.0,0.0,0.0,0.0,0.0,0.0,0.0,0.0,0.0,0.0,0.0,0.0,0.0,0.0,0.0,0.0,0.0,0.0,0.0,0.0,0.0,0.0,0.0,0.0,0.0,0.0,0.0,0.0,0.0,0.0,0.0,0.0,0.0,0.0,0.0,0.0,0.0,0.0,0.0,0.0,0.0,0.0,0.0,0.0,0.0,0.0,0.0,0.0,0.0,0.0,0.0,0.0,0.0,0.0,0.0,0.0,0.0,0.0,0.0,0.0,0.0,0.0,0.0,0.0,0.0,0.0,0.0,0.0,0.0,0.0,0.0,0.0,0.0,0.0,0.0,0.0,0.0,0.0,0.0,0.0,0.0,0.0,0.0,0.0,0.0,0.0,0.0,0.0,0.0,0.0,0.0,0.0,0.0,0.0,0.0,0.0,0.0,0.0,0.0,0.0,0.0,0.0,0.0,0.0,0.0,0.0,0.0,0.0,0.0,0.0,0.0,0.0,0.0,0.0,0.0,0.0,0.0,0.0,0.0,0.0,0.0,0.0,0.0,0.0,0.0,0.0,0.0,0.0,0.0,0.0,0.0,0.0,0.0,0.0,0.0,0.0,0.0,0.0,0.0,0.0,0.0,0.0,0.0,0.0,0.0,0.0,0.0,0.0,0.0,0.0,0.0,0.0,0.0,0.0,0.0,0.0,0.0,0.0,0.0,0.0,0.0,0.0,0.0,0.0,0.0,0.0,0.0,0.0,0.0,0.0,0.0,0.0,0.0,0.0,0.0,0.0,0.0,0.0,0.0,0.0,0.0,0.0,0.0,0.0,0.0,0.0,0.0,0.0,0.0,0.0,0.0,0.0,0.0,0.0,0.0,0.0,0.0,0.0,0.0,0.0,0.0,0.0,0.0,0.0,0.0,0.0,0.0,0.0,0.0,0.0,0.0,0.0,0.0,0.0,0.0,0.0,0.0,0.0,0.0,0.0,0.0,0.0,0.0,0.0,0.0,0.0,0.0,0.0,0.0,0.0,0.0,0.0,0.0,0.0,0.0,0.0,0.0,0.0,0.0,0.0,0.0,0.0,0.0,0.0,0.0,0.0,0.0,0.0,0.0,0.0,0.0,0.0,0.0,0.0,0.0,0.0,0.0,0.0,0.0,0.0,0.0,0.0,0.0,0.0,0.0,0.0,0.0,0.0,0.0,0.0,0.0,0.0,0.0,0.0,0.0,0.0,0.0,0.0,0.0,0.0,0.0,0.0,0.0,0.0,0.0,0.0,0.0,0.0,0.0,0.0,0.0,0.0,0.0,0.0,0.0,0.0,0.0,0.0,0.0,0.0,0.0,0.0,0.0,0.0,0.0,0.0,0.0,0.0,0.0,0.0,0.0,0.0,0.0,0.0,0.0,0.0,0.0,0.0,0.0,0.0,0.0,0.0,0.0,0.0,0.0,0.0,0.0,0.0,0.0,0.0,0.0,0.0,0.0,0.0,0.0,0.0,0.0,0.0,0.0,0.0,0.0,0.0,0.0,0.0,0.0,0.0,0.0,0.0,0.0,0.0,0.0,0.0,0.0,0.0,0.0,0.0,0.0,0.0,0.0,0.0,0.0,0.0,0.0,0.0,0.0,0.0,0.0,0.0,0.0,0.0,0.0,0.0,0.0,0.0,0.0,0.0,0.0,0.0,0.0,0.0,0.0,0.0,0.0,0.0,0.0,0.0,0.0,0.0,0.0,0.0,0.0,0.0,0.0,0.0,0.0,0.0,0.0,0.0,0.0,0.0,0.0,0.0,0.0,0.0,0.0,0.0,0.0,0.0,0.0,0.0,0.0,0.0,0.0,0.0,0.0,0.0,0.0,0.0,0.0,0.0,0.0,0.0,0.0,0.0,0.0,0.0,0.0,0.0,0.0,0.0,0.0,0.0,0.0,0.0,0.0,0.0,0.0,0.0,0.0,0.0,0.0,0.0,0.0,0.0,0.0,0.0,0.0,0.0,0.0,0.0,0.0,0.0,0.0,0.0,0.0,0.0,0.0,0.0,0.0,0.0,0.0,0.0,0.0,0.0,0.0,0.0,0.0,0.0,0.0,0.0,0.0,0.0,0.0,0.0,0.0,0.0,0.0,0.0,0.0,0.0,0.0,0.0,0.0,0.0,0.0,0.0,0.0,0.0,0.0,0.0,0.0,0.0,0.0,0.0,0.0,0.0,0.0,0.0,0.0,0.0,0.0,0.0,0.0,0.0,0.0,0.0,0.0,0.0,0.0,0.0,0.0,0.0,0.0,0.0,0.0,0.0,0.0,0.0,0.0,0.0,0.0,0.0,0.0,0.0,0.0,0.0,0.0,0.0,0.0,0.0,0.0,0.0,0.0,0.0,0.0,0.0,0.0,0.0,0.0,0.0,0.0,0.0,0.0,0.0,0.0,0.0,0.0,0.0,0.0,0.0,0.0,0.0,0.0,0.0,0.0,0.0,0.0,0.0,0.0,0.0,0.0,0.0,0.0,0.0,0.0,0.0,0.0,0.0,0.0,0.0,0.0,0.0,0.0,0.0,0.0,0.0,0.0,0.0,0.0,0.0,0.0,0.0,0.0,0.0,0.0,0.0,0.0,0.0,0.0,0.0,0.0,0.0,0.0,0.0,0.0,0.0,0.0,0.0,0.0,0.0,0.0,0.0,0.0,0.0,0.0,0.0,0.0,0.0,0.0,0.0,0.0,0.0,0.0,0.0,0.0,0.0,0.0,0.0,0.0,0.0,0.0,0.0,0.0,0.0,0.0,0.0,0.0,0.0,0.0,0.0,0.0,0.0,0.0,0.0,0.0,0.0,0.0,0.0,0.0,0.0,0.0,0.0,0.0,0.0,0.0,0.0,0.0,0.0,0.0,0.0,0.0,0.0,0.0,0.0,0.0,0.0,0.0,0.0,0.0,0.0,0.0,0.0,0.0,0.0,0.0,0.0,0.0,0.0,0.0,0.0,0.0,0.0,0.0,0.0,0.0,0.0,0.0,0.0,0.0,0.0,0.0,0.0,0.0,0.0,0.0,0.0,0.0,0.0,0.0,0.0,0.0,0.0,0.0,0.0,0.0,0.0,0.0,0.0,0.0,0.0,0.0,0.0,0.0,0.0,0.0,0.0,0.0,0.0,0.0,0.0,0.0,0.0,0.0,0.0,0.0,0.0,0.0,0.0,0.0,0.0,0.0,0.0,0.0,0.0,0.0,0.0,0.0,0.0,0.0,0.0,0.0,0.0,0.0,0.0,0.0,0.0,0.0,0.0,0.0,0.0,0.0,0.0,0.0,0.0,0.0,0.0,0.0,0.0,0.0,0.0,0.0,0.0,0.0,0.0,0.0,0.0,0.0,0.0,0.0,0.0,0.0,0.0,0.0,0.0,0.0,0.0,0.0,0.0,0.0,0.0,0.0,0.0,0.0,0.0,0.0,0.0,0.0,0.0,0.0,0.0,0.0,0.0,0.0,0.0,0.0,0.0,0.0,0.0,0.0,0.0,0.0,0.0,0.0,0.0,0.0,0.0,0.0,0.0,0.0,0.0,0.0,0.0,0.0,0.0,0.0,0.0,0.0,0.0,0.0,0.0,0.0,0.0,0.0,0.0,0.0,0.0,0.0,0.0,0.0,0.0,0.0,0.0,0.0,0.0,0.0,0.0,0.0,0.0,0.0,0.0,0.0,0.0,0.0,0.0,0.0,0.0,0.0,0.0,0.0,0.0,0.0,0.0,0.0,0.0,0.0,0.0,0.0,0.0,0.0,0.0,0.0,0.0,0.0,0.0,0.0,0.0,0.0,0.0,0.0,0.0,0.0,0.0,0.0,0.0,0.0,0.0,0.0,0.0,0.0,0.0,0.0,0.0,0.0,0.0,0.0,0.0,0.0,0.0,0.0,0.0,0.0,0.0,0.0,0.0,0.0,0.0,0.0,0.0,0.0,0.0,0.0,0.0,0.0,0.0,0.0,0.0,0.0,0.0,0.0,0.0,0.0,0.0,0.0,0.0,0.0,0.0,0.0,0.0,0.0,0.0,0.0,0.0,0.0,0.0,0.0,0.0,0.0,0.0,0.0,0.0,0.0,0.0,0.0,0.0,0.0,0.0,0.0,0.0,0.0,0.0,0.0,0.0,0.0,0.0,0.0,0.0,0.0,0.0,0.0,0.0,0.0,0.0,0.0,0.0,0.0,0.0,0.0,0.0,0.0,0.0,0.0,0.0,0.0,0.0,0.0,0.0,0.0,0.0,0.0,0.0,0.0,0.0,0.0,0.0,0.0,0.0,0.0,0.0,0.0,0.0,0.0,0.0,0.0,0.0,0.0,0.0,0.0,0.0,0.0,0.0,0.0,0.0,0.0,0.0,0.0,0.0,0.0,0.0,0.0,0.0,0.0,0.0,0.0,0.0,0.0,0.0,0.0,0.0,0.0,0.0,0.0,0.0,0.0,0.0,0.0,0.0,0.0,0.0,0.0,0.0,0.0,0.0,0.0,0.0,0.0,0.0,0.0,0.0,0.0,0.0,0.0,0.0,0.0,0.0,0.0,0.0,0.0,0.0,0.0,0.0,0.0,0.0,0.0,0.0,0.0,0.0,0.0,0.0,0.0,0.0,0.0,0.0,0.0,0.0,0.0,0.0,0.0,0.0,0.0,0.0,0.0,0.0,0.0,0.0,0.0,0.0,0.0,0.0,0.0,0.0,0.0,0.0,0.0,0.0,0.0,0.0,0.0,0.0,0.0,0.0,0.0,0.0,0.0,0.0,0.0,0.0,0.0,0.0,0.0,0.0,0.0,0.0,0.0,0.0,0.0,0.0,0.0,0.0,0.0,0.0,0.0,0.0,0.0,0.0,0.0,0.0,0.0,0.0,0.0,0.0,0.0,0.0,0.0,0.0,0.0,0.0,0.0,0.0,0.0,0.0,0.0,0.0,0.0,0.0,0.0,0.0,0.0,0.0,0.0,0.0,0.0,0.0,0.0,0.0,0.0,0.0,0.0,0.0,0.0,0.0,0.0,0.0,0.0,0.0,0.0,0.0,0.0,0.0,0.0,0.0,0.0,0.0,0.0,0.0,0.0,0.0,0.0,0.0,0.0,0.0,0.0,2.9517,2.901,0.0,0.0,0.0,0.0,0.0,0.0,0.0,0.0,0.0,0.0,0.0,0.0,0.0,0.0,0.0,0.0,0.0,0.0,0.0,0.0,0.0,0.0,0.0,0.0,0.0,0.0,0.0,0.0,0.0,0.0,0.0,0.0,0.0,0.0,0.0,0.0,0.0,3.7922,3.7922,3.7922,3.7889,3.7087,3.6309,3.56,0.0,0.0,0.0,0.0,0.0,0.0,0.0,0.0,0.0,0.0,0.0,0.0,0.0,0.0,0.0,0.0,0.0,0.0,0.0,0.0,0.0,0.0,0.0,0.0,0.0,0.0,0.0,0.0,0.0,0.0,0.0,0.0,0.0,0.0,0.0,0.0,0.0,0.0,0.0,0.0,0.0,0.0,0.0,0.0,0.0,0.0,0.0,0.0,0.0,0.0,0.0,0.0,0.0,0.0,0.0,0.0,0.0,0.0,0.0,0.0,0.0,0.0,0.0,0.0,0.0,0.0,0.0,0.0,0.0,0.0,3.0398,3.0059,0.0,0.0,0.0,0.0,0.0,0.0,0.0,0.0,0.0,0.0,0.0,0.0,0.0,0.0,0.0,0.0,0.0,0.0,0.0,0.0,0.0,0.0,0.0,3.8294,3.8294,3.8294,3.8294,3.8294,0.0,0.0,0.0,0.0,0.0,0.0,3.8294,3.8294,3.8294,3.8294,3.8294,3.8227,3.8091,3.8091,3.7347,3.6005,3.587,0.0,0.0,0.0,0.0,0.0,0.0,0.0,0.0,0.0,0.0,0.0,0.0,0.0,0.0,0.0,0.0,0.0,0.0,0.0,0.0,0.0,0.0,0.0,0.0,0.0,0.0,0.0,0.0,0.0,0.0,0.0,0.0,0.0,0.0,0.0,0.0,0.0,0.0,0.0,0.0,0.0,0.0,0.0,0.0,0.0,0.0,0.0,0.0,0.0,0.0,0.0,0.0,0.0,0.0,0.0,0.0,0.0,0.0,0.0,0.0,0.0,0.0,0.0,3.119,3.119,3.119,3.119,3.119,3.119,3.119,3.119,3.119,3.119,0.0,0.0,0.0,0.0,0.0,0.0,0.0,0.0,0.0,0.0,0.0,0.0,0.0,0.0,0.0,0.0,0.0,0.0,0.0,3.9808,3.9808,3.9808,3.9808,3.9808,3.9808,3.9808,3.9808,0.0,0.0,0.0,0.0,0.0,3.9808,3.9808,3.9808,3.9808,3.9808,3.9503,3.8836,3.8836,3.8396,3.7584,3.6907,3.666,3.6626,0.0,0.0,0.0,0.0,0.0,0.0,0.0,0.0,0.0,0.0,0.0,0.0,0.0,0.0,0.0,0.0,0.0,0.0,0.0,0.0,0.0,0.0,0.0,0.0,0.0,0.0,0.0,0.0,0.0,0.0,0.0,0.0,0.0,0.0,0.0,0.0,0.0,0.0,0.0,0.0,0.0,3.092,3.092,0.0,0.0,0.0,0.0,0.0,0.0,0.0,0.0,0.0,0.0,0.0,0.0,0.0,3.119,3.119,3.119,3.119,3.119,3.119,3.119,3.119,3.119,3.119,3.119,3.119,0.0,3.119,3.119,0.0,0.0,0.0,0.0,0.0,0.0,0.0,0.0,0.0,0.0,0.0,0.0,0.0,0.0,0.0,0.0,0.0,0.0,0.0,0.0,0.0,4.0113,4.0113,4.0113,4.0113,4.0113,4.0113,4.0113,0.0,0.0,4.0113,4.0113,4.0113,4.0113,4.0113,4.0113,4.0113,3.9943,3.9639,3.9639,3.9469,3.9106,3.8386,3.7787,3.7347,3.6603,0.0,0.0,0.0,0.0,0.0,0.0,0.0,0.0,0.0,0.0,0.0,0.0,0.0,0.0,0.0,0.0,0.0,0.0,0.0,0.0,0.0,0.0,0.0,0.0,0.0,0.0,0.0,0.0,0.0,0.0,0.0,0.0,0.0,0.0,0.0,0.0,0.0,0.0,0.0,3.119,3.119,3.119,3.0958,3.0818,0.0,0.0,0.0,0.0,0.0,0.0,0.0,0.0,0.0,3.119,3.119,3.1393,3.1819,3.1819,3.2036,3.2442,3.2442,3.2442,3.2442,3.2442,3.2205,3.1819,3.1819,3.1562,3.119,3.119,3.119,3.119,0.0,0.0,0.0,0.0,3.119,3.119,0.0,0.0,0.0,0.0,0.0,0.0,0.0,0.0,0.0,0.0,0.0,0.0,4.0113,4.0113,4.0113,4.0113,4.0113,4.0113,4.0113,4.0113,4.0113,4.0113,4.0113,4.0113,4.0113,4.0113,4.0113,4.0113,4.0113,4.0113,4.0113,4.0113,4.0113,4.0079,3.9537,3.887,3.8125,3.7381,3.71,3.7032,0.0,0.0,0.0,0.0,0.0,0.0,0.0,0.0,0.0,0.0,0.0,0.0,0.0,0.0,0.0,0.0,0.0,0.0,0.0,0.0,0.0,0.0,0.0,0.0,0.0,0.0,0.0,0.0,0.0,0.0,0.0,0.0,0.0,0.0,0.0,0.0,0.0,3.119,3.119,3.119,3.119,3.119,0.0,0.0,0.0,0.0,0.0,0.0,3.1765,3.1765,3.1765,3.1765,3.1765,3.2036,3.2598,3.2598,3.2848,3.3423,3.3423,3.3423,3.3423,3.3423,3.3085,3.2598,3.2598,3.2273,3.1732,3.136,3.119,3.119,3.119,3.119,3.119,3.119,3.119,3.119,0.0,0.0,0.0,0.0,0.0,0.0,0.0,0.0,0.0,0.0,0.0,4.0113,4.0113,4.0113,4.0113,4.0113,4.0113,4.0113,4.0113,4.0113,4.0113,4.0113,4.0113,4.0113,4.0113,4.0113,4.0113,4.0113,4.0113,4.0113,4.0113,4.0113,4.0113,4.0113,4.0079,3.9639,3.8903,3.8159,3.7855,3.7855,3.7821,0.0,0.0,0.0,0.0,0.0,0.0,0.0,0.0,0.0,0.0,0.0,0.0,0.0,0.0,0.0,0.0,0.0,0.0,0.0,0.0,0.0,0.0,0.0,0.0,0.0,0.0,0.0,0.0,0.0,0.0,0.0,0.0,0.0,0.0,0.0,0.0,0.0,0.0,3.119,3.119,0.0,0.0,0.0,0.0,3.2192,3.2226,3.2564,3.3254,3.3288,3.3288,3.3288,3.3288,3.3322,3.3355,3.3355,3.3355,3.3423,3.3423,3.3423,3.3423,3.3423,3.3389,3.3355,3.3355,3.3322,3.3186,3.1765,3.119,3.119,3.119,3.119,3.119,3.119,3.119,3.119,0.0,0.0,0.0,0.0,0.0,0.0,0.0,0.0,4.0113,4.0113,4.0113,4.0113,4.0113,4.0113,4.0113,4.0113,4.0113,4.0113,4.0113,4.0113,4.0113,4.0113,4.0113,4.0113,4.0113,4.0113,4.0113,4.0113,4.0113,4.0113,4.0113,4.0113,4.0113,4.0113,4.0113,3.9943,3.9673,3.8903,3.8599,3.8565,3.8091,3.7753,0.0,0.0,0.0,0.0,0.0,0.0,0.0,0.0,0.0,0.0,0.0,0.0,0.0,0.0,0.0,0.0,0.0,0.0,0.0,0.0,0.0,0.0,0.0,0.0,0.0,0.0,0.0,0.0,0.0,0.0,0.0,0.0,0.0,0.0,0.0,0.0,0.0,3.119,3.1616,0.0,3.1921,3.2341,3.2713,3.2983,3.3017,3.3119,3.3389,3.3863,3.41,3.41,3.4573,3.5081,3.5554,3.5611,3.5825,3.6299,3.6299,3.6299,3.6299,3.6299,3.6028,3.5554,3.5047,3.4573,3.4032,3.3017,3.2611,3.2611,3.2611,3.2307,3.1921,3.1921,3.1616,3.119,0.0,0.0,0.0,0.0,0.0,0.0,0.0,4.0113,4.0113,4.0113,4.0113,4.0113,4.0113,4.0113,4.0113,4.0113,4.0113,4.0113,4.0113,4.0113,4.0113,4.0113,4.0113,4.0113,4.0113,4.0113,4.0113,4.0113,4.0113,4.0113,4.0113,4.0113,4.0113,4.0113,4.0113,4.0113,4.0079,3.9605,3.9368,3.9309,3.8836,3.8497,3.8261,0.0,0.0,0.0,0.0,0.0,0.0,0.0,0.0,0.0,0.0,0.0,0.0,0.0,0.0,0.0,0.0,0.0,0.0,0.0,0.0,0.0,0.0,0.0,0.0,0.0,0.0,0.0,0.0,0.0,0.0,0.0,0.0,0.0,0.0,3.1582,3.1664,3.1901,3.2374,3.2767,3.3038,3.3491,3.3998,3.4506,3.4539,3.4675,3.4912,3.5385,3.5656,3.5656,3.6129,3.6637,3.7168,3.7178,3.7415,3.7922,3.7922,3.7922,3.7922,3.7922,3.7618,3.7144,3.6603,3.6096,3.5622,3.5115,3.4912,3.4844,3.3795,3.3085,3.2645,3.2645,3.2341,3.1935,0.0,0.0,0.0,0.0,0.0,0.0,4.0113,4.0113,4.0113,4.0113,4.0113,4.0113,4.0113,4.0113,4.0113,4.0113,4.0113,4.0113,4.0113,4.0113,4.0113,4.0113,4.0113,4.0113,4.0113,4.0113,4.0146,4.0146,4.0146,4.018,4.018,4.018,4.018,4.018,4.018,4.0146,4.0146,4.0146,4.0113,4.0113,4.0113,3.9673,3.9039,0.0,0.0,0.0,0.0,0.0,0.0,0.0,0.0,0.0,0.0,0.0,0.0,0.0,0.0,0.0,0.0,0.0,0.0,0.0,0.0,0.0,0.0,0.0,0.0,0.0,0.0,0.0,0.0,0.0,0.0,0.0,0.0,0.0,3.2429,3.2327,3.2632,3.3355,3.3457,3.3761,3.4506,3.4573,3.5238,3.6728,3.6829,3.7168,3.7855,3.7922,3.7922,3.7922,3.7956,3.799,3.799,3.799,3.799,3.799,3.799,3.799,3.799,3.799,3.799,3.799,3.7956,3.7922,3.7922,3.7922,3.7922,3.7618,3.4675,3.3525,3.3491,3.3491,3.3457,3.3423,0.0,0.0,0.0,0.0,0.0,0.0,4.0113,4.0113,4.0113,4.0113,4.0113,4.0113,4.0113,4.0113,4.0113,4.0113,4.0113,4.0113,4.0113,4.0113,4.0113,4.0113,4.0113,4.0113,4.0113,4.0595,4.0899,4.0899,4.1407,4.1704,4.1704,4.1704,4.1704,4.1704,4.1704,4.1407,4.0899,4.0899,4.0595,4.0113,4.0113,3.9977,3.9808,0.0,0.0,0.0,0.0,0.0,0.0,0.0,0.0,0.0,0.0,0.0,0.0,0.0,0.0,0.0,0.0,0.0,0.0,0.0,0.0,0.0,0.0,0.0,0.0,0.0,0.0,0.0,0.0,0.0,0.0,0.0,3.3423,3.3322,3.3119,3.3085,3.3355,3.41,3.4675,3.5318,3.6084,3.6637,3.7144,3.7584,3.7584,3.7686,3.7889,3.8396,3.87,3.87,3.9208,3.9503,3.9503,3.9503,3.9503,3.9503,3.9503,3.9503,3.9503,3.9503,3.9503,3.9469,3.8937,3.87,3.8667,3.8125,3.7922,3.7821,3.7009,3.5971,3.4991,3.4991,3.4315,3.3423,0.0,0.0,0.0,0.0,0.0,0.0,4.0113,4.0113,4.0113,4.0113,4.0113,4.0113,4.0113,4.0113,4.0113,4.0113,4.0113,4.0248,4.0527,4.0561,4.0392,4.0113,4.0417,4.0561,4.0561,4.1271,4.1644,4.1644,4.2083,4.2286,4.2286,4.2286,4.2286,4.2286,4.2286,4.2049,4.1644,4.1339,4.0933,4.0527,4.0214,4.0229,4.0417,4.0179,3.9982,3.984,4.0147,3.9743,3.9098,3.9546,0.0,0.0,0.0,0.0,0.0,0.0,0.0,0.0,0.0,0.0,0.0,0.0,0.0,0.0,0.0,0.0,0.0,0.0,0.0,0.0,0.0,0.0,0.0,0.0,3.481,3.4912,3.525,3.4742,3.4742,3.5791,3.6299,3.6874,3.7652,3.8091,3.8633,3.9242,3.9276,3.9411,3.9715,4.0155,4.0358,4.0358,4.0823,4.1027,4.1027,4.1027,4.1027,4.1027,4.1027,4.1027,4.1027,4.1027,4.1027,4.0993,4.0223,3.9918,3.9851,3.914,3.8802,3.8768,0.0,0.0,0.0,0.0,3.6028,3.5284,0.0,0.0,0.0,0.0,0.0,0.0,4.0113,4.0113,4.0113,4.0113,4.0113,4.0113,4.0113,4.0113,4.0113,4.0113,4.018,4.0493,4.117,4.1204,4.0899,4.0248,4.0933,4.1339,4.1339,4.2049,4.2422,4.2422,4.2489,4.2557,4.2557,4.2557,4.2557,4.2557,4.2557,4.2489,4.2388,4.1745,4.1373,4.1136,4.0493,4.0461,4.0756,4.0343,4.0466,4.085,4.1024,4.0898,4.0595,4.0316,0.0,0.0,0.0,0.0,0.0,0.0,0.0,0.0,0.0,0.0,0.0,0.0,0.0,0.0,0.0,0.0,0.0,0.0,0.0,0.0,0.0,0.0,0.0,0.0,3.6863,3.7178,3.7922,3.6918,3.658,3.7889,3.8091,3.843,3.9174,3.9309,3.9918,4.1238,4.1339,4.161,4.2252,4.2286,0.0,0.0,0.0,4.2286,4.2286,4.2286,4.2286,4.2286,4.2286,4.2286,4.2286,4.2286,4.2286,4.2252,4.161,4.1339,4.1271,4.062,4.035,4.018,3.8633,3.8024,3.8024,3.7922,3.7922,3.7922,0.0,0.0,0.0,0.0,0.0,0.0,4.0113,4.0113,4.0113,4.0113,4.0113,4.0113,4.0113,4.0113,4.0113,4.0113,4.0629,4.1035,4.1204,4.1204,4.1136,4.1001,4.1677,4.2083,4.2083,4.2828,4.32,4.32,4.3842,4.4175,4.4175,4.4175,4.4175,4.4175,4.4175,4.3775,4.32,4.3064,4.2286,4.1204,4.1035,4.0671,4.0269,4.0625,4.0528,4.0441,4.1832,4.1704,4.1041,4.2347,4.1976,4.1008,4.0912,4.0123,0.0,0.0,0.0,0.0,0.0,0.0,0.0,0.0,0.0,0.0,0.0,0.0,0.0,0.0,0.0,0.0,0.0,0.0,0.0,3.6761,3.728,3.7956,3.8667,3.9039,3.9116,3.8802,3.9309,3.9961,4.0696,4.1305,4.1779,4.2049,4.2083,4.2151,4.2286,4.2286,4.2286,4.2286,4.2286,4.2286,4.2286,4.2286,4.2286,4.2286,4.2286,0.0,4.2286,4.2286,4.2286,4.2286,4.2151,4.2083,4.2083,4.1914,4.1847,4.1644,3.958,3.8768,3.87,3.8125,3.7922,3.7922,0.0,0.0,0.0,0.0,0.0,0.0,4.0113,4.0113,4.0113,4.0113,4.0113,4.0113,4.0113,4.0113,4.0248,4.0595,4.1677,4.2151,4.1779,4.2117,4.2151,4.1779,4.2455,4.2861,4.2861,4.3606,4.4012,4.4012,4.4412,4.4615,4.4615,4.4615,4.4615,4.4615,4.4615,4.4378,4.3978,4.3544,4.276,4.1711,4.1339,4.0764,4.0154,4.0685,4.092,4.1059,4.1937,4.1874,4.1473,4.2366,4.2194,4.1638,4.1948,4.1332,4.0532,0.0,0.0,0.0,0.0,0.0,0.0,0.0,0.0,0.0,0.0,0.0,0.0,0.0,0.0,3.6197,3.6197,0.0,3.7449,3.7821,3.8193,3.8836,3.9952,4.0426,4.0527,4.0155,4.0764,4.1339,4.1711,4.2083,4.2455,4.2828,4.2861,4.3031,4.343,4.3464,4.3464,4.3464,4.3464,4.3464,4.3464,4.3464,4.3464,4.3464,4.3464,4.3464,4.3464,4.3464,4.3464,4.343,4.3031,4.2861,4.2828,4.2455,4.2286,4.2185,4.1068,4.0426,4.002,3.9276,3.9005,3.9005,0.0,0.0,0.0,0.0,0.0,0.0,0.0,4.0113,4.0113,4.0113,4.0113,4.0146,4.0316,4.0316,4.0663,4.1542,4.2591,4.2997,4.2523,4.3064,4.3132,4.2523,4.3234,4.3639,4.3639,4.4248,4.4615,4.4615,4.4615,4.4615,4.4615,4.4615,4.4615,4.4615,4.4615,4.4615,4.4547,4.3878,4.3071,4.2245,4.1604,4.0858,4.0154,4.0827,4.1296,4.1682,4.2021,4.2062,4.1979,4.1979,4.2041,4.2165,4.2442,4.2128,4.1739,4.2265,4.1931,0.0,0.0,0.0,0.0,0.0,0.0,0.0,0.0,3.8728,3.8099,3.6942,3.6876,3.7032,3.7032,3.7618,3.8294,3.8903,3.9242,3.9851,4.1035,4.1474,4.1644,4.1644,4.2151,4.2523,4.2523,4.2658,4.2997,4.3606,4.3639,4.391,4.4581,4.4615,4.4615,4.4615,4.4615,4.4615,4.4615,4.4615,4.4615,4.4615,4.4615,4.4615,4.4615,4.4615,4.4615,4.4581,4.391,4.3639,4.3606,4.2997,4.2753,4.2726,4.2557,4.2151,4.1542,4.0798,4.0519,4.0519,0.0,0.0,0.0,0.0,0.0,0.0,0.0,0.0,4.0113,4.0113,4.0113,4.035,4.1001,4.1068,4.1644,4.3003,4.2726,4.2658,4.324,4.3341,4.3341,4.3274,4.4045,4.4479,4.4479,4.4547,4.4615,4.4615,4.4615,4.4615,4.4615,4.4615,4.4615,4.4615,4.4615,4.4615,4.4575,4.4326,4.346,4.2272,4.2078,4.1224,4.0204,4.1286,4.1407,4.1206,4.2736,4.2995,4.2596,4.2596,4.2921,4.3142,4.2206,4.221,4.2549,4.2642,4.2589,4.2611,4.303,4.2814,4.2336,4.1558,4.1039,4.037,0.0,3.8647,3.8508,3.7853,3.7767,3.7787,3.7787,3.8396,3.8903,3.8971,4.0087,4.1001,4.117,4.2354,4.3139,4.3139,4.3234,4.3274,4.3274,4.391,4.4378,4.4479,4.4479,4.4513,4.4615,4.4615,4.4615,4.4615,4.4615,4.4615,4.4615,4.4615,4.4615,4.4615,4.4615,4.4615,4.4615,4.4615,4.4615,4.4615,4.4513,4.4479,4.4479,4.4378,4.4344,4.4276,4.3572,4.3234,4.3037,4.232,4.2049,4.2049,0.0,0.0,0.0,0.0,0.0,0.0,0.0,0.0,4.0113,4.0113,4.046,4.0865,4.117,4.1982,4.2726,4.3341,4.3538,4.3741,4.4079,4.4079,4.4079,4.4079,4.4445,4.4615,4.4615,4.4615,4.4615,4.4615,4.4615,4.4615,4.4615,4.4615,4.4615,4.4615,4.4615,4.4803,4.5081,4.4673,4.432,4.3993,4.3093,4.2378,4.1846,4.2178,4.218,4.2041,4.2789,4.2865,0.0,4.2693,4.2827,4.3032,4.2829,4.2977,4.3178,4.3178,4.3178,4.3214,4.3463,4.3124,4.2698,4.2614,4.2228,4.1506,4.0137,3.9556,3.9088,3.8099,3.8261,3.8531,3.8531,3.914,3.9783,4.0223,4.0798,4.1508,4.2361,4.3003,4.3544,4.4045,4.4079,4.4079,4.4079,4.4412,4.4615,4.4615,4.4615,4.4615,4.4615,4.4615,4.4615,4.4615,4.4615,4.4615,4.4615,4.4615,4.4615,4.4615,4.4615,4.4615,4.4615,4.4615,4.4615,4.4615,4.4615,4.4615,4.4615,4.4615,4.4615,4.4581,4.4215,4.4079,4.3944,4.2726,4.2286,4.2286,0.0,0.0,0.0,0.0,0.0,0.0,0.0,0.0,0.0,0.0,4.073,4.1373,4.1779,4.2963,4.3741,4.3741,4.4248,4.4615,4.4615,4.4615,4.4615,4.4615,4.4615,4.4615,4.4615,4.4615,4.4615,4.4615,4.4615,4.4615,4.4615,4.4615,4.4615,4.4615,4.4615,4.4824,4.5241,4.4902,4.4896,4.4976,4.4062,4.3427,4.2981,4.3021,4.2874,4.2713,4.2846,4.2939,4.292,4.2732,4.2789,4.2976,4.3214,4.3374,4.3515,4.3515,4.3515,4.3515,4.3515,4.3124,4.277,4.3178,4.2995,4.2338,4.1046,4.0556,3.9995,3.8768,3.8937,3.9276,3.9276,3.974,4.035,4.1068,4.1373,4.1948,4.3206,4.3578,4.3944,4.4547,4.4615,4.4615,4.4615,4.4615,4.4615,4.4615,4.4615,4.4615,4.4615,4.4615,4.4615,4.4615,4.4615,4.4615,4.4615,4.4615,4.4615,4.4615,4.4615,4.4615,4.4615,4.4615,4.4615,4.4615,4.4615,4.4615,4.4615,4.4615,4.4615,4.4615,4.4615,4.4615,4.4479,4.3362,4.2929,4.2929,0.0,0.0,0.0,0.0,0.0,0.0,0.0,0.0,0.0,0.0,0.0,4.1745,4.3172,4.4079,4.4581,4.4581,4.4581,4.4615,4.4615,4.4615,4.4615,4.4615,4.4615,4.4615,4.4615,4.4615,4.4615,4.4615,4.4615,4.4615,4.4615,4.4615,4.4615,4.4615,4.4615,4.4615,4.4659,4.5012,4.4881,4.4456,4.4886,4.4247,4.3052,4.3652,4.3399,4.2751,4.3286,4.348,4.341,4.2901,4.305,4.341,4.2865,4.3087,4.3515,4.3515,4.3515,4.3515,4.3515,4.3124,4.2693,4.2713,4.2693,4.2382,4.1183,4.1327,4.1429,4.0285,4.0045,4.0079,4.0079,4.0079,4.035,4.1068,4.1813,4.2523,4.3274,4.4079,4.4581,4.4615,4.4615,4.4615,4.4615,4.4615,4.4615,4.4615,4.4615,4.4615,4.4615,4.4615,4.4615,4.4615,4.4615,4.4615,4.4615,4.4615,4.4615,4.4615,4.4615,4.4615,4.4615,4.4615,4.4615,4.4615,4.4615,4.4615,4.4615,4.4615,4.4615,4.4615,4.4615,4.4615,4.4615,4.4547,4.4547,4.4547,0.0,0.0,0.0,0.0,0.0,0.0,0.0,0.0,0.0,0.0,0.0,0.0,0.0,0.0,0.0,0.0,4.4615,4.4615,4.4615,4.4615,4.4615,4.4615,4.4615,4.4615,4.4615,4.4615,4.4615,4.4615,4.4615,4.4615,4.4615,4.4615,4.4615,4.4615,4.4615,4.4797,4.5214,4.5344,4.5798,4.6355,4.5974,4.5775,4.5665,4.5366,4.5058,4.4857,0.0,4.4415,4.348,4.3286,4.3339,4.348,4.3286,4.3339,4.3515,4.3515,4.3515,4.3515,4.3515,4.3356,4.3232,4.3232,4.294,4.2498,4.1703,4.134,4.099,4.0254,4.0113,4.0113,4.0113,4.0113,4.0519,4.1711,4.2117,4.2726,4.4012,4.4445,4.4615,4.4615,4.4615,4.4615,4.4615,4.4615,4.4615,4.4615,4.4615,4.4615,4.4615,4.4615,4.4615,4.4615,4.4615,4.4615,4.4615,4.4615,4.4615,4.4615,4.4615,4.4615,4.4615,4.4615,4.4615,4.4615,4.4615,4.4615,4.4615,4.4615,4.4615,4.4615,4.4615,4.4615,4.4615,4.4615,4.4615,4.4615,0.0,0.0,0.0,0.0,0.0,0.0,0.0,0.0,0.0,0.0,0.0,0.0,0.0,0.0,0.0,0.0,0.0,4.4615,4.4615,4.4615,4.4615,4.4615,4.4615,4.4615,4.4615,4.4615,4.4615,4.4615,4.4615,4.4615,4.4615,4.4615,4.4615,4.4615,4.4858,4.5142,4.552,4.5965,4.6659,4.737,4.7052,4.7007,4.7039,4.6544,4.614,0.0,4.5883,4.5223,4.4305,4.4011,4.3718,4.3515,4.3515,4.3515,4.3515,4.3515,4.3515,4.3515,4.3515,4.3515,4.3515,4.3515,4.3105,4.2557,4.1937,4.1318,4.0733,4.0204,4.0113,4.0113,4.0113,4.0113,4.0587,4.2049,4.2286,4.2855,4.4378,4.4615,4.4615,4.4615,4.4615,4.4615,4.4615,4.4615,4.4615,4.4615,4.4615,4.4615,4.4615,4.4615,4.4615,4.4615,4.4615,4.4615,4.4615,4.4615,4.4615,4.4615,4.4615,4.4615,4.4615,4.4615,4.4615,4.4615,4.4615,4.4615,4.4615,4.4615,4.4615,4.4615,4.4615,4.4615,4.4615,4.4615,4.4615,4.4615,0.0,0.0,0.0,0.0,0.0,0.0,0.0,0.0,0.0,0.0,0.0,0.0,0.0,0.0,0.0,0.0,0.0,0.0,4.4637,4.4671,4.4637,4.4692,4.4637,4.4671,4.4671,4.4671,4.4671,4.4671,4.4665,4.4692,4.4692,4.4692,4.4692,4.472,4.5294,4.5545,4.5622,4.6864,4.7406,4.7449,4.8055,4.7846,4.7149,4.7149,4.6691,4.603,4.603,4.5993,4.5847,4.5002,4.4158,4.3515,4.3515,4.3515,4.3515,4.3515,4.3515,4.3515,4.3515,4.3515,4.3515,4.3515,4.3105,4.2557,4.1937,4.134,4.078,4.0254,4.0154,4.0179,4.0163,4.0129,4.0578,4.2008,4.2286,4.2794,4.4344,4.4581,4.4615,4.4615,4.4615,4.4615,4.4615,4.4615,4.4615,4.4615,4.4615,4.4615,4.4615,4.4615,4.4615,4.4615,4.4615,4.4615,4.4615,4.4615,4.4615,4.4615,4.4615,4.4615,4.4615,4.4615,4.4615,4.4615,4.4615,4.4615,4.4615,4.4615,4.4615,4.4615,4.4615,4.4615,4.4615,4.4615,4.4615,4.4615,0.0,0.0,0.0,0.0,0.0,0.0,0.0,0.0,0.0,0.0,0.0,0.0,0.0,0.0,0.0,0.0,0.0,0.0,4.5214,4.5267,4.5468,4.5915,4.5494,4.5267,4.5267,4.5267,4.5267,4.5267,4.5724,4.594,4.594,4.594,4.594,4.594,4.6112,4.6185,4.6233,4.7044,4.7406,4.7449,4.8055,4.8196,4.7993,4.7993,4.7865,4.7682,4.7682,4.7315,4.6562,4.5168,4.4158,4.3515,4.3515,4.3515,4.3515,4.3515,4.3515,4.3515,4.3515,4.3515,4.3515,4.3515,4.3105,4.2557,4.1937,4.1703,4.1385,4.0803,4.1059,4.1241,4.078,4.0685,4.0861,4.1383,4.1948,4.2625,4.3572,4.4215,4.4615,4.4615,4.4615,4.4615,4.4615,4.4615,4.4615,4.4615,4.4615,4.4615,4.4615,4.4615,4.4615,4.4615,4.4615,4.4615,4.4615,4.4615,4.4615,4.4615,4.4615,4.4615,4.4615,4.4615,4.4615,4.4615,4.4615,4.4615,4.4615,4.4615,4.4615,4.4615,4.4615,4.4615,4.4615,4.4615,4.4615,4.4615,0.0,0.0,0.0,0.0,0.0,0.0,0.0,0.0,0.0,0.0,0.0,0.0,0.0,0.0,0.0,0.0,0.0,0.0,0.0,4.5346,4.5648,4.5989,4.594,4.589,4.589,4.589,4.589,4.589,4.6222,4.6389,4.6389,4.6389,4.6389,4.6413,4.6728,4.6842,4.6887,4.7512,4.7797,0.0,0.0,4.8306,4.8306,4.8306,4.8306,4.8306,4.8306,4.7572,4.6434,4.5553,4.4452,4.3515,4.3515,4.3515,4.3515,4.3515,4.3515,4.3515,4.3515,4.3515,4.3515,4.3515,4.3105,4.2616,4.2282,4.1979,4.1725,4.134,4.134,4.1296,4.0955,4.0709,4.0681,4.112,4.1813,4.2557,4.3301,4.4079,4.4615,4.4615,4.4615,4.4615,4.4615,4.4615,4.4615,4.4615,4.4615,4.4615,4.4615,4.4615,4.4615,4.4615,4.4615,4.4615,4.4615,4.4615,4.4615,4.4615,4.4615,4.4748,4.5015,4.472,4.4748,4.4988,4.472,4.4615,4.4615,4.4615,4.4615,4.4615,4.4615,4.4615,4.4615,4.4615,4.4615,4.4615,0.0,0.0,0.0,0.0,0.0,0.0,0.0,0.0,0.0,0.0,0.0,0.0,0.0,0.0,0.0,0.0,0.0,0.0,0.0,0.0,4.5571,4.5749,4.6185,4.6436,4.6507,4.6507,4.6507,4.6507,4.66,4.6646,4.6646,4.6646,4.6646,4.6669,4.7277,4.7512,4.7533,4.8075,4.8306,4.8306,4.8306,4.8306,4.8306,0.0,4.8306,4.8306,4.8306,4.7352,4.603,4.592,4.4819,4.3515,4.3515,4.3515,4.3515,4.3515,4.3515,4.3515,4.3515,4.3515,4.3515,4.3515,4.3105,4.2693,4.2693,4.2302,4.1916,4.1916,4.156,4.1228,4.1138,4.0767,4.0607,4.1087,4.1774,4.2494,4.3166,4.3944,4.4479,4.4581,4.4615,4.4615,4.4615,4.4615,4.4615,4.4615,4.4615,4.4615,4.4615,4.4615,4.4615,4.4615,4.4615,4.4615,4.4615,4.4665,4.472,4.472,4.4769,4.5115,4.5597,4.5062,4.5089,4.5468,4.4961,4.4665,4.4615,4.4615,4.4671,4.472,4.472,4.4776,4.4824,4.4824,4.4824,4.4824,0.0,0.0,0.0,0.0,0.0,0.0,0.0,0.0,0.0,0.0,4.3483,4.4682,0.0,0.0,0.0,0.0,0.0,0.0,0.0,0.0,0.0,4.7021,4.6659,4.6682,4.7198,4.7234,4.7234,4.7234,4.7736,4.7959,4.7959,4.7959,4.7959,4.7995,4.8094,4.8134,4.8134,4.8267,4.8306,4.8306,4.8306,4.8306,4.8306,4.8306,0.0,0.0,4.8306,4.7663,4.6782,4.6104,4.4819,4.3515,4.3515,4.3515,4.3515,4.3515,4.3515,4.3515,4.3515,4.3515,4.3515,4.3515,4.3105,4.2693,4.2693,4.2616,4.2557,4.2557,4.2791,4.2903,4.2462,4.2302,4.1966,4.1093,4.163,4.2224,4.2468,4.3132,4.3842,4.4513,4.4615,4.4615,4.4615,4.4615,4.4615,4.4615,4.4615,4.4615,4.4615,4.4615,4.4615,4.4615,4.4615,4.4615,4.4615,4.5089,4.5346,4.5346,4.584,4.6161,4.6222,4.6136,4.5865,4.5494,4.5399,4.5062,4.4615,4.4615,4.4879,4.5346,4.5346,4.5648,4.6088,4.6088,4.6088,4.6014,0.0,0.0,0.0,0.0,0.0,0.0,0.0,4.1232,4.1624,4.2074,4.3033,4.4001,4.4817,4.5172,4.5631,0.0,0.0,0.0,0.0,0.0,0.0,4.7363,4.7406,4.7533,4.7858,4.7858,4.7858,4.7858,0.0,4.8306,4.8306,4.8306,4.8306,4.8306,4.8306,4.8306,4.8306,4.8306,4.8306,4.8306,4.8306,4.8306,4.8306,4.8306,0.0,0.0,4.8306,4.7773,4.6966,4.6177,4.5112,4.4048,4.3608,4.3515,4.3515,4.3515,4.3515,4.3515,4.3515,4.3515,4.3515,4.3515,4.3303,4.3124,4.3124,4.3124,4.3124,4.3124,4.3105,4.3013,4.2732,4.2422,4.2041,4.1451,4.1766,4.2265,4.2723,4.3451,4.4205,4.4993,4.5346,4.552,4.552,4.552,4.552,4.552,4.552,4.5241,4.4643,4.4615,4.4748,4.5062,4.5062,4.5214,4.552,4.5815,4.5965,4.5965,4.6246,4.6553,4.691,4.6553,4.6413,4.6472,4.6112,4.579,4.552,4.552,4.5724,4.5965,4.5965,4.6161,4.6389,4.6389,4.6389,4.6342,0.0,0.0,0.0,0.0,0.0,0.0,0.0,4.1273,4.1518,4.216,4.2644,4.327,4.4178,4.4811,4.5449,0.0,0.0,0.0,0.0,0.0,0.0,0.0,0.0,0.0,4.8287,0.0,0.0,4.8306,4.8306,0.0,0.0,0.0,0.0,0.0,4.8306,4.8306,4.8306,4.8306,4.8306,0.0,0.0,4.8306,4.8306,0.0,0.0,0.0,0.0,4.7902,4.7223,4.6214,4.548,4.4782,4.3791,4.3515,4.3515,4.3515,4.3515,4.3515,4.3515,4.3515,4.3515,4.3515,4.3515,4.3515,4.3515,4.3515,4.3515,4.3515,4.316,4.2865,4.2865,4.2482,4.2124,4.2,4.2124,4.2486,4.3103,4.385,4.463,4.5416,4.6039,4.6389,4.6389,4.6389,4.6389,4.6389,4.6389,4.5989,4.5035,4.5015,4.5188,4.5699,4.5699,4.5915,4.6389,4.6708,4.6884,4.6884,4.7201,4.7626,4.8119,4.7568,4.7546,4.789,4.7365,4.7062,4.6944,4.6944,4.7003,4.7156,4.7156,4.7119,4.7092,4.7092,4.6985,4.6783,0.0,0.0,0.0,0.0,0.0,0.0,0.0,4.2537,4.2537,4.2645,4.2704,4.3048,4.3872,4.4613,4.5249,0.0,0.0,0.0,0.0,0.0,0.0,0.0,0.0,0.0,0.0,0.0,0.0,4.8306,4.8306,0.0,0.0,0.0,0.0,0.0,0.0,4.8306,4.8306,4.8306,0.0,0.0,0.0,0.0,0.0,0.0,0.0,0.0,0.0,4.8269,4.7976,4.6434,4.5847,4.5516,4.3992,4.3515,4.3515,4.3515,4.3515,4.3515,4.3515,4.3515,4.3515,4.3515,4.3515,4.3515,4.3515,4.3515,4.3515,4.3515,4.348,4.3445,4.3445,4.3374,4.3196,4.2693,4.2649,4.2781,4.3155,4.3722,4.446,4.5398,4.6039,4.6389,4.6389,4.6389,4.6389,4.6389,4.6389,4.6342,4.6222,4.6222,4.6246,4.6329,4.6294,4.6342,4.6389,4.7716,4.8402,4.8402,4.9752,5.0424,5.0501,5.0424,5.008,4.9595,4.9492,4.9172,4.8671,4.8671,4.9008,4.9469,4.9469,4.9437,4.9325,4.9325,4.8793,4.8055,0.0,0.0,0.0,0.0,0.0,0.0,4.2693,4.2693,4.2693,4.2693,4.2693,4.2838,4.3126,4.3721,4.4565,4.5792,0.0,0.0,0.0,0.0,0.0,0.0,0.0,0.0,0.0,0.0,4.8306,4.8306,4.8306,0.0,0.0,0.0,0.0,0.0,0.0,4.8306,4.8306,4.8306,0.0,0.0,0.0,0.0,0.0,0.0,0.0,0.0,0.0,0.0,4.8122,4.7003,4.6324,4.57,4.4599,4.3901,4.3515,4.3515,4.3515,4.3515,4.3515,4.3515,4.3515,4.3515,4.3515,4.3515,4.3515,4.3515,4.3515,4.3515,4.3515,4.3515,4.3515,4.3515,4.3445,4.3214,4.2902,4.2877,4.3472,4.42,4.5,4.5818,4.6866,4.7554,4.7554,4.7554,4.7554,4.7554,4.7554,4.7772,4.83,4.7092,4.6825,4.7716,4.7716,4.8147,4.9061,4.9637,4.9925,4.9945,5.0517,5.0802,5.0802,5.0802,5.0643,5.042,5.042,5.0256,5.0025,5.0025,5.0192,5.042,5.042,5.0362,5.0325,5.0325,4.9811,4.9057,0.0,0.0,0.0,0.0,0.0,4.2957,4.2957,4.3139,4.3284,4.3284,4.3502,4.3647,4.3647,4.3962,4.4672,4.581,4.5663,0.0,0.0,0.0,0.0,0.0,0.0,0.0,0.0,0.0,4.8306,4.8306,4.8306,4.8306,0.0,0.0,4.8306,4.8306,0.0,0.0,0.0,0.0,0.0,0.0,0.0,0.0,0.0,0.0,0.0,0.0,0.0,0.0,0.0,0.0,0.0,4.5773,4.4966,4.4158,4.3515,4.3515,4.3515,4.3515,4.3515,4.3515,4.3515,4.3515,4.3515,4.3515,4.3515,4.3515,4.3515,4.3515,4.3515,4.3515,4.3515,4.3515,4.3515,4.3515,4.3178,4.3136,4.372,4.4673,4.553,4.6122,4.7425,4.8306,4.8306,4.8306,4.8306,4.8306,4.8526,4.893,4.9574,4.8395,4.8205,4.9234,4.9234,4.9752,5.0802,5.1059,5.1169,5.1169,5.1389,5.1499,5.1499,5.1499,5.1499,5.1499,5.1499,5.1499,5.1499,5.1499,5.1499,5.1499,5.1499,5.1353,5.1169,5.1169,5.0655,4.9958,0.0,0.0,0.0,0.0,0.0,0.0,4.3497,4.4195,4.4691,4.4691,4.5351,4.5883,4.5883,4.5883,4.5883,4.5883,4.5186,0.0,0.0,0.0,0.0,0.0,0.0,0.0,0.0,0.0,4.8306,4.8306,4.8306,4.8306,4.8306,4.8306,4.8306,4.8306,0.0,0.0,0.0,0.0,0.0,0.0,0.0,0.0,4.8306,0.0,0.0,0.0,0.0,0.0,0.0,0.0,0.0,0.0,0.0,4.4158,4.3515,4.3515,4.3515,4.3515,4.3515,4.3515,4.3515,4.3515,4.3515,4.3515,4.3515,4.3515,4.3515,4.3515,4.3515,4.3515,4.3515,4.3515,4.3515,4.3515,4.3497,4.3578,4.376,4.5,4.5972,4.6163,4.7425,4.8306,4.8306,4.8306,4.8306,4.8306,4.9077,4.961,4.961,5.0325,5.0745,5.0782,5.0782,5.0802,5.0802,5.1573,5.1977,5.1977,5.2784,5.3167,5.3167,5.3167,5.3167,5.3167,5.3167,5.3167,5.3167,5.3167,5.3167,5.3167,5.3167,5.2711,5.1977,5.1977,5.1463,5.0802,0.0,0.0,0.0,0.0,0.0,0.0,0.0,4.5369,4.5516,4.5516,4.5736,4.5883,4.5883,4.5883,4.5883,4.5883,4.5663,0.0,0.0,0.0,0.0,0.0,0.0,0.0,0.0,4.8306,4.8306,4.8306,4.8306,4.8306,4.8306,4.8306,4.8306,4.8306,4.8306,4.8306,0.0,0.0,0.0,0.0,0.0,4.8306,4.8306,0.0,0.0,0.0,0.0,0.0,0.0,0.0,0.0,0.0,0.0,0.0,0.0,4.3515,4.3515,4.3515,4.3515,4.3515,4.3515,4.3515,4.3515,4.3515,4.3515,4.3515,4.3515,4.3515,4.3515,4.3515,4.3515,4.3515,4.3515,4.3515,4.3515,4.3702,4.4327,4.526,4.6122,4.6737,4.7677,4.8306,4.8306,4.8306,4.8306,4.8306,4.9114,4.9831,5.0398,5.1169,5.161,5.161,5.161,5.1867,5.2454,5.2711,5.2821,5.2821,5.3078,5.3203,5.3203,5.3203,5.3203,5.3203,5.3203,5.3203,5.3203,5.3203,5.3203,5.3203,5.3203,5.302,5.2821,5.2821,5.2307,5.161,0.0,0.0,0.0,0.0,0.0,0.0,0.0,4.6177,4.6361,4.6361,4.6617,4.6801,4.6801,4.6801,4.6801,4.6801,4.6801,0.0,0.0,0.0,0.0,0.0,0.0,0.0,4.8306,4.8306,4.8306,4.8306,4.8306,4.8306,4.8306,4.8306,4.8306,4.8306,4.8306,4.8306,0.0,0.0,0.0,0.0,4.7957,4.8049,4.8306,0.0,0.0,0.0,0.0,0.0,0.0,0.0,0.0,0.0,0.0,0.0,0.0,0.0,4.3515,4.3515,4.3515,4.3515,4.3515,4.3515,4.3515,4.3515,4.3515,4.3515,4.3515,4.3515,4.3515,4.3515,4.3515,4.3515,4.3515,4.3515,4.3515,4.3791,4.4599,4.5406,4.6324,4.7406,4.8012,4.8306,4.8306,4.8306,4.8306,4.8306,4.937,5.0251,5.0765,5.1867,5.2454,5.2454,5.2454,5.2711,5.3203,5.3203,5.3203,5.3203,5.3203,5.3203,5.3203,5.3203,5.3203,5.3203,5.3203,5.3203,0.0,5.3203,5.3203,5.3203,5.3203,5.3203,5.3203,5.3203,5.2894,5.2454,0.0,0.0,0.0,0.0,0.0,0.0,0.0,4.6709,4.7186,4.7186,4.7846,4.8306,4.8306,4.8306,4.8306,4.8306,0.0,0.0,0.0,0.0,0.0,0.0,0.0,0.0,4.8306,4.8306,4.8306,4.8306,4.8306,4.8306,4.8306,4.8306,4.8306,4.8306,4.8306,4.8306,4.8269,0.0,0.0,0.0,4.748,4.7626,0.0,0.0,0.0,0.0,0.0,0.0,0.0,0.0,0.0,0.0,0.0,0.0,0.0,0.0,0.0,0.0,0.0,4.3515,4.3515,4.3515,4.3515,4.3515,4.3515,4.3515,0.0,4.3515,4.3515,4.3515,4.3515,4.3515,4.3515,4.3515,4.3515,4.3791,4.4672,4.5516,4.6617,4.8122,4.8306,4.8306,4.8306,4.8306,4.8306,4.8306,4.9848,5.0802,5.0802,5.2344,5.3203,5.3203,5.3203,5.3203,5.3203,5.3203,5.3203,5.3203,5.3203,5.3203,5.3203,5.3203,5.3203,5.3203,5.3203,5.3203,5.3203,5.3203,5.3203,5.3203,5.3203,5.3203,5.3203,5.3203,5.3203,5.3203,0.0,0.0,0.0,0.0,0.0,0.0,0.0,0.0,0.0,0.0,4.8196,4.8306,4.8306,4.8306,4.8306,0.0,0.0,0.0,0.0,0.0,0.0,0.0,0.0,0.0,4.8306,4.8306,4.8306,4.8306,4.8306,4.8306,4.8306,4.8306,4.8306,4.8306,4.8306,4.8306,4.8306,4.8122,0.0,0.0,4.8086,4.8122,0.0,0.0,0.0,0.0,4.8658,4.883,0.0,0.0,0.0,0.0,0.0,0.0,0.0,0.0,4.467,4.4268,4.3644,0.0,4.3515,4.3515,4.3515,4.3515,0.0,4.3515,4.3515,4.3515,4.3515,4.3515,4.3515,4.3515,4.3515,4.3515,4.3515,4.3975,4.5406,4.6838,4.7902,4.8269,4.8306,4.8306,4.8306,4.8306,4.8306,4.8306,4.9848,5.0802,5.0802,5.2344,5.3203,5.3203,5.3203,5.3203,5.3203,5.3203,5.3203,5.3203,5.3203,5.3203,5.3203,5.3203,5.3203,5.3203,5.3203,5.3203,5.3203,5.3203,5.3203,5.3203,5.3203,5.3203,5.3203,5.3203,5.3203,5.3203,0.0,0.0,0.0,0.0,0.0,0.0,0.0,0.0,0.0,0.0,0.0,0.0,0.0,0.0,0.0,0.0,0.0,0.0,0.0,0.0,0.0,0.0,0.0,4.8306,4.8306,4.8306,4.8306,4.8306,4.8306,4.8306,4.8306,4.8306,4.8306,4.8306,4.8306,4.8306,4.8269,4.7883,4.7957,4.8269,4.7883,0.0,0.0,0.0,0.0,0.0,4.8761,4.9011,0.0,4.9431,4.9315,4.9034,0.0,0.0,0.0,0.0,4.5839,4.5637,4.4795,4.4048,4.3515,4.3515,4.3515,4.3515,4.3515,4.3515,4.3515,4.3515,4.3515,4.3515,4.3515,4.3515,4.3515,4.3515,4.3791,4.4599,4.6214,4.7535,4.8306,4.8306,4.8306,4.8306,4.8306,4.8306,4.8306,4.8306,4.9848,5.0802,5.0802,5.2344,5.3203,5.3203,5.3203,5.3203,5.3203,5.3203,5.3203,5.3203,5.3203,5.3203,5.3203,5.3203,5.3203,5.3203,5.3203,5.3203,5.3203,5.3203,5.3203,5.3203,5.3203,5.3203,5.3203,5.3203,5.3203,5.3203,0.0,0.0,0.0,0.0,0.0,0.0,0.0,0.0,0.0,0.0,0.0,0.0,0.0,0.0,0.0,0.0,0.0,0.0,0.0,0.0,0.0,0.0,4.8306,4.8306,4.8306,4.8306,4.8306,4.8306,4.8306,4.8306,4.8306,4.8306,4.8306,4.8306,4.8306,4.8306,4.8269,4.7553,4.772,4.8346,4.7647,0.0,0.0,0.0,0.0,0.0,0.0,0.0,0.0,4.9645,4.9911,4.9995,4.901,0.0,0.0,0.0,0.0,0.0,4.6301,4.5083,4.405,4.3965,4.3948,4.3948,4.3948,4.3897,4.3882,4.3882,4.3882,4.3882,4.3882,4.3882,4.3845,4.3681,4.4378,4.5388,4.6892,4.7773,4.8306,4.8306,4.8306,4.8306,4.8306,4.8306,4.8306,4.8306,4.9848,5.0802,5.0802,5.2344,5.3203,5.3203,5.3203,5.3203,5.3203,5.3203,5.3203,5.3203,5.3203,5.3203,5.3203,5.3203,5.3203,5.3203,5.3203,5.3203,5.3203,5.3203,5.3203,5.3203,5.3203,5.3203,5.3203,5.3203,5.3203,5.3203,0.0,0.0,0.0,0.0,0.0,0.0,0.0,0.0,0.0,0.0,0.0,0.0,0.0,0.0,0.0,0.0,0.0,0.0,0.0,0.0,0.0,4.8306,4.8306,4.8306,4.8306,4.8306,4.8306,4.8306,4.8306,4.8306,4.8306,4.8306,4.8306,4.8306,4.8306,4.8306,4.8306,4.8196,4.8366,4.8813,4.8664,0.0,0.0,0.0,0.0,0.0,0.0,0.0,0.0,5.0391,5.0573,5.0566,5.0371,0.0,0.0,0.0,0.0,0.0,4.7142,4.6737,4.6477,4.61,4.6057,4.6036,4.6036,4.5796,4.5516,4.5516,4.5516,4.5516,4.5516,4.5516,4.5296,4.4635,4.5186,4.603,4.6966,4.7773,4.8306,4.8306,4.8306,4.8306,4.8306,4.8306,4.8306,4.8306,4.9848,5.0802,5.0802,5.2344,5.3203,5.3203,5.3203,5.3203,5.3203,5.3203,5.3203,5.3203,5.3203,5.3203,5.3203,5.3203,5.3203,5.3203,5.3203,5.3203,5.3203,5.3203,5.3203,5.3203,5.3203,5.3203,5.3203,5.3203,5.3203,5.3203,0.0,0.0,0.0,0.0,0.0,0.0,0.0,0.0,0.0,0.0,0.0,0.0,0.0,0.0,0.0,0.0,0.0,0.0,0.0,0.0,4.8306,4.8306,4.8306,4.8306,4.8306,4.8306,4.8306,4.8306,4.8306,4.8306,4.8306,4.8306,4.8421,4.864,4.864,4.8727,4.8965,4.8965,4.908,4.9218,0.0,0.0,0.0,0.0,0.0,0.0,0.0,0.0,0.0,0.0,5.0712,5.0712,5.0712,0.0,0.0,0.0,0.0,0.0,4.861,4.8732,4.8967,4.8537,4.7622,4.678,4.6551,4.638,4.6183,4.5938,4.5883,4.5883,4.5883,4.5883,4.592,4.5975,4.6305,4.6838,4.7626,4.8086,4.8306,4.8306,4.8306,4.8306,4.8306,4.8306,4.8306,4.8306,4.9848,5.0802,5.0802,5.2344,5.3203,5.3203,5.3203,5.3203,5.3203,5.3203,5.3203,5.3203,5.3203,5.3203,5.3203,5.3203,5.3203,5.3203,5.3203,5.3203,5.3203,5.3203,5.3203,5.3203,5.3203,5.3203,5.3203,5.3203,5.3203,5.3203,0.0,0.0,0.0,0.0,0.0,0.0,0.0,0.0,0.0,0.0,0.0,0.0,0.0,0.0,0.0,0.0,0.0,0.0,0.0,4.8306,4.8344,4.8439,4.8439,4.8383,4.8306,4.8306,4.8363,4.8439,4.8439,4.8495,4.8568,4.8568,4.8727,4.9027,4.9027,4.9218,4.9489,4.9489,4.9547,4.9631,0.0,0.0,0.0,0.0,0.0,0.0,0.0,0.0,0.0,0.0,0.0,0.0,0.0,0.0,0.0,5.0336,5.0462,5.0584,4.9949,5.0218,5.0624,5.0325,4.9011,4.7713,4.7417,4.7282,4.7111,4.6823,4.6737,4.6702,4.6633,4.636,4.6434,4.7259,4.7223,4.7369,4.8196,4.8306,4.8306,4.8306,4.8306,4.8306,4.8306,4.8306,4.8306,4.8306,4.9664,5.0618,5.0802,5.216,5.3004,5.3167,5.3203,5.3203,5.3203,5.3203,5.3203,5.3203,5.3203,5.3203,5.3203,5.3203,5.3203,5.3203,5.3203,5.3203,5.3203,5.3203,5.3203,5.3203,5.3203,5.3203,5.3203,5.3203,5.3203,5.3203,0.0,0.0,0.0,0.0,0.0,0.0,0.0,0.0,0.0,0.0,0.0,0.0,0.0,0.0,0.0,0.0,0.0,0.0,0.0,4.8306,4.8477,4.8847,4.8864,4.8656,4.8306,4.8306,4.8495,4.8864,4.8864,4.9043,4.9416,4.9416,4.9431,4.946,4.946,4.9475,4.9489,4.9489,4.9738,5.0075,5.0075,0.0,0.0,0.0,0.0,0.0,0.0,0.0,0.0,0.0,0.0,0.0,0.0,0.0,5.0702,5.0682,5.0692,5.0702,5.0624,5.0644,5.0702,5.0644,5.0281,4.9884,4.986,4.9562,4.9294,4.9227,4.9227,4.9123,4.8762,4.7774,4.7259,4.8067,4.759,4.7369,4.8196,4.8306,4.8306,4.8306,4.8306,4.8306,4.8306,4.8306,4.8306,4.8306,4.915,5.0014,5.0765,5.161,5.2417,5.3167,5.3203,5.3203,5.3203,5.3203,5.3203,5.3203,5.3203,5.3203,5.3203,5.3203,5.3203,5.3203,5.3203,5.3203,5.3203,5.3203,5.3203,5.3203,5.3203,5.3203,5.3203,5.3203,5.3203,5.3203,0.0,0.0,0.0,0.0,0.0,0.0,0.0,0.0,0.0,0.0,0.0,0.0,0.0,0.0,0.0,0.0,0.0,0.0,0.0,4.8915,4.9108,4.9265,4.928,4.9202,4.9027,4.9064,4.9108,4.928,4.928,4.9356,4.9489,4.9489,4.9617,4.9885,4.9885,4.9999,5.023,5.023,5.0336,5.0472,5.0472,5.0584,0.0,0.0,0.0,0.0,0.0,0.0,0.0,0.0,5.0712,5.0712,5.0712,5.0712,5.0712,5.0712,5.0712,5.0712,5.0712,5.0712,5.0712,5.0712,5.0594,5.0429,5.0159,4.9974,4.9819,4.9547,4.9489,4.9371,4.8961,4.8309,4.7976,4.8269,4.8049,4.7976,4.8269,4.8306,4.8306,4.8306,4.8306,4.8306,4.8306,4.8306,4.8306,4.8306,4.9114,4.9958,5.0765,5.1573,5.238,5.3167,5.3203,5.3203,5.3203,5.3203,5.3203,5.3203,5.3203,5.3203,5.3203,5.3203,5.3203,5.3203,5.3203,5.3203,5.3203,5.3203,5.3203,5.3203,5.3203,5.3203,5.3203,5.3203,5.3203,5.3203,0.0,0.0,0.0,0.0,0.0,0.0,0.0,0.0,0.0,0.0,0.0,0.0,0.0,0.0,0.0,0.0,0.0,0.0,4.9092,4.9341,4.9547,4.9673,4.9673,4.9765,4.9885,4.9885,4.9832,4.9673,4.9832,4.9885,4.9885,4.9885,5.0012,5.0302,5.0302,5.0451,5.0712,5.0712,5.0712,5.0712,5.0712,5.0712,0.0,0.0,0.0,0.0,0.0,0.0,0.0,0.0,5.0712,5.0712,5.0712,5.0712,5.0712,5.0712,5.0712,5.0712,5.0712,5.0712,5.0712,5.0712,5.0712,5.0624,5.0347,5.0302,5.0206,4.9936,4.9792,4.9561,4.9171,4.8864,4.8586,4.8344,4.8402,4.8439,4.8325,4.8306,4.8306,4.8306,4.8306,4.8306,4.8306,4.8306,4.8306,4.8306,4.8857,4.9554,5.0362,5.1169,5.1977,5.2821,5.3078,5.3203,5.3203,5.3203,5.3203,5.3203,5.3203,5.3203,5.3203,5.3203,5.3203,5.3203,5.3203,5.3203,5.3203,5.3203,5.3203,5.3203,5.3203,5.3203,5.3203,5.3203,5.3203,5.3203,0.0,0.0,0.0,0.0,0.0,0.0,0.0,0.0,0.0,0.0,0.0,0.0,0.0,0.0,0.0,0.0,0.0,0.0,4.9504,4.9504,4.9673,5.0099,5.0123,5.0302,5.0702,5.0712,5.0504,5.0123,5.0504,5.0712,5.0712,5.0712,5.0712,5.0712,5.0712,5.0712,5.0712,5.0712,5.0712,5.0712,5.0712,5.0712,5.0712,0.0,0.0,0.0,0.0,0.0,0.0,0.0,5.0712,5.0712,5.0712,5.0712,5.0712,5.0712,5.0712,5.0712,5.0712,5.0712,5.0712,5.0712,5.0712,5.0712,5.0712,5.0712,5.0712,5.0712,5.0369,4.9974,4.9575,4.9504,4.9234,4.8439,4.8658,4.8761,4.8345,4.8306,4.8306,4.8306,4.8306,4.8306,4.8306,4.8306,4.8306,4.8306,4.8306,4.8692,4.9537,5.0381,5.1169,5.1977,5.2784,5.3167,5.3203,5.3203,5.3225,5.3225,5.3225,5.3225,5.3225,5.3225,5.3225,5.3188,5.3188,5.3188,5.3188,5.3188,5.3188,5.3188,5.3188,5.3188,5.3225,5.3225,5.3225,5.3225,0.0,0.0,0.0,0.0,0.0,0.0,0.0,0.0,0.0,0.0,0.0,0.0,0.0,0.0,0.0,0.0,0.0,0.0,4.9924,5.0183,5.038,5.0504,5.0514,5.0584,5.0712,5.0712,5.0634,5.0514,5.0634,5.0712,5.0712,5.0712,5.0712,5.0712,5.0712,5.0712,5.0712,5.0712,5.0712,5.0712,5.0712,5.0712,5.0712,0.0,0.0,0.0,0.0,0.0,0.0,0.0,0.0,0.0,5.0712,5.0712,5.0712,5.0712,5.0712,5.0712,5.0712,5.0712,5.0712,5.0712,5.0712,5.0712,5.0712,5.0712,5.0712,5.0712,5.0369,5.0049,4.9949,4.9673,4.9416,4.9171,4.9234,4.9187,4.8779,4.8709,4.8622,4.8344,4.855,4.8709,4.8709,4.8999,4.9139,4.9139,4.9139,4.9368,4.9933,5.0175,5.0823,5.1961,5.2234,5.2637,5.3167,5.3203,5.3339,5.3643,5.3643,5.3643,5.3643,5.3643,5.3796,5.4121,5.4121,5.4121,5.4121,5.4121,5.4121,5.4121,5.4121,5.4121,5.4086,5.3739,5.3833,5.4068,0.0,0.0,0.0,0.0,0.0,0.0,0.0,0.0,0.0,0.0,4.9139,4.9295,0.0,0.0,0.0,0.0,0.0,0.0,0.0,5.0584,5.0712,5.0712,5.0712,5.0712,5.0712,5.0712,5.0712,5.0712,5.0712,5.0712,5.0712,5.0712,5.0712,5.0712,5.0712,5.0712,5.0712,5.0712,5.0712,5.0712,5.0712,5.0712,5.0712,0.0,0.0,0.0,0.0,0.0,0.0,0.0,0.0,0.0,5.0712,5.0712,5.0712,5.0712,5.0712,5.0712,5.0712,5.0712,5.0712,5.0712,5.0712,5.0712,5.0712,5.0712,5.0712,5.0712,5.0504,5.0302,5.0135,5.0012,4.9885,4.9547,4.9617,4.9589,4.9202,4.9139,4.9043,4.8796,4.8978,4.9139,4.9139,4.9356,4.9489,4.9489,4.9489,4.9612,4.9835,5.0156,5.0712,5.1472,5.2141,5.2698,5.3199,5.3552,5.3814,5.4083,5.4083,5.417,5.4301,5.4153,5.4221,5.4484,5.4484,5.4484,5.4484,5.4484,5.4484,5.4484,5.4484,5.4484,5.4452,5.4187,5.4255,5.4452,0.0,0.0,0.0,0.0,0.0,0.0,0.0,0.0,0.0,0.0,4.9547,4.9687,0.0,0.0,0.0,0.0,0.0,0.0,0.0,5.0712,5.0712,5.0712,5.0712,5.0712,5.0712,5.0712,5.0712,5.0712,5.0712,5.0712,5.0712,5.0712,5.0712,5.0712,5.0712,5.0712,5.0712,5.0712,5.0712,5.0712,5.0712,5.0712,5.0712,5.0712,0.0,0.0,0.0,0.0,0.0,0.0,0.0,0.0,5.0712,5.0712,5.0712,5.0712,5.0712,5.0712,5.0712,5.0712,5.0712,5.0712,5.0712,5.0712,5.0712,5.0712,5.0712,5.0712,5.0712,5.0594,5.0206,5.0462,5.0472,4.9714,4.9924,4.9999,4.9603,4.9547,4.9532,4.9504,4.9532,4.9547,4.9547,4.9575,4.9603,4.9603,4.9603,4.9589,4.9547,5.025,5.065,5.0681,5.219,5.3057,5.3208,5.3978,5.4425,5.4547,5.4547,5.476,5.5147,5.4731,5.4563,5.4594,5.4594,5.4594,5.4594,5.4594,5.4594,5.4594,5.4594,5.4594,5.4594,5.4563,5.4563,5.4594,0.0,0.0,0.0,0.0,0.0,0.0,0.0,0.0,0.0,0.0,0.0,0.0,0.0,0.0,0.0,0.0,0.0,0.0,0.0,5.0712,5.0712,5.0712,5.0712,5.0712,5.0712,5.0712,5.0712,5.0712,5.0712,5.0712,5.0712,5.0712,5.0712,5.0712,5.0712,5.0712,5.0712,5.0712,5.0712,5.0712,5.0712,5.0712,5.0712,5.0712,0.0,0.0,0.0,0.0,0.0,0.0,0.0,0.0,5.0712,5.0712,5.0712,5.0712,5.0712,5.0712,5.0712,5.0712,5.0712,5.0712,5.0712,5.0712,5.0712,5.0712,5.0712,5.0712,5.0712,5.0654,5.0594,5.0634,5.0634,5.0472,5.0504,5.0451,5.0012,4.9962,4.9859,4.9532,4.9792,4.9962,4.9962,5.0279,5.0451,5.0451,5.0451,5.0313,4.9987,5.0152,5.0364,5.0696,5.1058,5.1888,5.3208,5.3396,5.3997,5.496,5.496,5.5186,5.5566,5.516,5.5147,5.5435,5.5435,5.5435,5.5435,5.5435,5.5435,5.5435,5.5435,5.5435,5.5399,5.5094,5.5173,5.5399,0.0,0.0,0.0,0.0,0.0,0.0,0.0,0.0,0.0,0.0,0.0,0.0,0.0,0.0,0.0,0.0,0.0,0.0,0.0,0.0,5.0712,5.0712,5.0712,5.0712,5.0712,5.0712,5.0712,5.0712,5.0712,5.0712,5.0712,5.0712,5.0712,5.0712,5.0712,5.0712,5.0712,5.0712,5.0712,5.0712,5.0712,5.0712,5.0712,5.0712,5.0712,5.0712,5.0712,0.0,0.0,0.0,0.0,0.0,0.0,0.0,5.0712,5.0712,5.0712,5.0712,5.0712,5.0712,5.0712,5.0712,5.0712,5.0712,5.0712,5.0712,5.0712,5.0712,5.0712,5.0712,5.0712,5.0712,5.0712,5.0712,5.0712,5.0624,5.044,5.038,5.0313,5.0111,5.0241,5.038,5.038,5.0584,5.0712,5.0712,5.0712,5.0614,5.038,5.038,5.0493,5.0697,5.1066,5.1904,5.32,5.3619,5.4371,5.5387,5.5387,5.552,5.5703,5.547,5.5481,5.5703,5.5703,5.5703,5.5703,5.5703,5.5703,5.5703,5.5703,5.5703,5.5692,5.5458,5.5531,5.5682,0.0,0.0,0.0,0.0,0.0,0.0,0.0,0.0,0.0,0.0,0.0,0.0,0.0,0.0,0.0,0.0,0.0,0.0,0.0,0.0,0.0,5.0712,5.0712,5.0712,5.0712,5.0712,5.0712,5.0712,5.0712,5.0712,5.0712,5.0712,5.0712,5.0712,5.0712,5.0712,5.0712,5.0712,5.0712,5.0712,5.0712,5.0712,5.0712,5.0712,5.0712,5.0712,5.0712,5.0712,5.0712,5.0712,0.0,0.0,0.0,0.0,5.0712,5.0712,5.0712,5.0712,5.0712,5.0712,5.0712,5.0712,5.0712,5.0712,5.0712,5.0712,5.0712,5.0712,5.0712,5.0712,5.0712,5.0712,5.0712,5.0712,5.0712,5.0712,5.0712,5.0712,5.0712,5.0712,5.0712,5.0712,5.0712,5.0712,5.0712,5.0712,5.0712,5.0712,5.0712,5.0712,5.0712,5.0712,5.1356,5.2115,5.2972,5.3857,5.4703,5.5472,5.5626,5.5703,5.5703,5.5703,5.5703,5.5703,5.5703,5.5703,5.5703,5.5703,5.5703,5.5703,5.5703,5.5703,5.5703,5.5703,5.578,5.5934,0.0,0.0,0.0,0.0,0.0,0.0,0.0,0.0,0.0,0.0,5.0712,5.0712,0.0,0.0,0.0,0.0,0.0,0.0,0.0,0.0,0.0,5.0712,5.0712,5.0712,5.0712,5.0712,5.0712,5.0712,5.0712,5.0712,5.0712,5.0712,5.0712,5.0712,5.0712,5.0712,5.0712,5.0712,5.0712,5.0712,5.0712,5.0712,5.0712,5.0712,5.0712,5.0712,5.0712,5.0712,5.0712,5.0712,5.0712,0.0,0.0,0.0,5.0712,5.0712,5.0712,5.0712,5.0712,5.0712,5.0712,5.0712,5.0712,5.0712,5.0712,5.0712,5.0712,5.0712,5.0712,5.0712,5.0712,5.0712,5.0712,5.0712,5.0712,5.0712,5.0712,5.0712,5.0712,5.0712,5.0712,5.0712,5.0712,5.0712,5.0712,5.0712,5.0712,5.0712,5.0712,5.0712,5.0712,5.0712,5.0789,5.1241,5.2077,5.2933,5.3818,5.4664,5.5357,5.5703,5.5703,5.5703,5.5703,5.5703,5.5703,5.5703,5.5703,5.5703,5.5703,5.5703,5.5703,5.5703,5.5703,5.5703,5.6175,5.683,0.0,0.0,0.0,0.0,0.0,0.0,0.0,0.0,0.0,0.0,0.0,5.0712,0.0,0.0,0.0,0.0,0.0,0.0,0.0,0.0,0.0,5.0712,5.0712,5.0712,5.0712,5.0712,5.0712,5.0712,5.0712,5.0712,5.0712,5.0712,5.0712,5.0712,5.0712,5.0712,5.0712,5.0712,5.0712,5.0712,5.0712,5.0712,5.0712,5.0712,5.0712,5.0712,5.0712,5.0712,5.0712,5.0712,5.0712,5.0712,5.0712,0.0,0.0,0.0,5.0712,5.0712,5.0712,5.0712,5.0712,5.0712,5.0712,5.0712,5.0712,5.0712,5.0712,5.0712,5.0712,5.0712,5.0712,5.0712,5.0712,5.0712,5.0712,5.0712,5.0712,5.0712,5.0712,5.0712,5.0712,5.0712,5.0712,5.0712,5.0712,5.0712,5.0712,5.0712,5.0712,5.0712,5.0712,5.0712,5.0712,5.1087,5.1885,5.2769,5.3857,5.5164,5.5511,5.5703,5.5703,5.5703,5.5703,5.5703,5.5703,5.5703,5.5703,5.5703,5.5703,5.5703,5.5703,5.6011,5.6445,5.6445,5.6973,5.7742,0.0,0.0,0.0,0.0,0.0,0.0,0.0,0.0,0.0,0.0,0.0,0.0,0.0,0.0,0.0,0.0,0.0,0.0,0.0,0.0,0.0,5.0712,5.0712,5.0712,5.0712,5.0712,5.0712,5.0712,5.0712,5.0712,5.0712,5.0712,5.0712,5.0712,5.0712,5.0712,5.0712,5.0712,5.0712,5.0712,5.0712,5.0712,5.0712,5.0712,5.0712,5.0712,5.0712,5.0712,5.0712,5.0712,5.0712,5.0712,5.0712,5.0712,0.0,0.0,0.0,5.0712,5.0712,5.0712,5.0712,5.0712,5.0712,5.0712,5.0712,5.0712,5.0712,5.0712,5.0712,5.0712,5.0712,5.0712,5.0712,5.0712,5.0712,5.0712,5.0712,5.0712,5.0712,5.0712,5.0712,5.0712,5.0712,5.0712,5.0712,5.0712,5.0712,5.0712,5.0712,5.0712,5.0712,5.0712,5.0712,5.0971,5.1587,5.2664,5.4049,5.5703,5.5703,5.5703,5.5703,5.5703,5.5703,5.5703,5.5703,5.5703,5.5703,5.5703,5.5703,5.5703,5.5934,5.6445,5.7022,5.7253,5.7857,5.8588,0.0,0.0,0.0,0.0,0.0,0.0,0.0,0.0,0.0,0.0,0.0,0.0,5.0712,5.0712,5.0712,5.0712,5.0712,0.0,0.0,0.0,0.0,5.0712,5.0712,0.0,5.0712,5.0712,5.0712,5.0712,5.0712,5.0712,5.0712,5.0712,5.0712,5.0712,5.0712,5.0712,5.0712,5.0712,5.0712,5.0712,5.0712,5.0712,5.0712,5.0712,5.0712,5.0712,5.0712,5.0712,5.0712,5.0712,5.0712,5.0712,5.0712,5.0712,5.0712,0.0,0.0,0.0,5.0712,5.0712,5.0712,5.0712,5.0712,5.0712,5.0712,5.0712,5.0712,5.0712,5.0712,5.0712,5.0712,5.0712,5.0712,5.0712,5.0712,5.0712,5.0712,5.0712,5.0712,5.0712,5.0712,5.0712,5.0712,5.0712,5.0712,5.0712,5.0712,5.0712,5.0712,5.0712,5.0712,5.0712,5.0712,5.0712,5.075,5.2395,5.4049,5.5703,5.5703,5.5703,5.5703,5.5703,5.5703,5.5703,5.5703,5.5703,5.5703,5.5703,5.5703,5.578,5.6599,5.6945,5.7099,5.7934,5.8742,5.9435,0.0,0.0,0.0,0.0,0.0,0.0,0.0,0.0,0.0,0.0,0.0,0.0,0.0,5.0712,5.0712,5.0712,5.0712,0.0,0.0,0.0,0.0,5.0712,5.0712,5.0712,5.0712,5.0712,5.0749,5.0819,5.0819,5.089,5.0966,5.0883,5.0819,5.0811,5.074,5.0712,5.0712,5.0712,5.0712,5.0712,5.0712,5.0712,5.0712,5.0712,5.0712,5.0712,5.0712,5.0712,5.0712,5.0712,5.0712,5.0712,5.0712,5.0712,5.0712,5.0712,5.0712,5.0712,5.0712,5.0712,5.0712,5.0712,5.0712,5.0712,5.0712,5.0712,5.0712,5.0712,5.0712,5.0712,5.0712,5.0712,5.0712,5.0712,5.0712,5.0712,5.0712,5.0712,5.0712,5.0712,5.0712,5.0712,5.0712,5.0712,5.0712,5.0712,5.0712,5.0712,5.0712,5.0712,5.0712,5.0712,5.0712,5.1202,5.2279,5.3433,5.4587,5.5703,5.5703,5.5703,5.5703,5.5703,5.5703,5.5703,5.5703,5.5703,5.5703,5.5703,5.6011,5.656,5.6868,5.7676,5.8627,5.8973,5.9627,6.0319,0.0,0.0,0.0,0.0,0.0,0.0,0.0,0.0,0.0,5.0712,0.0,0.0,0.0,0.0,5.0712,5.0712,5.0712,5.0712,5.0712,5.0712,5.0712,5.0712,5.0712,5.0712,5.0712,5.0712,5.0756,5.0889,5.0889,5.0985,5.1089,5.099,5.0952,5.0889,5.0859,5.0782,5.0712,5.0712,5.0721,5.0756,5.0756,5.0756,5.0756,5.0756,5.074,5.0721,5.0767,5.0756,5.0764,5.0803,5.0816,5.0756,5.0756,5.074,5.0712,5.0712,5.0712,5.0712,5.0712,5.0712,5.0712,5.0712,5.0712,5.0712,5.0712,5.0712,5.0712,5.0712,5.0712,5.0712,5.0712,5.0712,5.0712,5.0712,5.0712,5.0712,5.0712,5.0712,5.0712,5.0712,5.0712,5.0712,5.0712,5.0712,5.0712,5.0712,5.0712,5.0712,5.0712,5.0712,5.0712,5.0712,5.0971,5.1779,5.3203,5.4049,5.4895,5.5703,5.5703,5.5703,5.5703,5.5703,5.5703,5.5703,5.5703,5.5703,5.5703,5.6011,5.6483,5.706,5.7638,5.8511,5.955,5.9819,6.0281,6.0781,0.0,0.0,0.0,0.0,0.0,0.0,0.0,0.0,5.075,5.0789,0.0,0.0,0.0,0.0,0.0,5.0789,5.0789,5.0789,5.0789,5.0789,5.075,5.075,0.0,0.0,5.0712,5.0712,5.0756,5.0889,5.0889,5.0985,5.1099,5.1094,5.102,5.0911,5.1031,5.0959,5.0721,5.0721,5.0773,5.0882,5.0882,5.0882,5.0889,5.0889,5.0811,5.0721,5.0867,5.0896,5.0925,5.1047,5.0996,5.0889,5.0882,5.0816,5.0712,5.0712,5.0712,5.0712,0.0,0.0,0.0,5.0712,5.0712,5.0712,5.0712,5.0712,5.0712,5.0712,5.0712,5.0712,5.0712,5.0712,5.0712,5.0712,5.0712,5.0712,5.0712,5.0712,5.0712,5.0712,5.0712,5.0712,5.0712,5.0712,5.0712,5.0712,5.0712,5.0712,5.0712,5.0712,5.0712,5.0712,5.151,5.2346,5.3203,5.4087,5.4934,5.5703,5.5703,5.5703,5.5703,5.5703,5.5703,5.5703,5.5703,5.5703,5.578,5.6637,5.7022,5.7253,5.8858,5.9511,5.9627,6.0473,6.0781,6.0781,0.0,0.0,0.0,0.0,0.0,5.0894,5.1471,5.1587,5.1779,0.0,0.0,0.0,5.251,5.251,5.251,5.251,5.251,5.251,5.251,5.251,5.2241,5.1587,5.1587,5.1318,5.0712,5.0712,5.0756,5.0889,5.0889,5.1008,5.1171,5.1135,5.1122,5.1129,5.1014,5.0911,5.0844,5.0844,5.0825,5.0776,5.0776,5.0795,5.0889,5.0889,5.0939,5.0978,5.102,5.1036,5.1042,5.1079,5.0996,5.0867,5.0791,5.073,5.0712,5.0712,5.0712,5.0712,5.0712,0.0,0.0,0.0,0.0,0.0,5.0712,5.0712,5.0712,5.0712,5.0712,5.0712,5.0712,5.0712,5.0712,5.0712,5.0712,5.0712,5.0712,5.0712,5.0712,5.0712,5.0712,5.0712,5.0712,5.0712,5.0712,5.0712,5.0712,5.0712,5.0712,5.0712,5.0712,5.0712,5.2087,5.2972,5.3203,5.4626,5.5472,5.5703,5.5703,5.5703,5.5703,5.5703,5.5703,5.5703,5.5703,5.6049,5.6676,5.6907,5.7715,5.8858,5.9319,5.9896,6.0473,6.0704,6.0781,6.0781,0.0,0.0,0.0,5.1741,5.1741,5.1895,5.2346,5.2423,5.2615,0.0,0.0,0.0,5.3203,5.3203,5.3203,5.3203,5.3203,5.3203,5.3203,5.3203,5.2972,5.2462,5.2423,5.2241,5.1741,5.1741,5.1826,5.1927,5.1927,5.1874,5.1742,5.165,5.1442,5.1147,5.1047,5.0959,5.0896,5.0972,5.0945,5.0883,5.0883,5.092,5.1025,5.1025,5.1074,5.1099,5.1113,5.1129,5.1133,5.121,5.1131,5.0972,5.0811,5.0758,5.0712,5.0712,5.0712,5.0712,5.0712,5.0712,5.0712,5.0712,0.0,0.0,5.0712,5.0712,5.0712,5.0712,5.0712,5.0712,5.0712,5.0712,5.0712,5.0712,5.0712,5.0712,5.0712,5.0712,5.0712,5.0712,5.0712,5.0712,5.0712,5.0712,5.0712,5.0712,5.0712,5.0712,5.0712,5.0712,5.0856,5.1202,5.251,5.3356,5.3741,5.5049,5.5703,5.5703,5.5703,5.5703,5.5703,5.5703,5.5703,5.5703,5.6088,5.6742,5.755,5.7896,5.8627,5.955,5.9896,6.0358,6.0781,6.0781,6.0781,6.0781,0.0,0.0,5.3203,5.3203,5.3203,5.3241,5.3318,5.3356,5.3395,0.0,5.3472,5.3472,5.3472,5.3472,5.3472,5.3472,5.3472,5.3472,5.3472,5.3472,5.3433,5.3356,5.3356,5.3318,5.3203,5.3203,5.3273,5.3359,5.3359,5.3113,5.2607,5.2475,5.2051,5.1385,5.1371,5.1264,5.1082,5.1203,5.1176,5.1113,5.1099,5.1125,5.1204,5.1204,5.1164,5.1148,5.1191,5.1213,5.1258,5.1324,5.1249,5.1089,5.0979,5.0819,5.0712,5.0712,5.0693,5.0712,5.0712,5.0712,5.0712,5.0712,5.0712,0.0,5.0712,5.0712,5.0712,5.0712,5.0712,5.0712,5.0712,5.0712,5.0712,5.0712,5.0712,5.0712,5.0712,5.0712,5.0712,5.0712,5.0712,5.0712,5.0712,5.0712,5.0712,5.0712,5.0712,5.0712,5.0712,5.0712,5.1087,5.1885,5.2741,5.3626,5.4472,5.528,5.5703,5.5703,5.5703,5.5703,5.5703,5.5703,5.5742,5.5895,5.6676,5.755,5.8511,5.9204,5.955,5.9704,6.0512,6.0781,6.0781,6.0781,6.0781,6.0781,0.0,5.3203,5.3203,5.3203,5.3203,5.3433,5.4126,5.4241,5.4472,5.5126,5.5203,5.5203,5.5203,5.5203,5.5203,5.5203,5.5203,5.5203,5.5203,5.5203,5.4934,5.428,5.4241,5.3933,5.3241,5.3203,5.3223,5.3234,5.3234,5.3228,5.3236,5.3201,5.3213,5.3277,5.316,5.2771,5.2171,5.2104,5.1736,5.1177,5.1131,5.1125,5.1204,5.1204,5.1263,5.1321,5.1364,5.1365,5.1364,5.1268,5.1204,5.1167,5.1094,5.0985,5.0867,5.0867,5.0782,5.0712,5.0712,5.0712,5.0712,5.0712,5.0712,0.0,5.0712,5.0712,5.0712,5.0712,5.0712,5.0712,5.0712,5.0712,5.0712,5.0712,5.0712,5.0712,5.0712,5.0712,5.0712,5.0712,5.0712,5.0712,5.0712,5.0712,5.0712,5.0712,5.0712,5.0712,5.0712,5.0712,5.1087,5.1885,5.2741,5.3626,5.4472,5.528,5.5703,5.5703,5.5703,5.5703,5.5703,5.5703,5.6088,5.6753,5.6945,5.7857,5.9281,5.9435,5.9896,6.055,6.0742,6.0781,6.0781,6.0781,6.0781,6.0781,5.4434,5.4434,5.4434,5.4434,5.4434,5.4587,5.5011,5.5088,5.5241,5.5665,5.5703,5.5703,5.5703,5.5703,5.5703,5.5703,5.5703,5.5703,5.5703,5.5703,5.5511,5.5126,5.5143,5.4977,5.4553,5.4636,5.4692,5.4692,5.4692,5.4555,5.4241,5.4167,5.4022,5.3774,5.3645,5.3428,5.3155,5.3078,5.2871,5.2524,5.1528,5.1191,5.1316,5.1316,5.1324,5.1406,5.1406,5.1406,5.1406,5.1321,5.1265,5.1191,5.1131,5.099,5.0905,5.0803,5.0767,5.0712,5.0712,5.0712,5.0712,5.0712,5.0712,0.0,0.0,5.0712,5.0712,5.0712,5.0712,5.0712,5.0712,5.0712,5.0712,5.0712,5.0712,5.0712,5.0712,5.0712,5.0712,5.0712,5.0712,5.0712,5.0712,5.0712,5.0712,5.0712,5.0712,5.0712,5.0712,5.1087,5.1664,5.25,5.3395,5.4241,5.5088,5.5511,5.5703,5.5703,5.5703,5.5703,5.5703,5.6137,5.6599,5.706,5.7857,5.8704,5.955,5.9973,6.0396,6.0781,6.0781,6.0781,6.0781,6.0781,6.0781,6.0781,5.5703,5.5703,5.5703,5.5703,5.5703,5.5703,5.5703,5.5703,5.5703,5.5703,5.5703,5.5703,5.5703,5.5703,5.5703,5.5703,5.5703,5.5703,5.5703,5.5703,5.5703,5.5703,5.5834,5.5915,5.5915,5.611,5.6191,5.6191,5.6191,5.5896,5.5311,5.5195,5.4866,5.4287,5.418,5.4121,5.4072,5.4072,5.4052,5.3867,5.2366,5.1786,5.1914,5.1914,5.1914,5.1914,5.1914,5.1914,5.1914,5.1914,5.183,5.172,5.1459,5.1297,5.1111,5.0863,5.0749,5.0712,5.0712,5.0712,5.0712,5.0712,5.0712,5.0712,0.0,0.0,0.0,5.0712,5.0712,5.0712,5.0712,5.0712,5.0712,5.0712,5.0712,5.0712,5.0712,5.0712,5.0712,5.0712,5.0712,5.0712,5.0712,5.0712,5.0712,5.0712,5.0712,5.0712,5.0712,5.1471,5.2308,5.3164,5.4049,5.4895,5.5703,5.5703,5.5703,5.5703,5.5703,5.578,5.5972,5.6676,5.7176,5.7561,5.8896,5.9588,5.9819,6.0512,6.0781,6.0781,6.0781,6.0781,6.0781,6.0781,6.0781,6.0781,5.5703,5.5703,5.5703,5.5703,5.5703,5.5703,5.5703,5.5703,5.5703,5.5703,5.5703,5.5703,5.5703,5.5703,5.5703,5.5703,5.5703,5.5703,5.5703,5.5703,5.5703,5.5703,5.5834,5.5915,5.5915,5.611,5.6191,5.6191,5.6191,5.6163,5.6057,5.6046,5.6065,5.6118,5.611,5.5712,5.5117,5.5117,5.4687,5.3984,5.3789,5.3671,5.3711,5.3711,5.3711,5.3711,5.3711,5.3711,5.3711,5.3711,5.3672,5.3554,5.2771,5.2325,5.2007,5.1286,5.0905,5.0712,5.0712,5.0712,5.0712,5.0712,5.0712,5.0712,5.0712,0.0,5.0712,5.0712,0.0,5.0712,5.0712,0.0,0.0,5.0712,5.0712,5.0712,5.0712,5.0712,5.0712,5.0712,5.0712,5.0712,5.0712,5.0712,5.0712,5.0712,5.0712,5.0712,5.0712,5.1471,5.2308,5.3164,5.4049,5.4895,5.5703,5.5703,5.5703,5.5703,5.5703,5.6088,5.6868,5.6945,5.783,5.9242,5.9435,5.9935,6.0666,6.0742,6.0781,6.0781,6.0781,6.0781,6.0781,6.0781,6.0781,6.0781,5.5703,5.5703,5.5703,5.5703,5.5703,5.5703,5.5703,5.5703,5.5703,5.5703,5.5703,5.5703,5.5703,5.5703,5.5703,5.5703,5.5703,5.5703,5.5703,5.5703,5.5703,5.5703,5.5834,5.5939,5.6091,5.6237,5.6365,5.6448,5.6448,5.6448,5.6448,5.6448,5.6402,5.6389,5.6389,5.625,5.5957,5.5957,5.5774,5.5508,5.5419,5.5372,5.5296,5.4374,5.3984,5.3984,5.3984,5.3984,5.3984,5.3984,5.3984,5.3905,5.3394,5.3202,5.3073,5.2489,5.2274,5.2254,5.2175,5.2164,5.2164,5.2164,5.1779,5.1395,5.1395,5.1048,5.0712,5.0712,0.0,0.0,0.0,0.0,0.0,0.0,5.0712,5.0712,5.0712,5.0712,5.0712,5.0712,5.0712,5.0712,5.0712,5.0712,5.0712,5.0712,5.0712,5.0894,5.1356,5.2202,5.3049,5.3933,5.4741,5.5357,5.5703,5.5703,5.5703,5.5703,5.5703,5.6175,5.7022,5.7511,5.8396,5.9511,6.0012,6.0473,6.0781,6.0781,6.0781,6.0781,6.0781,6.0781,6.0781,6.0781,6.0781,6.0781,5.6395,5.6011,5.5703,5.5703,5.5703,5.578,5.6011,5.6242,5.6395,5.6395,5.6395,5.6395,5.6395,5.6395,5.6395,5.6395,5.6395,5.6319,5.6049,5.628,5.6203,5.5703,5.6066,5.6248,5.6191,5.6347,5.646,5.6601,5.6601,5.6601,5.6601,5.656,5.6507,5.6389,5.6368,5.6358,5.6358,5.6358,5.6391,5.6465,5.6383,5.6358,5.6209,5.5049,5.4592,5.4592,5.4592,5.4592,5.4592,5.4592,5.4592,5.4543,5.4108,5.4017,5.3935,5.3426,5.3317,5.3331,5.3214,5.3203,5.3203,5.3203,5.2731,5.2269,5.2269,5.1818,5.1395,5.1395,5.1395,0.0,0.0,0.0,5.101,5.101,0.0,5.0712,5.0712,5.0712,5.0712,5.0712,5.0712,5.0712,5.0712,5.0712,5.0712,5.0712,5.0712,5.1048,5.1846,5.2741,5.3587,5.4472,5.528,5.5703,5.5703,5.5703,5.5703,5.5703,5.5934,5.6511,5.7396,5.8242,5.9088,5.9896,6.0512,6.0781,6.0793,6.0834,6.0828,6.0877,6.0913,6.0943,6.0923,6.085,6.0839,6.0828,5.8204,5.6857,5.5703,5.5703,5.5703,5.5972,5.683,5.7665,5.8204,5.8204,5.8204,5.8204,5.8204,5.8204,5.8204,5.8204,5.8204,5.7857,5.7022,5.7742,5.7473,5.578,5.6646,5.6869,5.623,5.6347,5.646,5.6601,5.6601,5.6601,5.6601,5.646,5.6391,5.6386,5.6256,5.6202,5.6202,5.6202,5.6202,5.6207,5.6202,5.6202,5.6202,5.6163,5.6129,5.6129,5.6129,5.6129,5.6129,5.6129,5.6129,5.5969,5.5136,5.477,5.4514,5.3631,5.3317,5.3213,5.3203,5.3203,5.3203,5.3203,5.3164,5.3164,5.3164,5.3126,5.3126,5.3126,5.3126,5.3126,5.3126,0.0,0.0,0.0,0.0,0.0,0.0,5.0712,5.0712,5.0712,5.0712,5.0712,5.0712,5.0712,5.0712,5.0712,5.0712,5.1048,5.1846,5.2741,5.3587,5.4472,5.528,5.5703,5.5703,5.5703,5.5703,5.5703,5.656,5.7396,5.828,5.9088,5.9935,6.0742,6.0781,6.0781,6.0804,6.0925,6.0988,6.1014,6.1207,6.1271,6.1234,6.0913,6.0892,6.0988,5.8319,5.7819,5.7434,5.7434,5.7434,5.7511,5.7819,5.8127,5.8319,5.8319,5.8319,5.8319,5.8319,5.8319,5.8319,5.8319,5.8319,5.8165,5.7896,5.8127,5.805,5.7434,5.7752,5.7844,5.7722,5.7786,5.7854,5.7977,5.7977,5.7705,5.7127,5.7091,5.6713,5.6071,5.6012,5.5984,5.5984,5.5984,5.6097,5.6191,5.6191,5.6064,5.5887,5.6116,5.6191,5.6191,5.6191,5.6191,5.6191,5.6191,5.6191,5.6136,5.5708,5.5637,5.5605,5.5091,5.493,5.4957,5.487,5.4911,5.4993,5.4993,5.4577,5.4199,5.4199,5.3735,5.3297,5.3243,5.3272,5.3297,5.3233,0.0,0.0,0.0,0.0,0.0,0.0,5.2051,5.1589,5.1491,5.101,5.0712,5.0712,5.0712,5.0712,5.0712,5.1202,5.1856,5.2692,5.3587,5.4434,5.528,5.5549,5.5703,5.5703,5.5703,5.5972,5.656,5.6868,5.7742,5.9088,5.9396,6.0008,6.0916,6.0916,6.1009,6.1143,6.1172,6.12,6.1207,6.1265,6.1283,6.1271,6.115,6.1143,6.1278,5.9204,5.9204,5.9011,5.8396,5.855,5.8742,5.8742,5.8973,5.9204,5.9204,5.9204,5.9204,5.9204,5.9204,5.9204,5.9204,5.9204,5.905,5.8742,5.9011,5.8934,5.8319,5.8588,5.868,5.8501,5.8501,5.8568,5.8698,5.8698,5.8431,5.7854,5.7794,5.7434,5.6806,5.6759,5.6777,5.6814,5.6496,5.6463,5.6586,5.6308,5.6071,5.5896,5.6116,5.6158,5.6116,5.6175,5.6191,5.6186,5.6128,5.611,5.6078,5.5874,5.5907,5.5963,5.5768,5.575,5.5825,5.5789,5.5843,5.5939,5.5969,5.561,5.5228,5.5228,5.4802,5.4379,5.4279,5.4328,5.4379,5.4271,5.4014,0.0,0.0,0.0,0.0,0.0,5.3052,5.2588,5.2531,5.1441,5.0827,5.1087,5.1125,5.1241,5.1548,5.2087,5.2731,5.3626,5.4203,5.4857,5.5665,5.5703,5.5703,5.5703,5.5703,5.6137,5.6983,5.733,5.8165,5.9511,5.9819,6.0331,6.0997,6.0997,6.112,6.1289,6.1344,6.1364,6.1369,6.1409,6.1424,6.1417,6.1328,6.1518,6.1958,6.0781,6.0781,6.0281,5.8704,5.905,5.955,5.955,6.0281,6.0781,6.0781,6.0781,6.0781,6.0781,6.0781,6.0781,6.0781,6.0781,6.0435,5.9627,6.0319,6.0089,5.8511,5.9165,5.9286,5.8639,5.8609,5.8661,5.879,5.879,5.879,5.8752,5.8622,5.8532,5.8475,5.8361,5.8364,5.8449,5.7628,5.7324,5.7409,5.663,5.6319,5.6314,5.6324,5.6233,5.6056,5.6141,5.6191,5.6169,5.5962,5.5893,5.5899,5.575,5.5707,5.5707,5.5707,5.5707,5.5768,5.5883,5.5901,5.5962,5.6169,5.6202,5.6202,5.6202,5.6202,5.6202,5.6197,5.6197,5.6202,5.6197,5.5535,0.0,0.0,0.0,0.0,5.3726,5.3687,5.3687,5.3677,5.1982,5.1154,5.1924,5.1991,5.2328,5.3146,5.3261,5.3636,5.4472,5.4521,5.4916,5.5665,5.5703,5.5714,5.5724,5.5763,5.6235,5.7103,5.7978,5.8825,5.9634,6.0442,6.0913,6.1031,6.1031,6.115,6.1318,6.1474,6.1509,6.1515,6.1715,6.1797,6.1795,6.1478,6.2054,6.3081,6.0781,6.0781,6.0666,6.0242,6.0319,6.0473,6.0473,6.0666,6.0781,6.0781,6.0781,6.0781,6.0781,6.0781,6.0781,6.0781,6.0781,6.0704,6.0473,6.0666,6.0589,6.0165,6.0358,6.0392,6.0201,6.0201,6.0233,6.0257,6.0257,5.9948,5.9292,5.9269,5.8929,5.834,5.8314,5.8364,5.8496,5.8256,5.8224,5.8359,5.8246,5.8156,5.8096,5.8358,5.8314,5.7957,5.6646,5.6191,5.6186,5.6146,5.6135,5.6128,5.6084,5.6071,5.6071,5.6071,5.6071,5.6078,5.6122,5.6212,5.6289,5.6354,5.6358,5.6358,5.6358,5.6358,5.634,5.6212,5.6269,5.6336,5.6212,5.6036,5.5916,0.0,0.0,0.0,5.5708,5.512,5.4671,5.4582,5.3462,5.2825,5.312,5.308,5.3103,5.3335,5.3953,5.4378,5.4483,5.5161,5.5595,5.5714,5.5703,5.5768,5.5831,5.6506,5.7287,5.8284,5.9145,6.0,6.084,6.1073,6.1253,6.1387,6.1387,6.1449,6.1587,6.1634,6.1637,6.1715,6.2382,6.3047,6.3554,6.2843,6.3545,6.4919,6.0781,6.0781,6.0781,6.0781,6.0781,6.0781,6.0781,6.0781,6.0781,6.0781,6.0781,6.0781,6.0781,6.0781,6.0781,6.0781,6.0781,6.0781,6.0781,6.0781,6.0781,6.0781,6.0781,6.085,6.0902,6.0902,6.0902,6.0902,6.0902,6.0608,6.0089,6.0089,5.9819,5.9396,5.9396,5.9482,5.9589,5.9335,5.9134,5.8922,5.8996,5.8992,0.0,5.9136,5.9138,5.8886,5.7877,5.7512,5.7506,5.7428,5.7373,5.7286,5.6879,5.6703,5.6664,5.6308,5.6191,5.6207,5.626,5.6354,5.6397,5.6462,5.6506,5.6506,5.6506,5.6506,5.646,5.6386,5.6448,5.646,5.6386,5.6377,5.6391,5.6463,5.6559,5.6562,5.6508,5.6079,5.572,5.5645,5.5131,5.4847,5.4898,5.4291,5.4094,5.4582,5.4931,5.515,5.5113,5.5566,5.5789,5.5714,5.5703,5.5952,5.6466,5.6947,5.7906,5.9271,5.9783,6.0478,6.1283,6.1283,6.1364,6.1504,6.1504,6.1579,6.1719,6.1719,6.1914,6.2344,6.3242,6.4101,6.4805,6.4336,6.4765,6.5664,6.0781,6.0781,6.0781,6.0781,6.0781,6.0781,6.0781,6.0781,6.0781,6.0781,6.0781,6.0781,6.0781,6.0781,6.0781,6.0781,6.0781,6.0781,6.0781,6.0781,6.0781,6.0781,6.0781,6.0867,6.0991,6.0988,6.0988,6.0952,6.0988,6.0916,6.0781,6.0781,6.0804,6.085,6.085,6.0905,6.1035,6.0586,6.0061,5.9531,5.9531,5.9531,5.9531,5.9531,5.9531,5.9531,5.9531,5.9375,5.9179,5.9,5.8944,5.8777,5.7922,5.7653,5.7498,5.6792,5.6597,5.6619,5.674,5.6755,5.6807,5.6913,5.6953,5.6953,5.6953,5.6836,5.6758,5.6758,5.668,5.6601,5.6601,5.6601,5.6601,5.6601,5.6601,5.6601,5.6601,5.6601,5.6601,5.6601,5.6562,0.0,5.6601,5.5491,5.5155,5.6163,5.5939,5.5816,5.5915,5.5798,5.5748,5.5714,5.5822,5.6319,5.7219,5.7482,5.8409,6.003,6.019,6.0614,6.1344,6.1344,6.1404,6.1517,6.1517,6.1584,6.1719,6.1836,6.2461,6.3437,6.418,6.5,6.5781,6.5781,6.5781,6.5898,6.0781,6.0781,6.0781,6.0781,6.0781,6.0781,6.0781,6.0781,6.0781,6.0781,6.0781,6.0781,6.0781,6.0781,6.0781,6.0781,6.0781,6.0781,6.0781,6.0781,6.0781,6.0781,6.0781,6.0816,6.0823,6.0935,6.0944,6.0823,6.0944,6.0916,6.0781,6.0781,6.0877,6.0973,6.0973,6.1119,6.1424,6.1431,6.1366,6.125,6.125,6.125,6.125,6.125,6.125,6.125,6.125,6.0351,5.918,5.9179,5.9139,5.9138,5.894,5.8861,5.8861,5.8705,5.8666,5.8667,5.8709,5.8709,5.871,5.875,5.875,5.875,5.875,5.8203,5.7656,5.7656,5.7109,5.6601,5.6601,5.6601,5.6601,5.6601,5.6601,5.6601,5.6601,5.6601,5.6601,5.6601,5.651,5.6463,5.6601,5.6282,5.6141,5.6368,5.6301,5.6158,5.5893,5.6044,5.6009,5.5724,5.6511,5.7071,5.737,5.8888,5.9907,6.0344,6.1048,6.1477,6.1633,6.1633,6.1636,6.1678,6.1678,6.1679,6.1758,6.2461,6.3711,6.5156,6.5312,6.5898,6.668,6.668,6.668,6.668,6.0781,6.0781,6.0781,6.0781,6.0781,6.0935,6.1408,6.1485,6.132,6.0858,6.0781,6.0781,6.0781,6.1204,6.1281,6.0819,6.1204,6.1293,6.0819,6.0781,6.0781,6.0781,6.0781,6.0888,6.1044,6.1006,6.1065,6.1172,6.1165,6.1112,6.1044,6.1044,6.1103,6.1165,6.1165,6.1267,6.1507,6.1577,6.1634,6.1719,6.1719,6.1719,6.1719,6.1719,6.1719,6.1719,6.1719,6.1172,6.0508,6.0508,6.0508,6.043,5.9961,5.9805,5.9726,5.9336,5.9219,5.9219,5.9219,5.9219,5.9219,5.9219,5.9219,5.9219,5.9219,5.8867,5.8555,5.8555,5.8242,5.7969,5.7969,5.7969,5.7812,5.7344,5.7265,5.7109,5.664,5.6601,5.6601,5.6601,5.6558,5.6517,5.6601,5.6558,5.6463,5.6391,5.6351,5.6163,5.5893,5.6104,5.6278,5.6473,5.704,5.7803,5.8831,5.9736,6.0485,6.1094,6.1484,6.1719,6.1719,6.1719,6.1719,6.1719,6.1719,6.1953,6.2461,6.3789,6.4844,6.5625,6.6094,6.6523,6.6914,6.6914,6.6914,6.6914,6.0781,6.0935,6.1089,6.1089,6.1204,6.155,6.2243,6.237,6.2089,6.1435,6.132,6.132,6.132,6.1935,6.2089,6.1396,6.1973,6.205,6.1396,6.132,6.132,6.132,6.1166,6.1193,6.1476,6.1142,6.1126,6.1404,6.1328,6.1205,6.1011,6.1205,6.1306,6.1334,6.1364,6.1424,6.1525,6.1525,6.1588,6.1719,6.1719,6.1719,6.1719,6.1719,6.1719,6.1719,6.1719,6.1719,6.1719,6.1719,6.1719,6.1562,6.0898,6.0664,6.0547,5.9922,5.9726,5.9726,5.9726,5.9726,5.9726,5.9726,5.9726,5.9726,5.9726,5.9609,5.9453,5.9453,5.9336,5.9219,5.9219,5.9219,5.8984,5.8281,5.8164,5.793,5.7265,5.7148,5.707,5.6914,5.6875,5.6797,5.6601,5.6601,5.6558,5.6394,5.6347,5.6295,5.629,5.6447,5.6836,5.7489,5.7848,5.8706,6.0182,6.039,6.0923,6.1719,6.1719,6.1719,6.1719,6.1719,6.1719,6.1719,6.1914,6.2578,6.3672,6.5039,6.5703,6.5937,6.664,6.6914,6.6914,6.6914,6.7031,6.7187,6.0781,6.1435,6.1985,6.1985,6.2589,6.3077,6.3166,6.3205,6.3166,6.3089,6.3089,6.3089,6.3089,6.3128,6.3166,6.3089,6.3128,6.3166,6.3089,6.3089,6.3089,6.3089,6.2358,6.2009,6.2028,6.136,6.1023,6.1065,6.122,6.0894,6.0149,6.0933,6.1359,6.1495,6.1629,6.1678,6.1679,6.1679,6.1679,6.1719,6.1719,6.1719,6.1719,6.1719,6.1719,6.1719,6.1719,6.1719,6.1719,6.1719,6.1719,6.168,6.1601,6.1562,6.1562,6.1484,6.1484,6.1484,6.1484,6.1484,6.1484,6.1484,6.1484,6.1484,6.1484,6.0859,6.0273,6.0273,5.9726,5.9219,5.9219,5.9219,5.918,5.9101,5.9062,5.9062,5.8984,5.8945,5.8672,5.7851,5.7773,5.7461,5.668,5.6601,5.6558,5.6394,5.651,5.6863,5.7506,5.7548,5.7864,5.8532,5.9463,6.0021,6.0182,6.1085,6.1601,6.1719,6.1719,6.1719,6.1719,6.1719,6.1719,6.1758,6.2539,6.3828,6.5351,6.5547,6.6055,6.6797,6.6875,6.6914,6.6914,6.6914,6.7383,6.8086,6.232,6.2589,6.282,6.282,6.3089,6.3462,6.4012,6.4089,6.4436,6.5436,6.4243,6.3308,6.3308,6.3782,6.3858,6.3346,6.3782,6.3858,6.3308,6.3308,6.3308,6.3308,6.2974,6.2864,6.3001,6.2601,6.2462,6.2694,6.277,6.2697,6.2457,6.2912,6.3139,6.3195,6.3241,6.3242,6.3242,6.3242,6.3242,6.3242,6.3242,6.3242,6.3242,6.3242,6.3242,6.3242,6.3242,6.3242,6.3164,6.2656,6.2148,6.1719,6.1719,6.1719,6.1719,6.1719,6.1719,6.1719,6.1719,6.1719,6.1719,6.1719,6.1719,6.1719,6.1719,6.1445,6.1172,6.1172,6.0937,6.0703,6.0703,6.0703,6.0547,6.0,5.9922,5.9765,5.9258,5.9219,5.9062,5.8711,5.8672,5.8555,5.8203,5.8164,5.8124,5.8078,5.7655,5.7411,5.7494,5.8204,5.892,5.9591,6.0089,6.0578,6.1085,6.1483,6.1719,6.1719,6.1719,6.1719,6.1719,6.1719,6.1992,6.2578,6.3945,6.4961,6.5625,6.6172,6.6601,6.6914,6.6914,6.6914,6.6953,6.75,6.789,6.8281,6.3308,6.3512,6.3782,6.4012,6.4282,6.4705,6.559,6.5705,6.6128,6.7321,6.5936,6.482,6.482,6.5359,6.5474,6.4859,6.5128,6.5089,6.4474,6.4205,6.4051,6.4051,6.382,6.3762,6.3882,6.3504,6.3443,6.3719,6.3733,6.3708,6.3639,6.3745,6.3923,6.4158,6.4158,6.4203,6.4252,6.4252,6.4256,6.4297,6.4297,6.4297,6.4297,6.4297,6.4297,6.4297,6.4297,6.4297,6.4219,6.3594,6.2969,6.2383,6.1875,6.1719,6.1719,6.1719,6.1719,6.1719,6.1719,6.1719,6.1719,6.1719,6.1719,6.1719,6.1719,6.1719,6.1719,6.1719,6.1719,6.1719,6.1719,6.1719,6.1484,6.0898,6.0781,6.0586,6.0039,5.9922,5.9844,5.957,5.9531,5.9453,5.9219,5.9219,5.9219,5.9219,5.8867,5.8546,5.8304,5.9087,5.988,6.064,6.0739,6.1094,6.168,6.1719,6.1719,6.1719,6.1719,6.1719,6.1719,6.1953,6.2695,6.3828,6.5078,6.5742,6.6015,6.664,6.6914,6.6914,6.7187,6.7265,6.7383,6.8242,6.8711,6.9023,6.3308,6.4012,6.4859,6.5705,6.6513,6.7359,6.8244,6.8359,6.8359,6.8385,6.8359,6.8346,6.8346,6.8359,6.8359,6.8346,6.7552,6.7051,6.7051,6.632,6.5859,6.5859,6.5051,6.4589,6.4589,6.3743,6.3384,6.3621,6.3621,6.3222,6.251,6.251,6.2983,6.3806,6.3806,6.393,6.4115,6.4115,6.4195,6.4297,6.4297,6.4297,6.4297,6.4297,6.4297,6.4297,6.4297,6.4297,6.4297,6.4297,6.4297,6.3984,6.2226,6.1719,6.1719,6.1719,6.1719,6.1719,6.1719,6.1719,6.1719,6.1719,6.1719,6.1719,6.1719,6.1719,6.1719,6.1719,6.1719,6.1719,6.1719,6.1719,6.1719,6.168,6.168,6.168,6.168,6.168,6.1367,6.0508,6.039,6.0078,5.9297,5.9219,5.9219,5.9219,5.9922,6.0351,6.0351,6.039,6.0781,6.164,6.168,6.168,6.1719,6.1719,6.1719,6.1719,6.1719,6.1719,6.1719,6.2578,6.3945,6.5586,6.5586,6.6094,6.6875,6.6914,6.6914,6.6992,6.7851,6.8164,6.8281,6.914,7.0,7.0664,6.6782,6.7013,6.7282,6.7552,6.7821,6.809,6.8359,6.8385,6.8629,6.9206,6.9283,6.9513,7.0052,6.909,6.8385,6.8385,6.8167,6.7975,6.7975,6.7744,6.759,6.759,6.6782,6.6282,6.6282,6.5513,6.51,6.5157,6.5237,6.5289,6.5277,6.5183,6.5441,6.5911,6.578,6.573,6.58,6.5959,6.5964,6.5872,6.6014,6.6055,6.6055,6.6055,6.6055,6.6055,6.6055,6.6055,6.5976,6.539,6.5195,6.5,6.3828,6.3476,6.3476,6.3476,6.3047,6.2578,6.2578,6.2148,6.1719,6.1719,6.1719,6.1719,6.1719,6.1719,6.1719,6.1719,6.1719,6.1719,6.1719,6.1719,6.1719,6.1719,6.1719,6.1719,6.1719,6.1719,6.1601,6.1328,6.1289,6.1172,6.0937,6.0898,6.0898,6.0898,6.1133,6.1015,6.043,6.0976,6.1406,6.168,6.1719,6.1719,6.1719,6.1719,6.1719,6.1719,6.1719,6.1992,6.2656,6.4101,6.5078,6.5625,6.6211,6.664,6.6914,6.6914,6.7265,6.7812,6.8086,6.8555,6.9101,7.0,7.0469,7.0781,6.8385,6.8385,6.85,6.8821,6.8898,6.9013,6.9283,6.936,6.9552,7.009,7.0167,7.036,7.086,6.9975,6.936,6.936,6.9052,6.8898,6.8898,6.859,6.8385,6.8385,6.7898,6.759,6.759,6.709,6.6859,6.6859,6.6603,6.6438,6.6354,6.6267,6.6305,6.6532,6.6399,6.6423,6.6525,6.6664,6.6727,6.6737,6.6834,6.6914,6.6914,6.6914,6.6914,6.6914,6.6914,6.6914,6.6836,6.6289,6.6094,6.5976,6.5469,6.5273,6.5156,6.4492,6.3906,6.3476,6.3476,6.3086,6.2617,6.2265,6.2187,6.2109,6.1758,6.1719,6.1719,6.1719,6.1719,6.1719,6.1719,6.1719,6.1719,6.1719,6.1719,6.1719,6.1719,6.1719,6.1719,6.1719,6.1719,6.1719,6.1719,6.1719,6.1719,6.1719,6.1719,6.1445,6.0937,6.1406,6.1719,6.1719,6.1719,6.1719,6.1719,6.1719,6.1875,6.2187,6.2539,6.3125,6.4023,6.5117,6.5781,6.6133,6.664,6.6914,6.6914,6.7265,6.7695,6.8242,6.8906,6.9453,7.0,7.0859,7.1172,7.1289,6.8577,6.8577,6.8821,6.9629,6.9783,7.0052,7.0783,7.0898,7.0898,7.0898,7.0898,7.0898,7.0898,7.0898,7.0898,7.0898,7.0206,6.9783,6.9783,6.9013,6.8577,6.8577,6.8513,6.8513,6.8513,6.8436,6.8385,6.8385,6.759,6.6795,6.6089,6.6064,6.6076,6.6126,6.6126,6.6283,6.6581,6.6606,6.6791,6.707,6.707,6.707,6.707,6.707,6.707,6.707,6.707,6.707,6.707,6.707,6.7031,6.6992,6.6992,6.6953,6.6562,6.4961,6.4453,6.4375,6.4375,6.4336,6.4101,6.3281,6.3086,6.289,6.207,6.1836,6.1797,6.1797,6.1758,6.1719,6.1719,6.1719,6.1719,6.1719,6.1719,6.1719,6.1719,6.1719,6.1719,6.1719,6.1719,6.1719,6.1719,6.1719,6.1719,6.1719,6.1719,6.1719,6.1719,6.1719,6.1719,6.1719,6.1719,6.1719,6.1797,6.1797,6.2226,6.3086,6.3984,6.4805,6.5586,6.5664,6.6133,6.6914,6.6953,6.6992,6.707,6.793,6.832,6.8515,7.0078,7.0742,7.0898,7.1719,7.1992,7.1992,7.0321,7.0321,7.036,7.0591,7.0629,7.0667,7.086,7.0898,7.0898,7.0898,7.0898,7.0898,7.0898,7.0898,7.0898,7.0898,7.0744,7.0629,7.0629,7.0437,7.0321,7.0321,6.9706,6.9398,6.9398,6.8744,6.8385,6.8385,6.8205,6.8063,6.7972,6.7858,6.7961,6.8178,6.8194,6.8217,6.8313,6.858,6.8689,6.8679,6.8786,6.8828,6.8828,6.8867,6.8867,6.8867,6.8828,6.8828,6.8828,6.8867,6.8437,6.789,6.789,6.7422,6.6836,6.6406,6.582,6.5273,6.5273,6.4805,6.4258,6.4023,6.3984,6.3945,6.3711,6.3164,6.2695,6.2695,6.2148,6.1719,6.1719,6.1719,6.1719,6.1719,6.1719,6.1719,6.1719,6.1719,6.1719,6.1719,6.1719,6.1719,6.1719,6.1719,6.1719,6.1719,6.1719,6.1719,6.1719,6.1719,6.1719,6.1719,6.1719,6.2031,6.2695,6.2695,6.3125,6.3984,6.4883,6.539,6.5625,6.6289,6.6719,6.6953,6.7617,6.789,6.7969,6.8828,6.9531,7.0156,7.0547,7.1094,7.1719,7.1914,7.1992,7.1992,7.0898,7.0898,7.0898,7.0898,7.0898,7.0898,7.0898,7.0898,7.0898,7.0898,7.0966,7.1053,7.1053,7.1104,7.118,7.118,7.1004,7.0898,7.0898,7.0898,7.0898,7.0898,7.0475,7.0244,7.0244,6.9783,6.936,6.9013,6.9013,6.8835,6.8529,6.8437,6.854,6.8807,6.8703,6.8801,6.9031,6.9142,6.9221,6.928,6.9412,6.9414,6.9414,6.9453,6.9453,6.9453,6.9453,6.9414,6.9414,6.9453,6.914,6.875,6.8789,6.8437,6.8047,6.8047,6.7187,6.6172,6.6172,6.5859,6.539,6.5,6.4609,6.4297,6.4297,6.3945,6.3594,6.3594,6.3203,6.289,6.289,6.289,6.2773,6.2344,6.2305,6.2148,6.1758,6.1719,6.1719,6.1719,6.1719,6.1719,6.1719,6.1719,6.1875,6.2265,6.2305,6.2461,6.2851,6.289,6.2695,6.2305,6.2305,6.2695,6.3594,6.3984,6.4414,6.4883,6.5781,6.6172,6.6211,6.668,6.7109,6.7539,6.8008,6.8398,6.8828,6.9687,7.0312,7.0742,7.1133,7.1562,7.1992,7.1992,7.1992,7.1992,7.0898,7.0898,7.0898,7.0898,7.0898,7.0912,7.0927,7.094,7.0953,7.0966,7.1137,7.1242,7.1242,7.142,7.1478,7.1478,7.1201,7.0979,7.0979,7.0979,7.0979,7.0979,7.0979,7.0979,7.0979,7.0979,7.0645,6.9939,6.9939,6.9528,6.8783,6.8796,6.8903,6.9062,6.8933,6.917,6.9582,6.9426,6.954,6.9805,6.9844,6.9844,6.9805,6.9805,6.9805,6.9805,6.9844,6.9844,6.9805,6.9805,6.9726,6.9609,6.9648,6.957,6.9414,6.9414,6.8398,6.7265,6.7148,6.6992,6.6719,6.5976,6.5234,6.4687,6.4687,6.4609,6.4492,6.4492,6.4375,6.4297,6.4297,6.4297,6.4062,6.332,6.3203,6.293,6.2187,6.2109,6.2109,6.2109,6.2109,6.2109,6.2109,6.2109,6.2383,6.3125,6.3203,6.3515,6.4258,6.4297,6.4023,6.3398,6.3242,6.3594,6.4492,6.5351,6.5781,6.582,6.6562,6.6953,6.7109,6.7109,6.7578,6.8398,6.8515,6.8945,6.9648,7.0547,7.0898,7.0976,7.1719,7.1992,7.1992,7.1992,7.1992,7.1992,7.0898,7.0898,7.0898,7.0898,7.0898,7.0966,7.1115,7.1148,7.1203,7.1365,7.142,7.1435,7.1435,7.1464,7.1478,7.1478,7.1427,7.1428,7.1428,7.1428,7.1428,7.1428,7.1428,7.1428,7.1428,7.1428,7.1258,7.0965,7.0965,7.0792,7.0514,7.0687,7.0793,7.0815,7.1083,7.1218,7.1306,7.1467,7.156,7.1601,7.1601,7.1601,7.1601,7.1601,7.1601,7.1601,7.1601,7.1601,7.1601,7.1601,7.1094,7.0508,7.0508,7.0039,6.9453,6.9414,6.9258,6.8945,6.8203,6.7461,6.6875,6.6719,6.6601,6.6484,6.6484,6.5937,6.539,6.539,6.4805,6.4297,6.4297,6.4297,6.4258,6.4101,6.4101,6.4062,6.3906,6.3906,6.3906,6.3906,6.3906,6.3906,6.3906,6.3906,6.3945,6.4101,6.4101,6.414,6.4297,6.4297,6.457,6.5195,6.4492,6.4531,6.539,6.625,6.6719,6.6719,6.6836,6.7305,6.8008,6.8008,6.8476,6.9336,7.0039,7.039,7.0586,7.1445,7.1797,7.1797,7.1953,7.1992,7.1992,7.1992,7.1992,7.1992,7.0898,7.0898,7.0898,7.0898,7.0898,7.0979,7.118,7.1221,7.1271,7.1457,7.156,7.1609,7.1609,7.1706,7.1777,7.1777,7.1777,7.1777,7.1777,7.1583,7.1478,7.1478,7.1478,7.1478,7.1478,7.1478,7.1435,7.1378,7.1378,7.1326,7.1213,7.1326,7.1404,7.1472,7.1572,7.171,7.1861,7.1858,7.1907,7.1992,7.1992,7.1992,7.1992,7.1992,7.1992,7.1992,7.1992,7.1992,7.1992,7.1992,7.1719,7.1406,7.1406,7.1133,7.0859,7.082,7.0195,6.9414,6.8984,6.8242,6.7617,6.7617,6.7265,6.6914,6.6914,6.6601,6.6289,6.6289,6.5976,6.5703,6.5703,6.5703,6.5547,6.5078,6.5,6.4844,6.4375,6.4297,6.4297,6.4297,6.4297,6.4297,6.4297,6.4297,6.4492,6.4961,6.5,6.5195,6.5664,6.5703,6.5898,6.6289,6.5898,6.5898,6.6289,6.6719,6.7148,6.7617,6.7617,6.8047,6.8867,6.8867,6.9375,7.0156,7.0547,7.0976,7.1445,7.1836,7.1992,7.1992,7.1992,7.1992,7.1992,7.1992,7.1992,7.1992,7.0898,7.0927,7.0979,7.0979,7.1004,7.1081,7.1278,7.1314,7.1397,7.1577,7.1718,7.1758,7.1758,7.1908,7.1992,7.1992,7.1992,7.1992,7.1992,7.1771,7.1633,7.1633,7.1633,7.1633,7.1633,7.1633,7.1577,7.1543,7.1543,7.1524,7.1485,7.1524,7.1604,7.1689,7.1629,7.1771,7.1992,7.1854,7.1859,7.1992,7.1992,7.1992,7.1992,7.1992,7.1992,7.1992,7.1992,7.1992,7.1992,7.1992,7.1992,7.1992,7.1992,7.1992,7.1992,7.1992,7.1094,6.9961,6.9531,6.8945,6.8476,6.8515,6.8008,6.75,6.7461,6.7344,6.7187,6.7187,6.7031,6.6914,6.6914,6.6914,6.668,6.6015,6.5898,6.5664,6.5,6.4883,6.4883,6.4883,6.4883,6.4883,6.4883,6.4883,6.5195,6.5859,6.5898,6.6172,6.6875,6.6914,6.6992,6.7187,6.6992,6.6992,6.7187,6.7187,6.7656,6.8515,6.8515,6.8906,6.9687,6.9765,7.0234,7.1015,7.1015,7.1367,7.1992,7.1992,7.1992,7.1992,7.1992,7.1992,7.1992,7.1992,7.1992,7.1992,7.0898,7.1038,7.119,7.119,7.1344,7.1505,7.1651,7.1667,7.1741,7.1949,7.1952,7.1992,7.1992,7.1992,7.1992,7.1992,7.1992,7.1992,7.1992,7.1991,7.1951,7.1951,7.1951,7.1951,7.1951,7.1951,7.1861,7.1679,7.1679,7.1624,7.1485,7.1629,7.1682,7.1693,7.1864,7.1991,7.1992,7.1992,7.1992,7.1992,7.1992,7.1992,7.1992,7.1992,7.1992,7.1992,7.1992,7.1992,7.1992,7.1992,7.1992,7.1992,7.1992,7.1992,7.1992,7.1992,7.1914,7.1445,6.9844,6.9375,6.9336,6.9375,6.9375,6.9297,6.9219,6.8633,6.8086,6.8086,6.7461,6.6914,6.6914,6.6914,6.6875,6.6797,6.6797,6.6797,6.6719,6.6719,6.6719,6.6719,6.6719,6.6719,6.6719,6.6719,6.6758,6.6797,6.6797,6.6836,6.6914,6.6914,6.7265,6.8086,6.7305,6.7305,6.8086,6.8086,6.8555,6.9414,6.9414,6.9844,7.0586,7.0625,7.1094,7.1914,7.1914,7.1953,7.1992,7.1992,7.1992,7.1992,7.1992,7.1992,7.1992,7.1992,7.1992,7.1992,7.105,7.1148,7.1233,7.134,7.1435,7.1543,7.1675,7.1689,7.1758,7.1953,7.1992,7.1992,7.1992,7.1992,7.1992,7.1992,7.1992,7.1992,7.1992,7.1992,7.1992,7.1992,7.1992,7.1992,7.1992,7.1992,7.1952,7.1904,7.1904,7.1858,7.1797,7.1858,7.1904,7.1904,7.1952,7.1992,7.1992,7.1992,7.1992,7.1992,7.1992,7.1992,7.1992,7.1992,7.1992,7.1992,7.1992,7.1992,7.1992,7.1992,7.1992,7.1992,7.1992,7.1992,7.1992,7.1992,7.1992,7.1875,7.1172,7.0625,7.0195,7.0234,6.9844,6.9414,6.9414,6.914,6.8945,6.8984,6.875,6.8515,6.8515,6.8476,6.8281,6.7773,6.7695,6.7539,6.6992,6.6914,6.6914,6.6914,6.6914,6.6914,6.6914,6.7383,6.7695,6.7695,6.8164,6.8437,6.8437,6.8437,6.8633,6.8984,6.8633,6.8633,6.8984,6.9023,6.9414,7.0234,7.0234,7.0703,7.1523,7.1523,7.168,7.1992,7.1992,7.1992,7.1992,7.1992,7.1992,7.1992,7.1992,7.1992,7.1992,7.1992,7.1992,7.1992,7.118,7.1269,7.142,7.1543,7.1638,7.1694,7.1797,7.1805,7.1856,7.1992,7.1992,7.1992,7.1992,7.1992,7.1992,7.1992,7.1992,7.1992,7.1992,7.1992,7.1992,7.1992,7.1992,7.1992,7.1992,7.1992,7.1992,7.1992,7.1992,7.1992,7.1992,7.1992,7.1992,7.1992,7.1992,7.1992,7.1992,7.1992,7.1992,7.1992,7.1992,7.1992,7.1992,7.1992,7.1992,7.1992,7.1992,7.1992,7.1992,7.1992,7.1992,7.1992,7.1992,7.1992,7.1992,7.1992,7.1992,7.1992,7.1992,7.1562,7.1094,7.1094,7.0664,7.0234,7.0234,7.0,6.9805,6.9883,6.9648,6.9492,6.9492,6.9453,6.9219,6.8672,6.8594,6.8398,6.7812,6.7695,6.7695,6.7695,6.7695,6.7695,6.7695,6.8242,6.8594,6.8594,6.9101,6.9414,6.9414,6.9687,6.9844,6.9883,7.0117,7.0234,7.0273,7.0,7.0273,7.1094,7.1094,7.1406,7.1992,7.1992,7.1992,7.1992,7.1992,7.1992,7.1992,7.1992,7.1992,7.1992,7.1992,7.1992,7.1992,7.1992,7.1992,7.1992,7.1182,7.1472,7.1689,7.1693,7.1862,7.1992,7.1992,7.1992,7.1992,7.1992,7.1992,7.1992,7.1992,7.1992,7.1992,7.1992,7.1992,7.1992,7.1992,7.1992,7.1992,7.1992,7.1992,7.1992,7.1992,7.1992,7.1992,7.1992,7.1992,7.1992,7.1992,7.1992,7.1992,7.1992,7.1992,7.1992,7.1992,7.1992,7.1992,7.1992,7.1992,7.1992,7.1992,7.1992,7.1992,7.1992,7.1992,7.1992,7.1992,7.1992,7.1992,7.1992,7.1992,7.1992,7.1992,7.1992,7.1992,7.1992,7.1992,7.1992,7.1992,7.1992,7.1992,7.1992,7.1992,7.1328,7.0703,7.0703,7.0039,6.9453,6.9492,6.9453,6.9453,6.9492,6.9453,6.9414,6.9492,6.9453,6.9414,6.9414,6.9414,6.9414,6.9492,6.9453,6.9414,6.9414,6.9414,6.9453,6.9531,7.0273,7.0703,7.0703,7.1562,7.1992,7.1992,7.1133,7.1133,7.1992,7.1992,7.1992,7.1992,7.1992,7.1992,7.1992,7.1992,7.1992,7.1992,7.1992,7.1992,7.1992,7.1992,7.1992,7.1992,7.1992,7.1992,7.1992,7.1504,7.1647,7.1747,7.1904,7.1952,7.1992,7.1992,7.1992,7.1992,7.1992,7.1992,7.1992,7.1992,7.1992,7.1992,7.1992,7.1992,7.1992,7.1992,7.1992,7.1992,7.1992,7.1992,7.1992,7.1992,7.1992,7.1992,7.1992,7.1992,7.1992,7.1992,7.1992,7.1992,7.1992,7.1992,7.1992,7.1992,7.1992,7.1992,7.1992,7.1992,7.1992,7.1992,7.1992,7.1992,7.1992,7.1992,7.1992,7.1992,7.1992,7.1992,7.1992,7.1992,7.1992,7.1992,7.1992,7.1992,7.1992,7.1992,7.1992,7.1992,7.1992,7.1992,7.1992,7.1992,7.1797,7.1601,7.1601,7.1406,7.1211,7.125,7.125,7.1015,7.043,7.0312,7.0117,6.957,6.9492,6.9453,6.9453,6.9414,6.9414,6.9492,7.0,7.0312,7.0312,7.0898,7.1211,7.125,7.1484,7.1601,7.1601,7.1875,7.1992,7.1992,7.1758,7.1758,7.1992,7.1992,7.1992,7.1992,7.1992,7.1992,7.1992,7.1992,7.1992,7.1992,7.1992,7.1992,7.1992,7.1992,7.1992,7.1992,7.1992,7.1992,7.1992,7.1667,7.1756,7.1859,7.1992,7.1992,7.1992,7.1992,7.1992,7.1992,7.1992,7.1992,7.1992,7.1992,7.1992,7.1992,7.1992,7.1992,7.1992,7.1992,7.1992,7.1992,7.1992,7.1992,7.1992,7.1992,7.1992,7.1992,7.1992,7.1992,7.1992,7.1992,7.1992,7.1992,7.1992,7.1992,7.1992,7.1992,7.1992,7.1992,7.1992,7.1992,7.1992,7.1992,7.1992,7.1992,7.1992,7.1992,7.1992,7.1992,7.1992,7.1992,7.1992,7.1992,7.1992,7.1992,7.1992,7.1992,7.1992,7.1992,7.1992,7.1992,7.1992,7.1992,7.1992,7.1992,7.1992,7.1992,7.1992,7.1992,7.1992,7.1992,7.1992,7.1836,7.1289,7.1211,7.1055,7.0547,7.0508,7.0508,7.0508,7.0469,7.043,7.0469,7.0937,7.1211,7.1211,7.1719,7.1992,7.1992,7.1992,7.1992,7.1992,7.1992,7.1992,7.1992,7.1992,7.1992,7.1992,7.1992,7.1992,7.1992,7.1992,7.1992,7.1992,7.1992,7.1992,7.1992,7.1992,7.1992,7.1992,7.1992,7.1992,7.1992,7.1992,7.1992,7.1992,7.1699,7.1862,7.1992,7.1992,7.1992,7.1992,7.1992,7.1992,7.1992,7.1992,7.1992,7.1992,7.1992,7.1992,7.1992,7.1992,7.1992,7.1992,7.1992,7.1992,7.1992,7.1992,7.1992,7.1992,7.1992,7.1992,7.1992,7.1992,7.1992,7.1992,7.1992,7.1992,7.1992,7.1992,7.1992,7.1992,7.1992,7.1992,7.1992,7.1992,7.1992,7.1992,7.1992,7.1992,7.1992,7.1992,7.1992,7.1992,7.1992,7.1992,7.1992,7.1992,7.1992,7.1992,7.1992,7.1992,7.1992,7.1992,7.1992,7.1992,7.1992,7.1992,7.1992,7.1992,7.1992,7.1992,7.1992,7.1992,7.1992,7.1992,7.1992,7.1992,7.1992,7.1992,7.1992,7.1992,7.1992,7.1992,7.1992,7.1992,7.1992,7.1992,7.1992,7.1992,7.1992,7.1992,7.1992,7.1992,7.1992,7.1992,7.1992,7.1992,7.1992,7.1992,7.1992,7.1992,7.1992,7.1992,7.1992,7.1992,7.1992,7.1992,7.1992,7.1992,7.1992,7.1992,7.1992,7.1992,7.1992,7.1992,7.1992,7.1992,7.1992,7.1992,7.1992,7.1992,7.1907,7.1952,7.1992,7.1992,7.1992,7.1992,7.1992,7.1992,7.1992,7.1992,7.1992,7.1992,7.1992,7.1992,7.1992,7.1992,7.1992,7.1992,7.1992,7.1992,7.1992,7.1992,7.1992,7.1992,7.1992,7.1992,7.1992,7.1992,7.1992,7.1992,7.1992,7.1992,7.1992,7.1992,7.1992,7.1992,7.1992,7.1992,7.1992,7.1992,7.1992,7.1992,7.1992,7.1992,7.1992,7.1992,7.1992,7.1992,7.1992,7.1992,7.1992,7.1992,7.1992,7.1992,7.1992,7.1992,7.1992,7.1992,7.1992,7.1992,7.1992,7.1992,7.1992,7.1992,7.1992,7.1992,7.1992,7.1992,7.1992,7.1992,7.1992,7.1992,7.1992,7.1992,7.1992,7.1992,7.1992,7.1992,7.1992,7.1992,7.1992,7.1992,7.1992,7.1992,7.1992,7.1992,7.1992,7.1992,7.1992,7.1992,7.1992,7.1992,7.1992,7.1992,7.1992,7.1992,7.1992,7.1992,7.1992,7.1992,7.1992,7.1992,7.1992,7.1992,7.1992,7.1992,7.1992,7.1992,7.1992,7.1992,7.1992,7.1992,7.1992,7.1992,7.1992,7.1992,7.3203,7.3242,7.3242,7.3242,7.3242,7.3242,7.3242,7.3242,7.3086,7.2656,7.2617,7.2461,7.2031,7.1992,7.1992,7.1992,7.1992,7.1992,7.1992,7.1992,7.1992,7.1992,7.1992,7.1992,7.1992,7.1992,7.1992,7.1992,7.1992,7.1992,7.1992,7.1992,7.1992,7.1992,7.1992,7.1992,7.1992,7.1992,7.1992,7.1992,7.1992,7.1992,7.1992,7.1992,7.1992,7.1992,7.1992,7.1992,7.1992,7.1992,7.1992,7.1992,7.1992,7.1992,7.1992,7.1992,7.1992,7.1992,7.1992,7.1992,7.1992,7.1992,7.1992,7.1992,7.1992,7.1992,7.1992,7.1992,7.1992,7.1992,7.1992,7.1992,7.1992,7.1992,7.1992,7.1992,7.1992,7.1992,7.1992,7.1992,7.1992,7.1992,7.1992,7.1992,7.1992,7.1992,7.1992,7.1992,7.1992,7.1992,7.1992,7.1992,7.1992,7.1992,7.1992,7.1992,7.1992,7.1992,7.1992,7.1992,7.1992,7.1992,7.1992,7.1992,7.1992,7.1992,7.1992,7.1992,7.1992,7.1992,7.1992,7.1992,7.1992,7.1992,7.1992,7.1992,7.4609,7.4609,7.4609,7.4609,7.4609,7.4609,7.4609,7.4609,7.4336,7.3633,7.3515,7.3242,7.2539,7.2305,7.2148,7.1992,7.1992,7.1992,7.1992,7.1992,7.1992,7.1992,7.1992,7.1992,7.1992,7.1992,7.1992,7.1992,7.1992,7.1992,7.1992,7.1992,7.1992,7.1992,7.1992,7.1992,7.1992,7.1992,7.1992,7.1992,7.1992,7.1992,7.1992,7.1992,7.1992,7.1992,7.1992,7.1992,7.1992,7.1992,7.1992,7.1992,7.1992,7.1992,7.1992,7.1992,7.1992,7.1992,7.1992,7.1992,7.1992,7.1992,7.1992,7.1992,7.1992,7.1992,7.1992,7.1992,7.1992,7.1992,7.1992,7.1992,7.1992,7.1992,7.1992,7.1992,7.1992,7.1992,7.1992,7.1992,7.1992,7.1992,7.1992,7.1992,7.1992,7.1992,7.1992,7.1992,7.1992,7.1992,7.1992,7.1992,7.1992,7.1992,7.1992,7.1992,7.1992,7.1992,7.1992,7.1992,7.1992,7.1992,7.1992,7.1992,7.1992,7.1992,7.1992,7.1992,7.1992,7.1992,7.1992,7.1992,7.1992,7.1992,7.1992,7.1992,7.4609,7.4609,7.4609,7.4609,7.4609,7.4609,7.4609,7.4609,7.457,7.4453,7.4414,7.4375,7.4258,7.3594,7.2812,7.207,7.1992,7.1992,7.1992,7.1992,7.1992,7.1992,7.1992,7.1992,7.1992,7.1992,7.1992,7.1992,7.1992,7.1992,7.1992,7.1992,7.1992,7.1992,7.1992,7.1992,7.1992,7.1992,7.1992,7.1992,7.1992,7.1992,7.1992,7.1992,7.1992,7.1992,7.1992,7.1992,7.1992,7.1992,7.1992,7.1992,7.1992,7.1992,7.1992,7.1992,7.1992,7.1992,7.1992,7.1992,7.1992,7.1992,7.1992,7.1992,7.1992,7.1992,7.1992,7.1992,7.1992,7.1992,7.1992,7.1992,7.1992,7.1992,7.1992,7.1992,7.1992,7.1992,7.1992,7.1992,7.1992,7.1992,7.1992,7.1992,7.1992,7.1992,7.1992,7.1992,7.1992,7.1992,7.1992,7.1992,7.1992,7.1992,7.1992,7.1992,7.1992,7.1992,7.1992,7.1992,7.1992,7.1992,7.1992,7.1992,7.1992,7.1992,7.1992,7.1992,7.1992,7.1992,7.1992,7.1992,7.1992,7.1992,7.1992,7.1992,7.6055,7.6055,7.6055,7.6055,7.6055,7.6055,7.6055,7.6055,7.5898,7.539,7.5312,7.5156,7.4648,7.4258,7.3867,7.3476,7.3437,7.3242,7.2773,7.2734,7.25,7.2031,7.1992,7.1992,7.1992,7.1992,7.1992,7.1992,7.1992,7.1992,7.1992,7.1992,7.1992,7.1992,7.1992,7.1992,7.1992,7.1992,7.1992,7.1992,7.1992,7.1992,7.1992,7.1992,7.1992,7.1992,7.1992,7.1992,7.1992,7.1992,7.1992,7.1992,7.1992,7.1992,7.1992,7.1992,7.1992,7.1992,7.1992,7.1992,7.1992,7.1992,7.1992,7.1992,7.1992,7.1992,7.1992,7.1992,7.1992,7.1992,7.1992,7.1992,7.1992,7.1992,7.1992,7.1992,7.1992,7.1992,7.1992,7.1992,7.1992,7.1992,7.1992,7.1992,7.1992,7.1992,7.1992,7.1992,7.1992,7.1992,7.1992,7.1992,7.1992,7.1992,7.1992,7.1992,7.1992,7.1992,7.1992,7.1992,7.1992,7.1992,7.1992,7.1992,7.1992,7.1992,7.1992,7.1992,7.1992,7.1992,7.1992,7.1992,7.1992,7.1992,7.1992,7.1992]}]]